[[{"header":{"parameterUnit":"m.s-1","parameterCategory":1,"la1":30.6,"la2":29.2853,"lo1":-89.7004,"lo2":-87.6739,"dx":0.0162,"dy":0.0183,"nx":112,"ny":82,"refTime":"2022-12-07T06:00:00:Z","depth":0,"parameterNumber":2,"parameterNumberName":"U-component_of_WINDS"},"data":[0.0,0.0,0.0,0.0,0.0,0.0,0.0,0.0,0.0,0.0,0.0,0.0,0.0,0.0,0.0,0.0,0.0,0.0,0.0,0.0,0.0,0.0,0.0,0.0,0.0,0.0,0.0,0.0,0.0,0.0,0.0,0.0,0.0,0.0,0.0,0.0,0.0,0.0,0.0,0.0,0.0,0.0,0.0,0.0,0.0,0.0,0.0,0.0,0.0,0.0,0.0,0.0,0.0,0.0,0.0,0.0,0.0,0.0,0.0,0.0,0.0,0.0,0.0,0.0,0.0,0.0,0.0,0.0,0.0,0.0,0.0,0.0,0.0,0.0,0.0,0.0,0.0,0.0,0.0,0.0,0.0,0.0,0.0,0.0,0.0,0.0,0.0,0.0,0.0,0.0,-1.7099,-1.851,-1.8227,-1.7971,-1.8236,-1.7137,-1.5685,-1.3979,0.0,0.0,0.0,0.0,0.0,0.0,0.0,0.0,0.0,0.0,0.0,0.0,0.0,0.0,0.0,0.0,0.0,0.0,0.0,0.0,0.0,0.0,0.0,0.0,0.0,0.0,0.0,0.0,0.0,0.0,0.0,0.0,0.0,0.0,0.0,0.0,0.0,0.0,0.0,0.0,0.0,0.0,0.0,0.0,0.0,0.0,0.0,0.0,0.0,0.0,0.0,0.0,0.0,0.0,0.0,0.0,0.0,0.0,0.0,0.0,0.0,0.0,0.0,0.0,0.0,0.0,0.0,0.0,0.0,0.0,0.0,0.0,0.0,0.0,0.0,0.0,0.0,0.0,0.0,0.0,0.0,0.0,0.0,0.0,0.0,0.0,0.0,0.0,0.0,0.0,0.0,0.0,0.0,0.0,0.0,0.0,0.0,0.0,0.0,0.0,0.0,0.0,0.0,0.0,-1.6977,-1.9525,-1.8667,-1.8416,-1.9671,-1.7007,-1.4846,-1.3947,0.0,0.0,0.0,0.0,0.0,0.0,0.0,0.0,0.0,0.0,0.0,0.0,0.0,0.0,0.0,0.0,0.0,0.0,0.0,0.0,0.0,0.0,0.0,0.0,0.0,0.0,0.0,0.0,0.0,0.0,0.0,0.0,0.0,0.0,0.0,0.0,0.0,0.0,0.0,0.0,0.0,0.0,0.0,0.0,0.0,0.0,0.0,0.0,0.0,0.0,0.0,0.0,0.0,0.0,0.0,0.0,0.0,0.0,0.0,0.0,0.0,0.0,0.0,0.0,0.0,0.0,0.0,0.0,0.0,0.0,0.0,0.0,0.0,0.0,0.0,0.0,0.0,0.0,0.0,0.0,0.0,0.0,0.0,0.0,0.0,0.0,0.0,0.0,0.0,0.0,0.0,0.0,0.0,0.0,0.0,0.0,0.0,0.0,0.0,0.0,0.0,0.0,0.0,-1.6391,-1.7311,-1.8941,-1.8813,-1.8533,-1.8548,-1.5842,-1.3805,-1.3027,-1.3172,0.0,0.0,0.0,0.0,0.0,0.0,0.0,0.0,0.0,0.0,0.0,0.0,0.0,0.0,0.0,0.0,0.0,0.0,0.0,0.0,0.0,0.0,0.0,0.0,0.0,0.0,0.0,0.0,0.0,0.0,0.0,0.0,0.0,0.0,0.0,0.0,0.0,0.0,0.0,0.0,0.0,0.0,0.0,0.0,0.0,0.0,0.0,0.0,0.0,0.0,0.0,0.0,0.0,0.0,0.0,0.0,0.0,0.0,0.0,0.0,0.0,0.0,0.0,0.0,0.0,0.0,0.0,0.0,0.0,0.0,0.0,0.0,0.0,0.0,0.0,0.0,0.0,0.0,0.0,0.0,0.0,0.0,0.0,0.0,0.0,0.0,0.0,0.0,0.0,0.0,0.0,0.0,0.0,0.0,0.0,0.0,0.0,0.0,0.0,0.0,0.0,0.0,-1.7935,-1.8655,-1.8501,-1.8988,-1.8873,-1.775,-1.5076,-1.317,-1.2334,-1.2465,0.0,0.0,0.0,0.0,0.0,0.0,0.0,0.0,0.0,0.0,0.0,0.0,0.0,0.0,0.0,0.0,0.0,0.0,0.0,0.0,0.0,0.0,0.0,0.0,0.0,0.0,0.0,0.0,0.0,0.0,0.0,0.0,0.0,0.0,0.0,0.0,0.0,0.0,0.0,0.0,0.0,0.0,0.0,0.0,0.0,0.0,0.0,0.0,0.0,0.0,0.0,0.0,0.0,0.0,0.0,0.0,0.0,0.0,0.0,0.0,0.0,0.0,0.0,0.0,0.0,0.0,0.0,0.0,0.0,0.0,0.0,0.0,0.0,0.0,0.0,0.0,0.0,0.0,0.0,0.0,0.0,0.0,0.0,0.0,0.0,0.0,0.0,0.0,0.0,0.0,0.0,0.0,0.0,0.0,0.0,0.0,0.0,0.0,0.0,0.0,0.0,0.0,-1.871,-2.171,-1.9328,-1.963,-1.972,-1.901,-1.5593,-1.3211,-1.2501,-1.2665,0.0,0.0,0.0,0.0,0.0,0.0,0.0,0.0,0.0,0.0,0.0,0.0,0.0,0.0,0.0,0.0,0.0,0.0,0.0,0.0,0.0,0.0,0.0,0.0,0.0,0.0,0.0,0.0,0.0,0.0,0.0,0.0,0.0,0.0,0.0,0.0,0.0,0.0,0.0,0.0,0.0,0.0,0.0,0.0,0.0,0.0,0.0,0.0,0.0,0.0,0.0,0.0,0.0,0.0,0.0,0.0,0.0,0.0,0.0,0.0,0.0,0.0,0.0,0.0,0.0,0.0,0.0,0.0,0.0,0.0,0.0,0.0,0.0,0.0,0.0,0.0,0.0,0.0,0.0,0.0,0.0,0.0,0.0,0.0,0.0,0.0,0.0,0.0,0.0,0.0,0.0,0.0,0.0,0.0,0.0,0.0,0.0,0.0,0.0,0.0,0.0,0.0,-1.6524,-1.8552,0.0,-1.932,-1.8784,-1.7126,-1.4864,-1.3238,-1.2723,0.0,0.0,0.0,0.0,0.0,0.0,0.0,0.0,0.0,0.0,0.0,0.0,0.0,0.0,0.0,0.0,0.0,0.0,0.0,0.0,0.0,0.0,0.0,0.0,0.0,0.0,0.0,0.0,0.0,0.0,0.0,0.0,0.0,0.0,0.0,0.0,0.0,0.0,0.0,0.0,0.0,0.0,0.0,0.0,0.0,0.0,0.0,0.0,0.0,0.0,0.0,0.0,0.0,0.0,0.0,0.0,0.0,0.0,0.0,0.0,0.0,0.0,0.0,0.0,0.0,0.0,0.0,0.0,0.0,0.0,0.0,0.0,0.0,0.0,0.0,0.0,0.0,0.0,0.0,0.0,0.0,0.0,0.0,0.0,0.0,0.0,0.0,0.0,0.0,0.0,0.0,0.0,0.0,0.0,0.0,0.0,0.0,0.0,0.0,0.0,0.0,0.0,-1.4257,-1.5807,-1.6791,0.0,-1.7315,-1.6935,-1.5968,-1.445,-1.3194,-1.2483,0.0,0.0,0.0,0.0,0.0,0.0,0.0,0.0,0.0,0.0,0.0,0.0,0.0,0.0,0.0,0.0,0.0,0.0,0.0,0.0,0.0,0.0,0.0,0.0,0.0,0.0,0.0,0.0,0.0,0.0,0.0,0.0,0.0,0.0,0.0,0.0,0.0,0.0,0.0,0.0,0.0,0.0,0.0,0.0,0.0,0.0,0.0,0.0,0.0,0.0,0.0,0.0,0.0,0.0,0.0,0.0,0.0,0.0,0.0,0.0,0.0,0.0,0.0,0.0,0.0,0.0,0.0,0.0,0.0,0.0,0.0,0.0,0.0,0.0,0.0,0.0,0.0,0.0,0.0,0.0,0.0,0.0,0.0,0.0,0.0,0.0,0.0,0.0,0.0,0.0,0.0,0.0,0.0,0.0,0.0,0.0,0.0,0.0,0.0,0.0,0.0,0.0,-1.4162,-1.7178,-1.7623,-1.3933,-1.3517,-1.4229,-1.6128,-1.4576,-1.2919,0.0,0.0,0.0,0.0,0.0,0.0,0.0,0.0,0.0,0.0,0.0,0.0,0.0,0.0,0.0,0.0,0.0,0.0,0.0,0.0,0.0,0.0,0.0,0.0,0.0,0.0,0.0,0.0,0.0,0.0,0.0,0.0,0.0,0.0,0.0,0.0,0.0,0.0,0.0,0.0,0.0,0.0,0.0,0.0,0.0,0.0,0.0,0.0,0.0,0.0,0.0,0.0,0.0,0.0,0.0,0.0,0.0,0.0,0.0,0.0,0.0,0.0,0.0,0.0,0.0,0.0,0.0,0.0,0.0,0.0,0.0,0.0,0.0,0.0,0.0,0.0,0.0,0.0,0.0,0.0,0.0,0.0,0.0,0.0,0.0,0.0,0.0,0.0,0.0,0.0,0.0,0.0,0.0,0.0,0.0,0.0,0.0,0.0,0.0,0.0,0.0,0.0,0.0,-1.3449,-1.5086,-1.5281,-1.3648,-1.3467,-1.3745,-1.4263,-1.3645,-1.2466,-1.0679,0.0,0.0,0.0,0.0,0.0,0.0,0.0,0.0,0.0,0.0,0.0,0.0,0.0,0.0,0.0,0.0,0.0,0.0,0.0,0.0,0.0,0.0,0.0,0.0,0.0,0.0,0.0,0.0,0.0,0.0,0.0,0.0,0.0,0.0,0.0,0.0,0.0,0.0,0.0,0.0,0.0,0.0,0.0,0.0,0.0,0.0,0.0,0.0,0.0,0.0,0.0,0.0,0.0,0.0,0.0,0.0,0.0,0.0,0.0,0.0,0.0,0.0,0.0,0.0,0.0,0.0,0.0,0.0,0.0,0.0,0.0,0.0,0.0,0.0,0.0,0.0,0.0,0.0,0.0,0.0,0.0,0.0,0.0,0.0,0.0,0.0,0.0,0.0,0.0,0.0,0.0,0.0,0.0,0.0,0.0,0.0,0.0,0.0,0.0,0.0,0.0,0.0,-1.2528,-1.3567,-1.4023,-1.3584,-1.3506,-1.3492,-1.3346,-1.2799,-1.1852,-1.0459,0.0,0.0,0.0,0.0,0.0,0.0,0.0,0.0,0.0,0.0,0.0,0.0,0.0,0.0,0.0,0.0,0.0,0.0,0.0,0.0,0.0,0.0,0.0,0.0,0.0,0.0,0.0,0.0,0.0,0.0,0.0,0.0,0.0,0.0,0.0,0.0,0.0,0.0,0.0,0.0,0.0,0.0,0.0,0.0,0.0,0.0,0.0,0.0,0.0,0.0,0.0,0.0,0.0,0.0,0.0,0.0,0.0,0.0,0.0,0.0,0.0,0.0,0.0,0.0,0.0,0.0,0.0,0.0,0.0,0.0,0.0,0.0,0.0,0.0,0.0,0.0,0.0,0.0,0.0,0.0,0.0,0.0,0.0,0.0,0.0,0.0,0.0,0.0,0.0,0.0,0.0,0.0,0.0,0.0,0.0,0.0,0.0,0.0,0.0,0.0,0.0,0.0,-1.163,-1.277,-1.3499,-1.3499,-1.3499,-1.3426,-1.3119,-1.2104,-1.119,-1.0616,0.0,0.0,0.0,0.0,0.0,0.0,0.0,0.0,0.0,0.0,0.0,0.0,0.0,0.0,0.0,0.0,0.0,0.0,0.0,0.0,0.0,0.0,0.0,0.0,0.0,0.0,0.0,0.0,0.0,0.0,0.0,0.0,0.0,0.0,0.0,0.0,0.0,0.0,0.0,0.0,0.0,0.0,0.0,0.0,0.0,0.0,0.0,0.0,0.0,0.0,0.0,0.0,0.0,0.0,0.0,0.0,0.0,0.0,0.0,0.0,-1.4081,0.0,0.0,0.0,0.0,0.0,0.0,0.0,0.0,0.0,0.0,0.0,0.0,0.0,0.0,0.0,0.0,0.0,0.0,0.0,0.0,0.0,0.0,0.0,0.0,0.0,0.0,0.0,0.0,0.0,0.0,0.0,0.0,0.0,0.0,0.0,0.0,0.0,0.0,0.0,0.0,0.0,-1.2805,-1.3347,-1.3528,-1.3477,-1.3477,-1.3396,-1.3089,-1.1916,-1.0852,-0.9991,-0.8848,0.0,0.0,0.0,0.0,0.0,0.0,0.0,0.0,0.0,0.0,0.0,0.0,0.0,0.0,0.0,0.0,0.0,0.0,0.0,0.0,0.0,0.0,0.0,0.0,0.0,0.0,0.0,0.0,0.0,0.0,0.0,0.0,0.0,0.0,0.0,0.0,0.0,0.0,0.0,0.0,0.0,0.0,0.0,0.0,0.0,0.0,0.0,0.0,0.0,0.0,0.0,0.0,0.0,0.0,0.0,0.0,0.0,0.0,0.0,0.0,-1.4662,0.0,0.0,0.0,0.0,0.0,0.0,0.0,0.0,0.0,0.0,0.0,0.0,0.0,0.0,0.0,0.0,0.0,0.0,0.0,0.0,0.0,0.0,0.0,0.0,0.0,0.0,0.0,0.0,0.0,0.0,0.0,0.0,0.0,0.0,0.0,0.0,0.0,0.0,0.0,0.0,-1.3132,-1.3467,-1.3393,-1.325,-1.2893,-1.2505,-1.2164,-1.1248,-1.0302,-0.94,-0.824,0.0,0.0,0.0,0.0,0.0,0.0,0.0,0.0,0.0,0.0,0.0,0.0,0.0,0.0,0.0,0.0,0.0,0.0,0.0,0.0,0.0,0.0,0.0,0.0,0.0,0.0,0.0,0.0,0.0,0.0,0.0,0.0,0.0,0.0,0.0,0.0,0.0,0.0,0.0,0.0,0.0,0.0,0.0,0.0,0.0,0.0,0.0,0.0,0.0,0.0,0.0,0.0,0.0,-1.5954,-1.618,-1.647,-1.6791,-1.7154,-1.7448,-1.7423,-1.6827,-1.5774,0.0,0.0,0.0,0.0,0.0,0.0,0.0,0.0,0.0,0.0,0.0,0.0,0.0,0.0,0.0,0.0,0.0,0.0,0.0,0.0,0.0,0.0,0.0,0.0,0.0,-0.9866,-1.0215,0.0,0.0,0.0,0.0,0.0,0.0,0.0,0.0,0.0,0.0,0.0,0.0,-1.3255,-1.343,-1.3173,-1.284,-1.1832,-1.1138,-1.0995,-1.0329,-0.9658,-0.9074,-0.7861,-0.7146,0.0,0.0,0.0,0.0,0.0,0.0,0.0,0.0,0.0,0.0,0.0,0.0,0.0,0.0,0.0,0.0,0.0,0.0,0.0,0.0,0.0,0.0,0.0,0.0,0.0,0.0,0.0,0.0,0.0,0.0,0.0,0.0,-1.6022,-1.5381,0.0,0.0,0.0,0.0,0.0,0.0,0.0,0.0,0.0,0.0,0.0,0.0,0.0,-1.5318,-1.5231,-1.5891,-1.6277,-1.6288,-1.7427,-1.8184,-1.8633,-1.9308,-1.9465,-1.9214,-1.938,0.0,-1.5763,-1.5083,0.0,0.0,0.0,0.0,0.0,0.0,0.0,0.0,0.0,0.0,0.0,0.0,0.0,0.0,0.0,0.0,0.0,0.0,0.0,0.0,0.0,0.0,-1.0212,-1.001,-1.0103,-1.053,0.0,-1.1585,-1.1295,-1.1458,-1.1664,0.0,0.0,0.0,0.0,0.0,0.0,0.0,-1.3708,-1.3078,-1.2418,-1.2398,-1.0415,-0.9506,-1.0502,-0.9311,-0.8727,-0.9221,-0.8477,-0.7385,-0.62,-0.6015,0.0,0.0,0.0,0.0,0.0,0.0,0.0,0.0,0.0,0.0,0.0,0.0,0.0,0.0,0.0,0.0,0.0,0.0,0.0,0.0,0.0,0.0,0.0,0.0,0.0,0.0,0.0,0.0,0.0,-1.4634,-1.5534,-1.4916,-1.4827,-1.4327,0.0,0.0,0.0,0.0,0.0,0.0,0.0,0.0,0.0,-1.5542,-1.6009,-1.6342,-1.6498,-1.7162,-1.7523,-1.7595,-1.8259,-1.8653,-1.8761,-1.9655,-1.9574,-1.8733,-1.9388,-1.8397,-1.6275,-1.577,-1.4472,-1.2757,0.0,0.0,0.0,0.0,-1.1525,-1.1522,-1.1581,-1.1591,0.0,-1.0854,0.0,0.0,0.0,0.0,0.0,0.0,0.0,0.0,0.0,0.0,-1.0037,-1.0279,-1.0219,-1.021,-1.0787,-1.1404,-1.2008,0.0,-1.3219,-1.3412,-1.1916,0.0,0.0,0.0,0.0,-1.2889,-1.3623,-1.1344,-0.9806,-1.0214,-0.9637,-0.9195,-0.9225,-0.903,-0.8827,-0.8775,-0.7936,-0.7099,-0.6488,-0.5594,-0.4565,0.0,0.0,0.0,0.0,0.0,0.0,0.0,0.0,0.0,0.0,0.0,0.0,0.0,0.0,0.0,0.0,0.0,0.0,0.0,0.0,0.0,0.0,0.0,0.0,0.0,0.0,0.0,0.0,-1.5018,-1.5539,-1.4929,-1.518,-1.4869,0.0,0.0,0.0,0.0,0.0,0.0,-1.5207,-1.5661,-1.6062,-1.6427,-1.6867,-1.7264,-1.7681,-1.8151,-1.8405,-1.8549,-1.8674,-1.8735,-1.8662,-1.9163,-1.8845,-1.7872,-1.8386,-1.7814,-1.6359,-1.6095,-1.5128,-1.3729,-1.3238,-1.2792,-1.249,-1.2647,-1.2546,-1.2398,-1.2258,-1.2175,-1.1983,-1.1376,0.0,-1.0135,-0.974,0.0,0.0,0.0,0.0,-0.9679,-1.0143,-1.0027,-0.9828,-1.0377,-1.0272,-1.0051,-1.0157,-1.1073,-1.1985,0.0,-1.4436,-1.4897,-1.2143,0.0,0.0,0.0,0.0,-1.2968,-1.2628,-0.9979,-0.8211,-0.8549,-0.9081,-0.916,-0.8486,-0.859,-0.8537,-0.8008,-0.7084,-0.6311,-0.5912,-0.4817,-0.3787,-0.2826,0.0,0.0,0.0,0.0,0.0,0.0,0.0,0.0,0.0,0.0,0.0,0.0,0.0,0.0,0.0,0.0,0.0,0.0,0.0,0.0,0.0,0.0,0.0,0.0,0.0,0.0,0.0,0.0,0.0,-1.6445,-1.6773,0.0,0.0,0.0,0.0,-1.5714,-1.5622,-1.581,-1.6287,-1.6644,-1.7009,-1.7421,-1.7911,-1.8247,-1.8267,-1.8385,-1.8617,-1.8808,-1.8617,-1.8761,-1.9143,-1.7906,-1.7409,-1.7415,-1.649,-1.5832,-1.5516,-1.5799,-1.5122,-1.3905,-1.3302,-1.283,-1.2522,-1.2909,-1.2693,-1.2201,-1.2543,-1.2445,-1.2066,-1.2066,-1.152,-1.0936,-1.0974,-1.0529,0.0,0.0,-1.0722,-1.0686,-1.047,-1.0383,-1.0294,-1.0032,-1.0092,-1.0267,-1.0716,-1.0804,-1.0974,0.0,-1.4419,-1.5628,-1.2536,0.0,-1.2433,-1.4844,-1.2387,-1.0179,-1.0177,-0.9963,-0.9404,-0.8276,-0.8714,-0.9,-0.8722,-0.7829,-0.7157,-0.6919,-0.5912,-0.4828,-0.3593,-0.3505,-0.2897,-0.1821,-0.164,0.0,0.0,0.0,0.0,0.0,0.0,0.0,0.0,0.0,0.0,0.0,0.0,0.0,0.0,0.0,0.0,0.0,0.0,0.0,0.0,0.0,0.0,0.0,0.0,0.0,0.0,0.0,0.0,-1.6513,-1.7189,0.0,-1.556,-1.5875,-1.6209,-1.6409,-1.6892,-1.7185,-1.7248,-1.7593,-1.7841,-1.7813,-1.7986,-1.8144,-1.8269,-1.8405,-1.8482,-1.8472,-1.8482,-1.8066,-1.7362,-1.7277,-1.6733,-1.5864,-1.5929,-1.5751,-1.5401,-1.5529,-1.5317,-1.4865,-1.4657,-1.4592,-1.4494,-1.3913,-1.3726,-1.3656,-1.2589,-1.2327,-1.2423,-1.2015,-1.1793,-1.1623,-1.1314,-1.0825,-1.0327,-1.0351,-1.0226,-1.0118,-1.0204,-1.0129,-1.0062,-1.0372,-1.0182,-1.0051,-1.0274,-1.0294,-1.0297,-1.0584,-1.1102,-1.1167,-0.9969,-0.9756,-1.0166,-1.1727,-1.0795,-1.002,-0.9974,-0.9633,-0.9255,-0.8823,-0.8568,-0.8195,-0.7532,-0.6915,-0.6304,-0.5684,-0.4675,-0.3824,-0.3202,-0.2622,-0.1991,-0.149,-0.1364,-0.1318,0.0,0.0,0.0,0.0,0.0,0.0,0.0,0.0,0.0,0.0,0.0,0.0,0.0,0.0,0.0,0.0,0.0,0.0,0.0,0.0,0.0,0.0,0.0,0.0,0.0,0.0,-1.7146,-1.6568,-1.7473,-1.7597,-1.6364,-1.6862,-1.7286,-1.737,-1.7892,-1.809,-1.79,-1.8085,-1.8144,-1.8008,-1.8008,-1.8076,-1.8212,-1.8279,-1.8279,-1.8212,-1.792,-1.7217,-1.6306,-1.6145,-1.5593,-1.4828,-1.5169,-1.5277,-1.5277,-1.5387,-1.5257,-1.4999,-1.4999,-1.5075,-1.5159,-1.4247,-1.3946,-1.3801,-1.2598,-1.2333,-1.2496,-1.1923,-1.1807,-1.1838,-1.1304,-1.0878,-1.0524,-1.0169,-0.9933,-0.9864,-0.9901,-0.9903,-0.9877,-1.0324,-1.0092,-0.9853,-0.9998,-1.0043,-0.997,-0.9993,-0.9221,-0.8615,-0.8589,-0.8858,-0.9167,-0.9485,-0.9517,-0.9628,-0.9986,-0.9644,-0.9354,-0.9197,-0.8405,-0.7576,-0.6865,-0.5864,-0.4985,-0.4368,-0.3335,-0.2647,-0.2533,-0.1826,-0.1436,-0.1368,-0.107,-0.0721,-0.0443,0.0,0.0,0.0,0.0,0.0,0.0,0.0,0.0,0.0,0.0,0.0,0.0,0.0,0.0,0.0,0.0,0.0,0.0,0.0,0.0,0.0,0.0,0.0,-1.5877,-1.6949,-1.7478,-1.6862,-1.7716,-1.8144,-1.7578,-1.7999,-1.8449,-1.8813,-1.8607,-1.8414,-1.8337,-1.8144,-1.8008,-1.8008,-1.8008,-1.8008,-1.8008,-1.794,-1.794,-1.794,-1.6802,-1.6228,-1.6167,-1.4537,-1.4013,-1.4494,-1.4304,-1.4475,-1.4881,-1.5202,-1.4824,-1.4068,-1.4055,-1.423,-1.4271,-1.361,-1.3091,-1.2632,-1.2417,-1.2404,-1.2309,-1.1826,-1.1637,-1.1606,-1.0925,-1.0681,-1.0584,-1.0019,-1.0014,-1.0014,-0.9541,-0.9634,-0.9776,-0.9858,-0.9813,-0.9844,-0.9998,-0.9965,-0.9979,-0.9998,-0.9257,-0.8623,-0.856,-0.938,-0.9671,-0.8747,-0.8587,0.0,-0.9719,-0.9933,-0.9698,-0.9244,-0.8094,-0.7188,-0.6711,-0.4666,-0.3287,-0.3052,-0.2074,-0.1398,-0.1301,-0.117,-0.1232,-0.142,-0.0483,0.0406,0.1299,0.0,0.0,0.0,0.0,0.0,0.0,0.0,0.0,0.0,0.0,0.0,0.0,0.0,0.0,0.0,0.0,0.0,0.0,0.0,0.0,0.0,0.0,-1.6547,-1.7092,-1.7759,-1.8169,-1.8207,-1.8604,-1.8781,-1.8462,-1.8565,-1.874,-1.8988,-1.8607,-1.8405,-1.8414,-1.8144,-1.8008,-1.8008,-1.7862,-1.7862,-1.8008,-1.7285,-1.6932,-1.6733,-1.5877,-1.5092,-1.4243,-1.397,-1.3726,-1.3741,-1.3834,-1.3867,-1.3954,-1.4036,-1.3814,-1.3392,-1.3881,-1.4005,-1.3758,-1.2791,-1.186,-1.1289,-1.1584,-1.1409,-1.1057,-1.1109,-1.1264,-1.1264,-1.0953,-1.0603,-1.026,-1.0063,-0.9815,-0.9582,-0.9575,-0.9701,-0.9854,-0.9911,-0.9948,-0.9934,-0.9965,-1.0043,-0.9965,-0.9993,-0.9257,-0.8619,-0.8636,-0.8823,-0.889,-0.8645,-0.8119,0.0,-0.7005,-0.7489,-0.7567,-0.6566,-0.6039,-0.5333,-0.4456,-0.354,-0.275,-0.214,-0.1642,-0.107,-0.0333,-0.0334,-0.0,0.0605,0.0927,0.1073,0.0,0.0,0.0,0.0,0.0,0.0,0.0,0.0,0.0,0.0,0.0,0.0,0.0,0.0,0.0,0.0,0.0,0.0,0.0,0.0,0.0,0.0,-1.5742,-1.6838,-1.7511,-1.8247,-1.8742,-1.888,-1.9008,-1.9065,-1.8942,-1.8942,-1.8942,-1.8942,-1.8607,-1.8405,-1.8414,-1.8066,-1.7862,-1.7862,-1.7725,-1.7657,-1.7657,-1.6802,-1.6237,-1.6105,-1.5029,-1.4171,-1.3535,-1.3397,-1.3357,0.0,-1.3341,-1.3423,-1.3627,-1.3458,-1.2973,0.0,0.0,0.0,0.0,0.0,-1.1444,-1.1079,-1.1119,-1.0944,-1.0579,-1.0417,-1.0189,-0.9927,-0.9447,-0.921,-0.9076,-0.9051,-0.8885,-0.8905,-0.942,-0.9093,-0.879,-0.9794,-1.0009,-0.9998,-0.9998,-0.9998,-1.0002,-1.0021,-0.9268,0.0,-0.8621,-0.8629,-0.8632,-0.8636,-0.6518,-0.5134,-0.5711,-0.5869,-0.5829,-0.5518,-0.4935,-0.4263,-0.359,-0.2812,0.0,0.0,0.0,-0.0249,0.0663,0.0592,0.0,0.0,0.0,0.0,0.0,0.0,0.0,0.0,0.1052,0.0566,0.0,0.0,0.0,0.0,0.0,0.0,0.0,0.0,0.0,0.0,0.0,0.0,0.0,0.0,0.0,0.0,-1.5753,-1.653,-1.7154,-1.8317,-1.9083,-1.8992,-1.9044,-1.9075,-1.9075,-1.9065,-1.9008,-1.8875,-1.8617,-1.8414,-1.8337,0.0,0.0,0.0,0.0,-1.7254,-1.7097,-1.6175,-1.5683,-1.5542,-1.4034,-1.339,-1.3317,-1.2813,-1.2912,-1.3376,-1.3013,-1.3147,-1.3402,-1.3059,-1.234,-1.162,-1.1831,-1.2141,-1.2409,-1.1707,-1.144,-1.1348,-1.0627,0.0,0.0,-0.9466,-0.871,-0.7969,-0.726,-0.722,-0.7404,-0.7478,-0.7563,-0.7981,-0.9,-0.792,-0.7172,-0.9196,-0.9692,-0.9656,-0.9951,-0.9558,-0.9251,-0.9235,-0.8554,-0.7934,-0.7876,-0.8286,-0.8488,-0.8033,-0.4212,-0.2293,-0.4884,-0.4491,-0.4265,-0.5082,0.0,0.0,-0.3135,-0.2057,-0.0935,0.017,0.0333,0.0821,0.1643,0.1672,0.1943,0.2706,0.2536,0.2845,0.3587,0.3587,0.3497,0.3132,0.1654,0.0733,0.0,0.0,0.0,0.0,0.0,0.0,0.0,0.0,0.0,0.0,0.0,0.0,0.0,0.0,0.0,-1.3469,-1.4743,-1.5632,-1.5794,-1.6882,-1.7859,-1.8301,-1.8781,-1.9075,-1.9075,-1.8942,-1.8942,-1.8998,-1.8472,-1.8144,-1.8269,-1.7803,0.0,-1.7529,-1.6751,-1.6254,-1.6254,-1.4752,-1.3962,-1.3962,0.0,0.0,-1.2519,-1.2599,-1.2912,-1.3369,-1.3501,-1.3126,-1.2471,-1.2415,-1.1973,-1.1446,-1.1636,-1.1435,-1.1056,-1.1505,-1.091,-0.9844,-0.9031,-0.8509,-0.7969,-0.7111,-0.684,-0.6724,-0.6506,-0.6472,0.0,-0.6432,-0.6494,-0.6581,-0.7025,-0.6876,-0.682,-0.7937,-0.767,-0.7792,-0.9558,-0.7117,-0.451,-0.4535,-0.4336,-0.3943,-0.3144,-0.6091,-0.758,-0.4433,-0.2477,-0.1605,-0.2174,-0.2063,-0.2049,-0.2237,-0.1433,-0.0805,-0.0801,0.018,0.0816,0.0998,0.1869,0.2374,0.2287,0.3003,0.3366,0.3366,0.3366,0.3467,0.3587,0.3587,0.3497,0.3226,0.282,0.2549,0.0,0.0,0.0,0.0,0.0,0.0,0.0,0.0,0.0,0.0,0.0,-1.051,0.0,0.0,-1.2422,-1.3095,-1.3938,-1.4529,-1.4468,-1.5235,-1.6326,-1.762,-1.8002,-1.8291,-1.8592,-1.8547,-1.8639,-1.9054,-1.8539,-1.8202,-1.8269,-1.7725,-1.7323,-1.7323,-1.6403,-1.5903,-1.5903,-1.4322,-1.3535,-1.3462,-1.2666,-1.2452,-1.2675,-1.2825,-1.2995,-1.3338,-1.2942,-1.2375,-1.1759,-1.1668,-1.1273,-1.0871,-1.1278,-1.1387,-1.1096,-1.0238,-0.9554,-0.8766,-0.7543,-0.6913,-0.6646,-0.6236,-0.5756,-0.544,-0.5391,-0.5475,-0.5557,-0.5595,-0.5578,-0.5756,-0.6461,-0.5774,-0.5269,-0.6768,-0.6024,-0.5171,-0.6393,-0.4818,-0.3155,-0.3193,-0.2712,-0.2136,-0.1548,-0.3851,-0.4956,-0.2502,-0.196,-0.1792,-0.1813,-0.1709,-0.17,-0.1884,-0.0897,-0.027,-0.0364,0.1204,0.2248,0.2154,0.3064,0.3495,0.3458,0.3643,0.3718,0.3588,0.3497,0.3318,0.323,0.3499,0.3605,0.3552,0.3783,0.3605,0.0,0.0,0.0,0.0,0.0,0.0,0.0,0.0,-1.0273,-1.0798,-1.1055,-1.1239,-1.1636,-1.2118,-1.253,-1.2734,-1.3152,-1.3442,-1.3321,-1.3935,-1.4985,-1.6592,-1.6976,-1.7352,-1.7981,-1.8022,-1.823,-1.8644,-1.8292,-1.8006,-1.7794,-1.7257,-1.6881,-1.6664,-1.5824,-1.5363,-1.5438,-1.3992,-1.3309,-1.3431,-1.2783,-1.2695,-1.314,-1.3056,-1.3113,-1.3205,-1.2189,-1.1573,-1.1273,-1.0895,-1.0513,-1.0255,-1.0693,-1.0961,-1.0783,-0.9023,-0.8131,-0.7667,-0.6189,-0.5628,-0.5633,-0.5465,-0.4856,-0.4332,-0.4332,-0.4428,-0.4522,-0.4522,-0.4522,-0.4799,-0.5684,-0.4612,-0.3699,-0.5508,-0.4552,-0.3183,-0.3233,-0.3025,-0.2814,-0.2859,-0.2087,-0.1413,-0.1385,-0.2117,-0.2377,-0.1524,-0.1971,-0.2334,-0.2334,-0.2064,-0.1887,-0.2075,-0.0905,-0.0,0.0375,0.2278,0.3443,0.3443,0.391,0.4246,0.4254,0.3898,0.3593,0.352,0.335,0.3267,0.3181,0.3631,0.3928,0.4068,0.4563,0.4209,-0.8574,-0.8867,0.0,-0.9716,-1.01,-1.0669,0.0,0.0,-1.1181,-1.1303,-1.1499,-1.1534,-1.1302,-1.1473,-1.1664,-1.1656,-1.2209,-1.2634,-1.2634,-1.3709,-1.4552,-1.4777,-1.5728,-1.6646,-1.7345,-1.7417,-1.7312,-1.7046,-1.7142,-1.6817,-1.586,-1.5922,-1.5613,-1.4887,-1.4178,-1.3887,-1.4104,-1.3012,-1.2722,-1.3257,-1.3063,-1.316,-1.3447,-1.2805,-1.2821,-1.3212,-1.1951,-1.13,-1.1257,-1.0192,-0.994,-1.022,-0.9418,-0.8966,-0.8625,-0.8419,-0.7379,-0.5989,-0.5037,-0.4778,-0.4598,-0.3786,-0.3414,-0.332,-0.332,-0.342,-0.342,-0.342,-0.342,-0.3419,-0.351,-0.3378,-0.3247,-0.3532,-0.3397,-0.317,-0.3164,-0.2392,-0.1617,-0.1585,-0.1486,-0.1384,-0.1355,-0.153,-0.1529,-0.1435,-0.2243,-0.2784,-0.2784,-0.2424,-0.1716,-0.0551,0.028,0.1631,0.3684,0.4239,0.4497,0.4497,0.4327,0.406,0.3795,0.3576,0.3293,0.3042,0.3561,0.3877,0.4067,0.4631,0.4875,0.508,0.4973,0.4827,-0.9414,0.0,0.0,0.0,-1.0271,-1.0582,-1.1898,-1.1845,-1.1699,-1.2234,-1.2417,-1.236,-1.2077,-1.2091,-1.2055,0.0,-1.2103,-1.2228,-1.1981,-1.2466,-1.2956,-1.3304,-1.3627,-1.4524,-1.6299,-1.639,-1.6373,-1.6481,-1.6021,-1.559,-1.5261,-1.4873,-1.4587,-1.4377,-1.4053,-1.3881,-1.3931,-1.3314,-1.3101,-1.3206,-1.2759,-1.2765,-1.3118,-1.2463,-1.2111,-1.2108,-1.1026,-1.0381,-1.0139,-0.9999,-0.975,-0.922,-0.8794,-0.7891,-0.691,-0.691,-0.6111,-0.5039,-0.4056,-0.3786,-0.3685,-0.3279,-0.3202,-0.3224,-0.3188,-0.3203,-0.323,-0.323,-0.323,-0.323,-0.323,-0.3185,-0.3139,-0.2746,-0.2418,-0.2188,-0.2162,-0.1781,-0.1398,-0.1369,-0.1376,-0.1384,-0.1373,-0.1383,-0.0557,0.1858,0.0551,-0.0821,-0.1277,-0.0645,0.0279,0.1595,0.1912,0.2727,0.4259,0.4478,0.4487,0.4287,0.4058,0.3811,0.3832,0.3474,0.3361,0.367,0.3791,0.4093,0.4476,0.4851,0.5145,0.5451,0.5621,0.5679,-0.9567,0.0,0.0,-1.0233,-1.046,-1.0718,-1.1905,-1.1889,-1.1791,-1.2379,-1.2482,-1.2413,-1.2367,-1.2305,-1.2182,-1.212,-1.2058,-1.1934,-1.1622,-1.174,-1.2035,-1.2451,-1.2512,-1.3283,-1.5177,-1.5013,-1.4878,-1.5097,-1.4585,-1.4202,-1.3941,-1.3703,-1.3638,-1.3676,-1.38,-1.3957,-1.3978,-1.374,-1.3591,-1.3608,-1.2872,-1.2732,-1.308,-1.2159,-1.142,-1.0895,-1.012,-0.9607,-0.927,-0.9224,-0.8868,-0.8193,-0.7608,-0.662,-0.5548,-0.5548,-0.4945,-0.4155,-0.3414,-0.323,-0.3224,-0.3278,-0.3295,-0.332,-0.3257,-0.3282,-0.3328,-0.321,-0.3104,-0.3108,-0.3226,-0.3173,-0.3119,-0.2645,-0.1933,-0.1424,-0.1403,-0.1399,-0.1392,-0.1372,-0.1385,-0.1025,0.0093,0.0283,0.1332,0.4389,0.3215,0.1686,0.0559,0.1131,0.1902,0.2757,0.2987,0.341,0.402,0.4171,0.4312,0.4433,0.3935,0.3802,0.4213,0.3646,0.3624,0.4127,0.4528,0.5021,0.5413,0.5981,0.6393,0.6743,0.6876,0.7124,-0.8252,0.0,-0.9669,-1.0038,-1.0809,-1.1487,-1.1502,-1.1494,-1.1502,-1.1358,-1.1219,-1.1212,-1.1732,-1.1553,-1.149,-1.1996,-1.1934,-1.174,-1.1622,-1.2097,-1.2512,-1.2512,-1.3321,-1.395,0.0,-1.3183,-1.2504,-1.2158,-1.2656,-1.2466,-1.1383,-1.2294,-1.2707,-1.2439,-1.2893,-1.3493,-1.4244,-1.405,-1.4125,-1.4622,-1.3734,-1.3417,-1.3607,-1.2077,-1.089,-1.0038,-0.9519,-0.9349,-0.917,-0.7305,-0.6764,-0.707,-0.5707,-0.5005,-0.4594,-0.4594,-0.4062,-0.3228,-0.323,-0.323,-0.323,-0.3533,-0.3635,-0.3623,-0.3554,-0.3581,-0.3521,-0.3159,-0.2946,-0.2859,-0.3115,-0.324,-0.3163,-0.3223,-0.2222,-0.1427,-0.1426,-0.1426,-0.1426,-0.1425,-0.1426,-0.0095,0.3906,0.4581,0.4678,0.4776,0.4747,0.4084,0.2479,0.2284,0.2285,0.2094,0.3146,0.3751,0.3528,0.3728,0.4347,0.5529,0.4336,0.4,0.499,0.4384,0.3993,0.3917,0.596,0.7111,0.7111,0.8696,0.9502,0.9623,0.9315,0.9307,-0.8612,-0.8978,-0.9348,-0.981,-1.0026,-1.0288,-1.0724,-1.085,-1.0975,-1.1553,-1.1377,-1.1277,-1.1594,-1.1291,-1.1109,-1.148,-1.1414,-1.1365,-1.156,-1.1802,-1.1939,-1.203,-1.2243,0.0,0.0,0.0,0.0,-1.2696,-1.2235,-1.178,-1.1435,-1.1492,-1.171,-1.2083,-1.3065,-1.3689,-1.3805,-1.4367,-1.4372,-1.3808,-1.2433,-1.1588,-1.1235,-1.0722,-1.0294,-0.9951,-0.9519,-0.8723,-0.7746,-0.6949,-0.6266,-0.5692,-0.4741,-0.4456,-0.443,-0.3859,-0.3512,-0.323,-0.323,-0.3204,-0.317,-0.3269,-0.337,-0.3464,-0.3344,-0.2883,-0.2418,-0.2002,-0.1798,-0.15,-0.0704,-0.0593,-0.0583,-0.0587,0.1158,0.2667,0.2667,0.2667,0.2667,0.2667,0.2694,0.3202,0.4568,0.4812,0.473,0.4479,0.3905,0.3632,0.3951,0.3814,0.39,0.4538,0.4884,0.5151,0.5669,0.5834,0.5958,0.6214,0.5691,0.581,0.6457,0.6297,0.6399,0.715,0.7888,0.8411,0.881,0.9308,0.9575,0.9714,0.9481,0.9575,-0.8213,-0.8291,-0.8443,-0.8828,-0.9017,-0.928,-0.9716,-0.9977,-1.0295,-1.0793,-1.0648,-1.0481,-1.0843,-1.048,-1.0422,-1.1157,-1.1122,-1.1166,-1.1654,-1.1684,-1.1725,-1.1855,-1.1906,-1.2029,0.0,0.0,0.0,-1.221,-1.1446,-1.1033,-1.1041,-1.1096,-1.1442,-1.2089,-1.2932,-1.3392,-1.3413,-1.398,-1.3717,-1.2619,-1.1585,-1.0722,-1.0038,-1.0038,-0.9685,-0.9148,-0.8719,-0.7658,-0.6328,-0.5711,-0.5112,-0.4441,-0.3847,-0.3725,-0.3957,-0.3391,-0.323,-0.323,-0.323,-0.3204,-0.3272,-0.337,-0.3269,-0.3066,-0.2849,-0.2085,-0.1207,-0.07,-0.0599,-0.04,0.0502,0.0397,0.0392,0.1875,0.3532,0.4772,0.4772,0.4772,0.4772,0.4772,0.4816,0.4755,0.4755,0.5167,0.5457,0.5484,0.4859,0.4473,0.4929,0.4758,0.5008,0.6139,0.5942,0.6075,0.6688,0.6906,0.7058,0.7311,0.714,0.7307,0.8001,0.7902,0.8107,0.8806,0.9395,0.9792,1.0194,1.0592,1.0788,1.0788,1.069,1.069,-0.7019,-0.7021,-0.7072,-0.7366,-0.7912,-0.8425,-0.8425,-0.8952,-0.9408,-0.9244,-0.8961,-0.8949,0.0,0.0,-0.9436,-1.0854,-1.1003,-1.1154,-1.1756,-1.1866,-1.195,0.0,0.0,0.0,0.0,0.0,0.0,-1.073,0.0,-1.0299,-1.0244,-1.1153,-1.186,-1.2305,-1.2389,-1.2721,-1.3173,-1.2794,-1.2169,-1.1241,-1.1241,-1.0722,-0.9951,-0.9864,-0.9061,-0.7727,-0.7207,-0.6236,-0.4821,-0.3669,-0.3353,-0.3602,-0.2924,-0.2888,-0.3142,-0.3203,-0.3228,-0.323,-0.313,-0.3328,-0.3626,-0.3825,-0.3217,-0.2402,-0.2265,-0.1091,0.01,0.0493,0.0392,0.0394,0.0902,-0.0,-0.0098,0.3907,0.4834,0.4834,0.4834,0.4834,0.4834,0.4834,0.4935,0.5135,0.4929,0.5841,0.6834,0.7578,0.7276,0.6635,0.5514,0.5227,0.5524,0.6539,0.6598,0.6567,0.6697,0.7111,0.7816,0.8925,0.8499,0.8587,0.9686,0.9197,0.9004,0.9004,1.048,1.1268,1.1268,1.2262,1.2764,1.2764,1.257,1.2565,-0.7181,-0.7231,-0.7352,-0.7541,-0.7626,-0.7712,-0.7712,-0.8042,-0.834,-0.8104,-0.8381,-0.8658,0.0,0.0,0.0,-0.9542,-0.9993,0.0,-1.0781,-1.15,0.0,-1.2143,0.0,-1.3023,-1.3278,-1.3016,0.0,0.0,-1.1785,-1.1546,-1.1287,-1.1507,-1.1565,-1.1403,-1.1821,-1.1969,-1.1831,-1.1702,-1.1494,-1.1068,-1.0381,-0.951,-0.8636,-0.8273,-0.7647,-0.6675,-0.5883,-0.4905,-0.3927,-0.3223,-0.2788,-0.2536,-0.2405,-0.2642,-0.308,-0.3338,-0.3491,-0.3433,-0.2826,-0.2973,-0.3297,-0.2654,-0.2346,-0.2038,-0.0894,0.0201,0.1206,0.13,0.2099,0.3104,0.362,0.3509,0.35,0.4526,0.4834,0.4834,0.4834,0.4834,0.4834,0.4834,0.7375,0.8965,0.7095,0.7537,0.7928,0.7214,0.6875,0.6713,0.6538,0.6337,0.6658,0.7695,0.7752,0.8125,0.9169,0.9473,0.9901,1.0366,1.0399,1.0685,1.138,1.1282,1.138,1.177,1.2165,1.2365,1.2365,1.2662,1.2764,1.2764,1.2764,1.2764,-0.6526,-0.6581,-0.6617,-0.6784,-0.6933,-0.7056,-0.6922,-0.7491,-0.7894,-0.7378,-0.7884,0.0,0.0,0.0,0.0,0.0,0.0,0.0,-1.0273,-1.1114,-1.1775,0.0,-1.2613,0.0,-1.331,-1.3107,-1.2863,0.0,-1.1925,-1.162,-1.1715,-1.148,-1.1328,-1.1105,-1.1212,-1.0976,-1.0444,-1.0379,-1.0381,-1.0381,-0.9331,-0.8544,-0.8017,-0.7207,-0.6322,-0.526,0.0,-0.3751,-0.2593,-0.2598,-0.2422,-0.2248,-0.2479,-0.281,-0.3056,-0.2727,-0.268,-0.2621,-0.1898,-0.1767,-0.1836,-0.1479,-0.1182,-0.0686,0.04,0.1611,0.2718,0.2719,0.3506,0.439,0.4724,0.4808,0.479,0.4826,0.4834,0.4834,0.4834,0.4834,0.482,0.4775,0.8076,1.0334,0.8302,0.8408,0.8586,0.8378,0.8106,0.8005,0.8102,0.7576,0.7645,0.8832,0.9024,0.9407,1.0303,1.0789,1.1071,1.1221,1.1632,1.2078,1.237,1.237,1.2467,1.2764,1.2764,1.2764,1.2764,1.2764,1.2764,1.2764,1.3244,1.3437,-0.5816,-0.5672,-0.5596,-0.5613,-0.6095,-0.6431,-0.6331,-0.7096,-0.7654,-0.6987,0.0,-0.7861,-0.6914,-0.7276,-0.7875,-0.8317,0.0,-0.9253,-0.9932,-1.0755,-1.1442,-1.1693,-1.2579,-1.3157,-1.347,-1.3462,-1.3243,-1.268,-1.1411,-1.099,-1.1709,-1.1285,-1.0962,-1.0812,-1.0368,-0.9837,-0.919,-0.9212,-0.9318,-0.9515,-0.8452,-0.7834,-0.7478,-0.641,-0.508,-0.3662,0.0,0.0,-0.1436,-0.1885,-0.2154,-0.2248,-0.2561,-0.2801,-0.2767,-0.1747,-0.1386,-0.1308,-0.0692,-0.0098,0.0197,-0.04,0.0201,0.1105,0.171,0.292,0.4034,0.4236,0.4485,0.4743,0.4714,0.4771,0.4828,0.5116,0.5432,0.5525,0.4926,0.4826,0.4897,0.5382,0.8208,1.0214,0.9072,0.8909,0.9264,1.0145,0.9981,0.9689,0.9689,0.8715,0.854,0.9859,1.0207,1.0467,1.0727,1.1299,1.1645,1.1768,1.2247,1.27,1.2759,1.2737,1.2732,1.2764,1.2764,1.2861,1.2953,1.2953,1.305,1.3238,1.41,1.4484,-0.6526,-0.6098,-0.5616,-0.5735,-0.5834,-0.5989,-0.6205,-0.6577,0.0,0.0,-0.7158,-0.753,-0.7042,-0.7457,-0.7863,-0.7765,-0.8519,-0.9063,-0.9041,-1.0424,-1.1473,0.0,-1.2739,-1.3503,0.0,0.0,0.0,0.0,0.0,-1.0822,-1.0971,-1.0864,-1.0288,-0.9155,-0.8746,-0.8497,-0.8569,-0.8923,-0.9009,-0.8999,-0.8819,-0.7749,-0.606,-0.544,-0.42,-0.2511,-0.1972,0.0,-0.1436,-0.1525,-0.1794,-0.2155,-0.135,-0.1383,-0.1619,-0.0859,-0.0587,-0.0504,0.0501,0.0901,0.0999,0.0988,0.1378,0.217,0.3209,0.3932,0.4338,0.4135,0.4423,0.4714,0.4425,0.4571,0.5223,0.703,0.8803,0.9135,0.5582,0.4792,0.5661,0.8508,0.9665,1.0039,0.9831,1.0012,1.0295,1.0294,1.0231,1.0207,1.0207,0.9859,0.9685,0.9951,1.0381,1.0733,1.0916,1.1071,1.1393,1.2032,1.1754,1.1974,1.2748,1.239,1.2379,1.2759,1.2764,1.3244,1.401,1.401,1.4484,1.5324,1.5419,1.5514,-0.6702,-0.6187,-0.5606,-0.5674,-0.5969,-0.6113,-0.5821,0.0,0.0,0.0,-0.6723,-0.7018,-0.6695,-0.7024,-0.7302,-0.715,-0.7955,-0.865,-0.8918,-1.0238,0.0,-1.1326,-1.2566,-1.329,0.0,0.0,0.0,0.0,0.0,-1.0726,-1.0968,-1.0132,-0.9382,-0.8699,-0.8208,-0.8087,-0.8357,-0.8535,-0.8459,-0.8201,-0.7401,-0.6242,-0.4734,-0.3755,-0.2865,-0.1974,-0.1615,0.0,-0.0718,-0.0807,-0.0807,-0.0627,-0.0269,-0.0365,-0.0656,0.0284,0.0679,0.0895,0.1908,0.2619,0.3015,0.2791,0.2783,0.3086,0.392,0.4236,0.4329,0.4386,0.5163,0.5753,0.4753,0.521,0.5881,0.6085,0.8339,1.0153,0.8496,0.8132,0.8508,0.9796,1.0032,1.0012,0.9976,1.0274,1.0416,1.0309,1.0381,1.0467,1.0467,1.0381,1.0386,1.0386,1.0554,1.0819,1.1094,1.1217,1.1394,1.1679,1.1522,1.1926,1.3216,1.3025,1.3354,1.4376,1.4376,1.4567,1.5045,1.5045,1.533,1.5792,1.6358,1.6546,-0.6826,-0.6437,-0.5996,-0.5793,-0.6295,-0.6647,-0.5918,-0.6478,0.0,0.0,-0.6476,-0.6629,-0.6417,-0.6708,-0.697,0.0,-0.764,-0.844,-0.9062,-1.0224,-1.1045,0.0,-1.2532,0.0,-1.282,0.0,0.0,0.0,0.0,0.0,-1.0519,-0.9226,-0.847,-0.847,-0.8013,-0.7789,-0.7967,-0.7975,-0.7629,-0.7085,-0.5968,-0.4825,-0.3758,-0.2598,-0.1973,-0.1705,-0.1256,0.0,0.0,-0.0,0.0269,0.0805,0.0805,0.0634,0.0555,0.1692,0.2202,0.2441,0.3289,0.4109,0.481,0.4329,0.4031,0.4031,0.4636,0.4839,0.4822,0.5145,0.6203,0.7079,0.6382,0.6722,0.6978,0.5861,0.7994,1.0419,1.0924,1.0971,1.0769,1.0085,1.0012,1.0013,0.9989,1.0502,1.086,1.0727,1.1192,1.1548,1.1408,1.1408,1.1327,1.1327,1.0982,1.0819,1.1176,1.1164,1.129,1.1693,1.1547,1.2215,1.3857,1.3914,1.4409,1.5792,1.5798,1.5893,1.6075,1.6075,1.6264,1.6459,1.721,1.7584,-0.7548,-0.7432,-0.7346,-0.6543,-0.6937,-0.7378,-0.7018,0.0,0.0,-0.6694,-0.6666,-0.6695,-0.6666,-0.695,-0.7303,-0.7666,-0.8183,-0.8731,-0.9184,-1.0232,-1.1209,-1.1945,0.0,0.0,-1.3492,0.0,0.0,0.0,0.0,0.0,-0.8627,-0.8016,-0.7633,-0.7633,-0.7577,-0.7282,-0.6652,-0.6716,-0.6441,-0.5815,-0.5486,-0.4736,-0.3578,-0.322,-0.2506,-0.1346,-0.0538,0.0,0.0,0.0895,0.1164,0.1163,0.197,0.2176,0.2125,0.3331,0.3845,0.3924,0.4395,0.4816,0.5023,0.4808,0.4836,0.524,0.5937,0.6237,0.6329,0.6699,0.7298,0.8315,1.0169,0.961,0.882,0.9788,1.061,1.1008,1.0715,1.0394,1.0127,1.003,0.9989,1.0013,0.9989,1.1499,1.2522,1.2192,1.3477,1.4329,1.3795,1.3522,1.3451,1.3451,1.1752,1.0727,1.0727,1.0574,1.1014,1.2457,1.2006,1.2733,1.5042,1.4734,1.495,1.5785,1.5798,1.6264,1.7203,1.7203,1.7584,1.8542,1.8635,1.8635,-0.795,-0.7673,-0.7313,-0.7047,-0.7442,-0.7665,-0.6949,0.0,-0.702,-0.6549,-0.63,-0.6219,-0.6424,-0.6563,-0.6864,-0.7448,-0.8134,-0.8883,-0.9642,-1.0531,-1.133,-1.2049,-1.2773,0.0,0.0,0.0,0.0,0.0,0.0,0.0,-0.7642,-0.7488,-0.7407,-0.7484,-0.6865,-0.6556,-0.6471,-0.6119,-0.5415,-0.4504,-0.4631,-0.3976,-0.2508,-0.227,-0.1576,-0.0537,-0.0,0.0,0.0,0.1992,0.2343,0.2722,0.312,0.3171,0.3084,0.3721,0.4045,0.4307,0.4626,0.5294,0.5962,0.5106,0.5573,0.6227,0.5661,0.6323,0.7102,0.601,0.7733,1.0126,1.0933,1.0354,0.9699,1.0398,1.0527,1.0395,1.0295,1.0102,0.9986,1.0,0.9986,0.9957,0.9965,1.1316,1.2296,1.2106,1.337,1.4338,1.4287,1.4021,1.3853,1.3853,1.3099,1.2516,1.2687,1.251,1.2643,1.3268,1.2906,1.349,1.5429,1.5339,1.5736,1.6989,1.7197,1.7484,1.7941,1.8057,1.8442,1.8819,1.8438,1.8344,-0.8101,-0.8043,-0.7871,-0.754,-0.7928,-0.8069,0.0,0.0,-0.6922,-0.6275,-0.6037,-0.6011,-0.6244,-0.6554,-0.6972,-0.7635,-0.837,-0.9204,-1.0149,-1.0838,-1.1527,-1.2302,0.0,0.0,0.0,0.0,0.0,0.0,0.0,0.0,0.0,-0.7257,-0.7257,-0.7407,-0.6405,-0.5986,-0.6086,-0.5325,-0.443,-0.3318,-0.3512,-0.2859,-0.1407,-0.1109,-0.0513,0.0351,0.0,0.0,0.0,0.2957,0.3306,0.3865,0.3806,0.377,0.3785,0.4049,0.4438,0.4851,0.5155,0.597,0.6703,0.5665,0.6107,0.663,0.5229,0.6293,0.7848,0.6846,0.8852,1.1216,1.1104,1.0726,1.0398,1.0431,1.0199,0.999,0.999,1.0323,1.0574,1.0391,1.0559,1.0727,1.0727,1.1974,1.3028,1.2869,1.4108,1.5147,1.5304,1.5108,1.4942,1.5025,1.4866,1.4455,1.3866,1.3698,1.3698,1.4035,1.3951,1.4508,1.6041,1.6141,1.6642,1.7763,1.7937,1.8055,1.8144,1.821,1.8336,1.8427,1.7913,1.7714,-0.801,-0.876,-0.9348,-0.8048,-0.845,-0.8841,0.0,0.0,-0.668,-0.5945,-0.6067,-0.6284,-0.6284,-0.7158,-0.8024,-0.8431,-0.9097,-0.9925,-1.0854,-1.1241,-1.1796,0.0,0.0,0.0,0.0,0.0,0.0,0.0,0.0,0.0,0.0,-0.7334,-0.7184,-0.7184,-0.6328,-0.5628,-0.5004,-0.4243,-0.3325,-0.2277,-0.208,-0.1514,-0.0504,-0.0252,0.0336,0.0,0.0,0.0,0.0,0.3613,0.3952,0.4036,0.4036,0.4036,0.4038,0.4538,0.5199,0.596,0.6269,0.6823,0.7289,0.6697,0.6485,0.6198,0.5118,0.6284,0.8377,1.0195,1.0969,1.1124,1.091,1.0955,1.099,1.0192,0.996,1.0043,1.0043,1.1024,1.1824,1.1359,1.1854,1.2363,1.2363,1.419,1.539,1.5006,1.6415,1.7546,1.736,1.7221,1.7139,1.731,1.7221,1.6041,1.3522,1.3269,1.3776,1.4956,1.4956,1.5701,1.7262,1.7278,1.7437,1.7763,1.762,1.762,1.7771,1.7342,1.7262,1.7541,1.7262,1.7072,-0.8261,-0.8546,-0.8724,-0.8405,-0.8425,-0.8276,-0.738,0.0,-0.6907,-0.6276,-0.6382,-0.6587,-0.6587,-0.7054,-0.7879,-0.9219,-0.9843,-1.0483,-1.143,-1.2347,0.0,-1.2777,-1.2956,0.0,0.0,0.0,0.0,0.0,0.0,0.0,0.0,-0.7257,-0.7257,-0.7407,-0.5931,-0.5237,-0.5559,-0.3848,-0.2682,-0.2116,-0.09,-0.0331,-0.0168,0.1709,0.0,0.0,0.0,0.0,0.0,0.3794,0.3885,0.3936,0.3875,0.4329,0.5103,0.5347,0.61,0.6998,0.7189,0.7655,0.8008,0.7377,0.7946,0.8772,0.8468,0.8828,0.9511,1.038,1.057,1.0362,1.0297,1.0281,1.0348,1.0089,1.0017,1.0341,1.1554,1.186,1.1992,1.249,1.2472,1.2443,1.2601,1.3776,1.4832,1.4977,1.6306,1.7269,1.7237,1.7229,1.731,1.7221,1.7139,1.6796,1.5959,1.5711,1.5801,1.6139,1.6139,1.6366,1.6897,1.6731,1.6695,1.6797,1.6885,1.6923,1.7001,1.7052,1.6957,1.6665,1.7165,1.6869,-0.8279,-0.8436,-0.8555,-0.8652,-0.8529,-0.8204,-0.7674,-0.7364,-0.7053,-0.6543,-0.6678,-0.688,-0.688,-0.7405,-0.8252,-0.9579,-1.0186,-1.0897,-1.2007,-1.2889,0.0,-1.3148,0.0,0.0,0.0,0.0,0.0,0.0,0.0,0.0,0.0,-0.7022,-0.6865,-0.7019,-0.5541,-0.4849,-0.5174,-0.3021,-0.1684,-0.1124,-0.0,0.0726,0.09,0.2545,0.0,0.0,0.0,0.0,0.0,0.3787,0.3797,0.3922,0.4252,0.4854,0.5537,0.6089,0.6983,0.7856,0.7907,0.8416,0.8994,0.8538,1.0055,1.174,1.0389,0.9986,0.9962,0.9867,0.9777,0.9777,0.9768,0.9858,1.0023,1.0018,1.0043,1.0626,1.2789,1.301,1.3045,1.3461,1.3515,1.3464,1.362,1.4468,1.5228,1.5462,1.6304,1.6976,1.6976,1.7066,1.7147,1.7139,1.6976,1.6976,1.7049,1.6812,1.673,1.673,1.673,1.673,1.673,1.6566,1.6476,1.6476,1.6536,1.6568,1.6653,1.7101,1.7085,1.6622,1.7531,1.7491,0.0,-0.8427,-0.8723,-0.8709,-0.8609,-0.8423,-0.8126,-0.7605,0.0,-0.6807,-0.7008,-0.7294,-0.7322,-0.8138,-0.9015,-0.9665,-1.0325,-1.1246,-1.2663,-1.3007,0.0,0.0,-1.2918,0.0,0.0,0.0,0.0,0.0,0.0,0.0,0.0,-0.663,-0.6163,-0.6163,-0.5154,-0.4538,-0.4157,-0.2037,-0.0549,0.0393,0.0862,0.1568,0.2516,0.2591,0.0,0.0,0.0,0.0,0.0,0.3841,0.3919,0.3995,0.4999,0.5458,0.569,0.6853,0.7774,0.8537,0.8546,0.916,0.996,0.999,1.2457,1.4754,1.1393,1.0282,0.9956,0.8856,0.8956,0.924,0.9318,0.9639,1.0043,1.0307,1.0328,1.1006,1.3579,1.4399,1.4542,1.4267,1.4628,1.509,1.5173,1.5906,1.6476,1.6476,1.6722,1.6894,1.6812,1.6812,1.6894,1.7049,1.6894,1.6894,1.7139,1.6894,1.673,1.673,1.673,1.6812,1.6812,1.6812,1.6812,1.673,1.6558,1.6558,1.673,1.7456,1.7513,1.7155,1.8275,1.8674,-0.8044,0.0,-0.8015,-0.7968,-0.7943,-0.7816,0.0,-0.7492,-0.7489,-0.7149,-0.7549,-0.8077,-0.8511,-0.8605,-0.9305,-1.1262,-1.1376,-1.1805,-1.3397,-1.3531,-1.3827,-1.4988,0.0,0.0,0.0,0.0,0.0,0.0,0.0,0.0,0.0,-0.6479,-0.5941,-0.587,-0.4857,-0.4155,-0.3921,-0.2747,-0.1188,0.0563,0.2294,0.2931,0.2574,0.324,0.0,0.0,0.0,0.0,0.3841,0.4462,0.4846,0.4999,0.5848,0.6846,0.7689,0.7999,0.8689,0.9609,1.0062,1.0357,1.0547,1.077,1.2897,1.5279,1.4386,1.288,1.1112,0.9185,0.8648,0.8918,0.9637,0.9885,1.0675,1.3512,1.3625,1.3366,1.4365,1.4572,1.4594,1.486,1.502,1.5257,1.5756,1.655,1.7188,1.7594,1.8318,1.8638,1.7764,1.7683,1.7359,1.664,1.7131,1.7456,1.7538,1.7049,1.673,1.673,1.7367,1.7683,1.7683,1.8158,1.8078,1.7456,1.7196,1.7107,1.7188,1.798,1.8514,1.8726,1.9621,1.97,-0.8056,-0.8093,-0.8134,-0.827,-0.8175,-0.8061,-0.8167,-0.8068,-0.7928,-0.7861,-0.8138,-0.8478,-0.8763,-0.8861,-0.9481,-1.1192,-1.158,-1.2324,-1.4236,-1.4498,-1.477,-1.5678,0.0,0.0,0.0,0.0,0.0,0.0,0.0,0.0,0.0,-0.6022,-0.5482,-0.5096,-0.4001,-0.3297,-0.2904,-0.1883,-0.0397,0.138,0.3049,0.3612,0.3245,0.3687,0.3803,0.0,0.0,0.0,0.4384,0.5309,0.577,0.5922,0.7,0.7766,0.8456,0.8917,0.9458,0.9992,1.0588,1.0962,1.1384,1.2018,1.3443,1.4968,1.5272,1.4365,1.2917,1.1508,1.0691,1.0042,0.9492,1.0093,1.1697,1.4647,1.4761,1.4126,1.4355,1.4405,1.4461,1.4824,1.5401,1.5982,1.655,1.7504,1.8301,1.855,1.9107,1.9186,1.847,1.839,1.823,1.7585,1.7997,1.8318,1.8399,1.8078,1.7917,1.7917,1.8318,1.863,1.863,1.8939,1.8868,1.8479,1.8301,1.8141,1.806,1.9009,1.9631,1.9993,2.0884,2.1201,-0.8338,-0.8651,-0.8919,-0.8848,-0.8604,-0.8522,-0.9043,-0.8695,-0.8319,-0.8516,-0.86,-0.8728,-0.8871,-0.9208,-0.9794,-1.0888,-1.1773,0.0,-1.4977,-1.533,-1.5547,-1.6028,0.0,0.0,0.0,0.0,0.0,0.0,0.0,0.0,0.0,-0.5407,-0.4865,-0.4157,-0.2749,-0.1807,-0.1335,-0.0078,0.1192,0.2288,0.3581,0.4157,0.4102,0.4168,0.4196,0.0,0.0,0.0,0.5341,0.6268,0.6718,0.6923,0.8152,0.8609,0.8765,0.9685,1.0067,1.0143,1.0812,1.1564,1.2291,1.3161,1.3846,1.4309,1.5013,1.4974,1.4664,1.4385,1.3376,1.194,0.9994,1.0948,1.3018,1.4916,1.486,1.4337,1.4169,1.4232,1.4476,1.488,1.5996,1.6952,1.7488,1.8621,1.9502,1.9502,1.958,1.958,1.9177,1.9097,1.9018,1.8939,1.9018,1.9177,1.9413,1.958,1.965,1.9737,1.958,1.958,1.9659,1.958,1.9502,1.9502,1.9502,1.9335,1.9177,2.0216,2.0837,2.1038,2.1928,2.2478,-0.9343,-1.0233,-1.0474,-0.8538,-0.8238,-0.8334,-0.8108,-0.8346,-0.8561,-0.8319,-0.8667,-0.9277,-1.0141,-1.0207,-1.0796,-1.2758,0.0,-1.4333,0.0,0.0,-1.4816,0.0,0.0,0.0,0.0,0.0,0.0,0.0,0.0,0.0,0.0,-0.4698,-0.3999,-0.3763,-0.1253,0.047,0.1335,0.2595,0.2893,0.2342,0.4265,0.5139,0.5059,0.5546,0.5818,0.0,0.0,0.6137,0.6344,0.7138,0.7758,0.8228,0.9079,0.9539,0.976,1.0438,1.0663,1.0812,1.1929,1.2753,1.3287,1.3484,1.3665,1.3909,1.4044,1.442,1.4754,1.5125,1.4776,1.4119,1.3445,1.4099,1.4958,1.5358,1.5617,1.5496,1.4334,1.4689,1.5463,1.6234,1.6846,1.7682,1.8797,1.9737,2.0304,2.0304,2.0934,2.1165,2.0382,2.0129,1.9728,1.9018,1.9562,2.0041,2.0041,2.0924,2.1482,2.1634,2.0847,2.0615,2.1405,2.0692,2.0304,2.0304,2.0304,2.0304,2.0226,2.1175,2.1787,2.2155,2.2176,2.2327,-0.9277,-0.9728,-1.0068,-0.9938,-1.0301,-1.0678,-1.049,-1.0706,-1.0818,-1.0321,-1.0408,-1.0624,-1.0605,-1.0607,-1.1237,-1.316,0.0,-1.4363,0.0,0.0,0.0,0.0,0.0,0.0,0.0,0.0,0.0,0.0,0.0,0.0,0.0,0.0,-0.3294,-0.1409,0.1019,0.2514,0.2909,0.4084,0.4148,0.321,0.4702,0.559,0.6033,0.6466,0.6515,0.6357,0.0,0.7375,0.818,0.9077,0.9901,1.0678,1.1153,1.1232,1.1037,1.1186,1.1552,1.1922,1.2788,1.3375,1.3725,1.3572,1.3799,1.4143,1.3925,1.4472,1.5182,1.5328,1.5212,1.4928,1.4255,1.4733,1.5506,1.6005,1.6314,1.6441,1.6004,1.6335,1.6959,1.7616,1.8294,1.9017,1.9788,2.0615,2.1175,2.1175,2.1568,2.1655,2.1252,2.1088,2.0924,2.0527,2.0847,2.1078,2.1078,2.1482,2.1883,2.2111,2.1634,2.1558,2.2101,2.1558,2.1175,2.1175,2.1098,2.0954,2.0876,2.1272,2.1807,2.2402,2.2101,2.2176,-0.936,-0.9515,-0.9999,-1.1382,-1.175,-1.1965,-1.2851,-1.2815,-1.2546,-1.2508,-1.2506,-1.2278,-1.1434,-1.1516,-1.2177,-1.3455,-1.4033,0.0,0.0,0.0,0.0,0.0,0.0,0.0,0.0,0.0,0.0,0.0,0.0,0.0,0.0,0.0,-0.2354,0.0548,0.3064,0.4328,0.4162,0.509,0.514,0.4288,0.5377,0.6284,0.6993,0.741,0.7502,0.7465,0.8046,0.9004,1.0177,1.1006,1.1823,1.2659,1.2746,1.2477,1.215,1.2003,1.2298,1.2966,1.333,1.3777,1.4183,1.3855,1.4205,1.4739,1.4281,1.4911,1.5639,1.5235,1.5936,1.6601,1.5092,1.5204,1.5883,1.6762,1.7237,1.761,1.7831,1.8106,1.832,1.8815,1.9547,2.0236,2.075,2.1328,2.1807,2.1807,2.1807,2.1807,2.1807,2.1807,2.1807,2.1807,2.1807,2.1807,2.1731,2.1731,2.1807,2.1959,2.2025,2.2176,2.2402,2.2101,2.1883,2.1807,2.1731,2.1578,2.1359,2.1359,2.1655,2.2252,2.1807,2.1883,-1.0383,-1.1076,-1.1657,-1.2,-1.0514,-0.9903,-1.3379,-1.2842,-1.2101,-1.385,-1.4281,-1.409,-1.3397,-1.3792,-1.4283,-1.433,-1.508,0.0,0.0,0.0,0.0,0.0,0.0,0.0,0.0,0.0,0.0,0.0,0.0,0.0,0.0,0.0,0.0,0.0548,0.4155,0.5811,0.5323,0.5699,0.5767,0.5517,0.6859,0.7673,0.7835,0.871,0.9488,1.0072,1.0072,1.0884,1.2087,1.217,1.2581,1.3178,1.2685,1.2559,1.2526,1.2526,1.29,1.3419,1.3499,1.4198,1.5041,1.4641,1.513,1.5683,1.5251,1.5756,1.6236,1.4665,1.7674,2.0591,1.7321,1.6589,1.6806,1.7599,1.8505,1.9154,1.9066,1.915,1.9354,1.9712,2.0195,2.0767,2.1573,2.1731,2.1807,2.1807,2.1807,2.1807,2.1807,2.1807,2.1807,2.1807,2.1807,2.1731,2.1512,2.1512,2.1502,2.1502,2.1883,2.2176,2.2402,2.2402,2.2176,2.1807,2.2176,2.2101,2.1731,2.1731,2.1807,2.1807,2.1205,2.1205,-0.9704,-1.1156,-1.2543,-1.1952,-1.1514,-1.191,-1.4418,-1.4609,-1.4616,-1.5821,-1.5973,-1.5434,-1.3991,-1.4287,-1.4644,-1.4436,0.0,0.0,0.0,0.0,0.0,0.0,0.0,0.0,0.0,0.0,0.0,0.0,0.0,0.0,0.0,0.0,0.0,0.1254,0.3997,0.5332,0.4932,0.6012,0.6504,0.6414,0.7141,0.7879,0.8625,0.9619,1.0207,1.0294,1.0895,1.2031,1.3355,1.3355,1.3824,1.4539,1.3647,1.33,1.3346,1.32,1.3273,1.3499,1.3339,1.3943,1.4864,1.5209,1.556,1.6042,1.7272,1.7215,1.7099,1.8514,2.0325,2.1497,2.0244,1.9874,1.9982,2.0286,2.0163,2.0039,1.9989,2.0459,2.0887,2.0894,2.1044,2.1222,2.1405,2.1436,2.1436,2.1436,2.1436,2.1436,2.1436,2.1436,2.1436,2.1436,2.1436,2.1436,2.1359,2.1807,2.2101,2.2252,2.2176,2.2176,2.2402,2.2402,2.2327,2.2176,2.2176,2.2111,2.1807,2.1807,2.1949,2.2176,2.1655,2.1502,-0.9491,-1.0734,-1.2177,-1.232,-1.2482,-1.3254,-1.57,-1.5777,-1.589,-1.7739,-1.752,-1.6545,-1.5109,-1.4959,0.0,0.0,0.0,0.0,0.0,0.0,0.0,0.0,0.0,0.0,0.0,0.0,0.0,0.0,0.0,0.0,0.0,0.0,0.0,0.0,0.4467,0.5485,0.5162,0.6479,0.7354,0.779,0.7938,0.85,0.9423,1.0519,1.1063,1.1154,1.1929,1.3033,1.4364,1.4448,1.5057,1.5801,1.4906,1.461,1.4574,1.4312,1.4114,1.3954,1.3962,1.4649,1.5581,1.5917,1.6219,1.6789,1.8301,1.8223,1.8023,2.0302,2.0924,2.0917,2.0681,2.0921,2.1272,2.1716,2.1108,2.0592,2.075,2.1262,2.1655,2.1436,2.1436,2.1359,2.1205,2.1205,2.1205,2.1205,2.1436,2.1512,2.1205,2.1436,2.1502,2.1205,2.1128,2.1205,2.1425,2.1721,2.209,2.2756,2.2402,2.2402,2.2777,2.2553,2.2402,2.2402,2.2402,2.2392,2.2306,2.2306,2.2456,2.2606,2.2231,2.1939,-1.0031,-0.9918,-1.0606,-1.3306,-1.3116,-1.3306,-1.7231,-1.6087,-1.5405,-1.9552,-1.886,-1.7398,-1.6992,-1.6125,0.0,0.0,0.0,0.0,0.0,0.0,0.0,0.0,0.0,0.0,0.0,0.0,0.0,0.0,0.0,0.0,0.0,0.0,0.0,0.0,0.5724,0.6813,0.624,0.7253,0.8426,0.9703,0.9526,0.9639,1.0156,1.1449,1.2357,1.3045,1.3307,1.4075,1.5166,1.5567,1.6191,1.6884,1.6409,1.6263,1.634,1.5882,1.5413,1.5064,1.557,1.6544,1.7483,1.6748,1.7182,1.7968,1.8014,1.8486,1.9103,1.9103,1.9072,1.8942,1.8194,1.8994,2.0247,2.1523,2.1133,2.0731,2.138,2.1492,2.1415,2.1195,2.1195,2.1195,2.1195,2.1195,2.1195,2.1205,2.1873,2.2101,2.1282,2.1883,2.2101,2.1282,2.0984,2.1205,2.2035,2.1175,2.1318,2.2883,2.2606,2.2777,2.3593,2.2852,2.2402,2.2402,2.2777,2.3191,2.3514,2.3514,2.3441,2.322,2.2776,2.2209,-0.8515,-1.101,-1.3607,-1.1951,-1.4637,-1.7779,-1.8137,-1.7657,-1.7638,-1.9604,-1.9025,-1.7986,-1.7273,-1.6994,0.0,0.0,0.0,0.0,0.0,0.0,0.0,0.0,0.0,0.0,0.0,0.0,0.0,0.0,0.0,0.0,0.0,0.0,0.0,0.0,0.524,0.6335,0.6483,0.7936,0.8875,0.9459,1.0802,1.1266,1.1035,1.2035,1.2619,1.2875,1.3724,1.4489,1.5151,1.5975,1.6842,1.7493,1.6936,1.6636,1.6366,1.5986,1.5455,1.5072,1.5743,1.6096,1.6201,1.5826,1.6423,1.7243,1.7244,1.8065,1.9022,1.8446,1.836,1.8724,2.0522,2.0279,1.9792,2.0818,2.0894,2.0976,2.1718,2.1464,2.1031,2.0814,2.0396,2.0176,2.0533,2.0862,2.129,2.1808,2.2455,2.2521,2.17,2.1328,2.1021,2.0799,2.1118,2.1436,2.1655,2.2317,2.2916,2.3361,2.3423,2.3497,2.3593,2.3666,2.3801,2.3986,2.4143,2.4276,2.4564,2.4564,2.442,2.4264,2.412,2.3829,-0.9856,-1.2228,-1.4664,-1.4257,-1.6635,-1.9222,-1.9653,-1.9461,-1.9129,-1.9115,-1.8722,-1.8093,-1.706,0.0,0.0,0.0,0.0,0.0,0.0,0.0,0.0,0.0,0.0,0.0,0.0,0.0,0.0,0.0,0.0,0.0,0.0,0.0,0.0,0.0,0.5848,0.6938,0.7395,0.8466,0.9489,1.0545,1.2064,1.3061,1.3418,1.3329,1.347,1.3795,1.4803,1.5484,1.5966,1.6887,1.7742,1.8378,1.7756,1.7649,1.7633,1.6956,1.6519,1.6262,1.6684,1.663,1.6426,1.6417,1.6812,1.7407,1.7707,1.819,1.8539,1.8123,1.8432,1.9178,2.072,2.0501,2.0193,2.1076,2.1069,2.1079,2.176,2.1516,2.1167,2.0966,2.0613,2.041,2.0684,2.0986,2.1381,2.1821,2.2368,2.2739,2.2914,2.2069,2.1405,2.1405,2.1721,2.1959,2.2327,2.2852,2.3372,2.4043,2.3875,2.3875,2.4043,2.3897,2.3959,2.4299,2.4371,2.4587,2.5004,2.5087,2.5087,2.4933,2.4933,2.4707,-1.2704,-1.3429,-1.4636,-1.8494,-1.8679,-1.8628,-2.1293,-2.1049,-1.9862,-1.8405,0.0,-1.7775,-1.6495,0.0,0.0,0.0,0.0,0.0,0.0,0.0,0.0,0.0,0.0,0.0,0.0,0.0,0.0,0.0,0.0,0.0,0.0,0.0,0.0,0.0,0.7157,0.8156,0.8756,0.916,1.0394,0.0,1.3395,1.4803,1.645,1.4986,1.4824,1.5636,1.6221,1.6796,1.7277,1.8006,1.8789,1.939,1.8779,1.9027,1.9525,1.8577,1.8096,1.7998,1.8037,1.7755,1.7474,1.7784,1.7978,1.8103,1.8792,1.8704,1.8375,1.8385,1.9256,2.006,1.9732,2.0194,2.1025,2.1875,2.1497,2.113,2.1583,2.1683,2.1545,2.1326,2.1268,2.1257,2.1326,2.1428,2.1472,2.1655,2.2072,2.2894,2.4435,2.3537,2.2767,2.2767,2.2692,2.2841,2.3593,2.3065,2.3298,2.4718,2.4189,2.4043,2.4718,2.3897,2.3519,2.374,2.3959,2.4383,2.5087,2.53,2.5382,2.5382,2.5382,2.5158,-1.1137,-1.3541,-1.6362,-1.7273,-1.8584,-1.9927,-2.097,-2.0308,-1.9404,-1.8885,-1.8248,0.0,0.0,0.0,0.0,0.0,0.0,0.0,0.0,0.0,0.0,0.0,0.0,0.0,0.0,0.0,0.0,0.0,0.0,0.0,0.0,0.0,0.0,0.754,0.8147,0.8685,0.9145,1.1129,1.2205,0.0,1.4842,1.6358,1.703,1.6565,1.6519,1.6935,1.7261,1.7827,1.8559,1.8683,1.9404,2.0285,2.0206,1.9847,1.9428,1.9778,1.9054,1.8056,1.8295,1.7799,1.7054,1.7091,1.7543,1.8056,1.8218,1.9651,2.1269,2.1305,2.0973,2.074,2.1141,2.1115,2.1035,2.1632,2.1353,2.1084,2.1597,2.1221,2.0818,2.0753,2.0357,2.0225,2.0884,2.1461,2.2168,2.3442,2.3397,2.3478,2.4026,2.3507,2.3169,2.3316,2.3683,2.4059,2.4204,2.4504,2.4671,2.479,2.5052,2.4897,2.4345,2.4418,2.4622,2.4957,2.4957,2.517,2.5465,2.5804,2.5955,2.5758,2.6107,2.6164,-1.2442,-1.4683,-1.6995,-1.8866,-2.0156,-2.0939,-2.1029,-2.0509,-1.9594,-1.8246,-1.781,0.0,0.0,0.0,0.0,0.0,0.0,0.0,0.0,0.0,0.0,0.0,0.0,0.0,0.0,0.0,0.0,0.0,0.0,0.0,0.0,0.7646,0.8632,0.9438,0.9721,1.0196,1.1025,1.225,1.3215,1.3947,1.6496,1.8267,1.9336,1.8047,1.735,1.7188,1.7917,1.8638,1.9274,1.9487,1.9947,2.0625,2.0619,2.0824,2.115,2.157,2.0371,1.8593,1.9117,1.9336,1.9444,1.9456,1.9511,1.9521,1.9553,2.0292,2.1158,2.116,2.0938,2.0876,2.1539,2.171,2.1815,2.2322,2.1839,2.1371,2.1635,2.1371,2.1106,2.1106,2.0839,2.0722,2.1233,2.1568,2.2303,2.3655,2.3664,2.381,2.4594,2.4449,2.4264,2.448,2.4707,2.4862,2.4862,2.5087,2.517,2.4897,2.5182,2.504,2.449,2.4718,2.4778,2.4754,2.4897,2.4981,2.5052,2.5407,2.5548,2.5465,2.5886,2.6037,-1.3729,-1.5609,-1.7358,-2.0969,-2.1756,-2.1565,-2.125,-2.0839,-1.9983,-1.7758,0.0,0.0,0.0,0.0,0.0,0.0,0.0,0.0,0.0,0.0,0.0,0.0,0.0,0.0,0.0,0.0,0.0,0.0,0.0,0.0,0.8514,0.9861,1.0825,1.1236,1.1313,1.1948,1.3117,1.3318,1.4283,1.5881,1.8067,2.0022,2.1614,1.959,1.8399,1.7908,1.8798,1.9441,1.9885,2.0313,2.051,2.0636,2.1378,2.1853,2.2284,2.2546,2.1399,1.9781,2.0139,2.1099,2.2227,2.2592,2.228,2.1781,2.1583,2.1175,2.0781,2.0586,2.0896,2.1239,2.1616,2.2286,2.2895,2.3135,2.2567,2.1937,2.1937,2.1874,2.1749,2.1749,2.1812,2.1874,2.2049,2.2111,2.2492,2.3592,2.3759,2.4181,2.5438,2.5586,2.5611,2.5861,2.5849,2.5836,2.5836,2.5836,2.5697,2.5276,2.5346,2.5229,2.4992,2.5064,2.4981,2.4671,2.455,2.449,2.4418,2.4646,2.4849,2.4945,2.5523,2.5746,-1.1202,-1.4449,-1.8275,-2.0782,-2.1484,-2.1485,-2.1459,-2.0721,-1.995,0.0,0.0,0.0,0.0,0.0,0.0,0.0,0.0,0.0,0.0,0.0,0.0,0.0,0.0,0.0,0.0,0.0,0.0,0.0,0.0,0.0,0.9823,1.1364,1.233,1.2546,1.2594,1.3086,1.394,1.5109,1.6254,1.7353,1.9425,2.0667,2.1308,2.1431,2.1344,2.1135,2.1318,2.1145,2.0854,2.1354,2.1222,2.0964,2.4386,2.282,1.8856,2.0397,2.1485,2.2136,2.132,2.1527,2.244,2.4102,2.4551,2.4264,2.3155,2.3175,2.3409,2.2653,2.2969,2.3361,2.2482,2.2967,2.3505,2.3027,2.2859,2.275,2.2919,2.2482,2.2063,2.2063,2.2187,2.2616,2.3551,2.3872,2.4131,2.4717,2.4827,2.5039,2.5358,2.6116,2.6726,2.6976,2.7657,2.809,2.809,2.809,2.7564,2.6488,2.6731,2.6526,2.5697,2.5988,2.6333,2.6544,2.5229,2.4418,2.4273,2.4646,2.479,2.4861,2.5804,2.6483,-1.1871,-1.5319,-1.8618,-2.0221,-2.1272,-2.1588,-2.0398,-2.0147,-1.9397,0.0,0.0,0.0,0.0,0.0,0.0,0.0,0.0,0.0,0.0,0.0,0.0,0.0,0.0,0.0,0.0,0.0,0.0,0.0,0.0,0.0,1.1841,1.3035,1.3888,1.4325,1.4418,1.5001,1.6059,1.6905,1.84,2.065,2.148,2.237,2.3158,2.3379,2.2787,2.1461,2.1766,2.1756,2.1431,2.146,2.1638,2.2226,2.5338,2.4975,2.2798,2.2885,2.2971,2.2858,2.2411,2.2217,2.2462,2.4022,2.4641,2.4567,2.3447,2.3163,2.3175,2.28,2.3005,2.3386,2.3446,2.3741,2.4163,2.4381,2.4408,2.435,2.4408,2.3446,2.2604,2.2774,2.2882,2.3182,2.3748,2.382,2.4079,2.4654,2.5091,2.5415,2.558,2.6777,2.7273,2.6569,2.7243,2.7685,2.7621,2.7685,2.7626,2.7485,2.7591,2.7391,2.6883,2.6989,2.7002,2.7098,2.5824,2.5146,2.5075,2.4909,2.4718,2.4646,2.5721,2.6195,-1.2306,-1.4939,-1.7056,-1.8861,-2.0276,-2.088,-1.9575,0.0,0.0,0.0,0.0,0.0,0.0,0.0,0.0,0.0,0.0,0.0,0.0,0.0,0.0,0.0,0.0,0.0,0.0,0.0,0.0,0.0,0.0,0.0,1.4007,1.4634,1.5315,1.5945,1.6125,1.675,1.7988,1.8695,2.0406,2.2908,2.2981,2.357,2.4647,2.4719,2.3756,2.1993,2.2328,2.2296,2.2093,2.2211,2.2732,2.3802,2.6131,2.6316,2.5159,2.4427,2.3372,2.2293,2.1954,2.2051,2.2553,2.3435,2.3944,2.4141,2.3437,2.2968,2.2711,2.282,2.3106,2.3502,2.4066,2.4452,2.4865,2.5439,2.5522,2.5369,2.5257,2.4234,2.3399,2.3551,2.3669,2.3878,2.4257,2.4213,2.4341,2.4924,2.5378,2.5741,2.5815,2.6999,2.7368,2.6211,2.6765,2.7207,2.7019,2.7417,2.7751,2.7991,2.8101,2.8103,2.7894,2.7789,2.7789,2.7789,2.6963,2.6352,2.6089,2.5581,2.5241,2.5158,2.6171,2.6582,-1.1013,-1.1588,-1.2416,-1.6309,-1.7924,-1.8832,0.0,0.0,0.0,0.0,0.0,0.0,0.0,0.0,0.0,0.0,0.0,0.0,0.0,0.0,0.0,0.0,0.0,0.0,0.0,0.0,0.0,0.0,0.0,0.0,1.6297,1.6236,1.6519,1.727,1.7283,1.786,1.9043,2.0652,2.193,2.2749,2.316,2.3789,2.4515,2.4874,2.4671,2.4043,2.3806,2.3446,2.3044,2.4469,2.5135,2.5432,2.7589,2.584,2.1996,2.2264,2.1474,2.0074,1.8712,2.0387,2.2985,2.2631,2.2904,2.3417,2.3593,2.3324,2.3084,2.3444,2.4096,2.4599,2.4107,2.4894,2.5729,2.5342,2.523,2.5104,2.4637,2.4452,2.4394,2.4452,2.4452,2.4794,2.5825,2.5988,2.6042,2.6336,2.634,2.6187,2.5997,2.6406,2.661,2.6492,2.7262,2.7631,2.7308,2.8384,2.8615,2.7539,2.8271,2.8661,2.8492,2.8427,2.8776,2.9477,2.8712,2.788,2.6815,2.6815,2.687,2.7005,2.7762,2.8363,-1.0173,-1.0902,-1.1571,-1.3545,-1.6179,-1.7599,-1.509,-1.5463,0.0,0.0,0.0,0.0,0.0,0.0,0.0,0.0,0.0,0.0,0.0,0.0,0.0,0.0,0.0,0.0,0.0,0.0,0.0,0.0,0.0,0.0,1.7694,1.7929,1.8203,1.8584,1.8844,1.9596,2.077,2.1666,2.2398,2.3052,2.3526,2.4003,2.4553,2.5168,2.5182,2.4766,2.4754,2.436,2.3795,2.4383,2.5266,2.6445,2.6719,2.5701,2.407,2.473,2.3494,2.1357,2.088,2.1773,2.3096,2.3153,2.3007,2.2897,2.318,2.3136,2.3044,2.3179,2.3756,2.434,2.4341,2.4865,2.5508,2.5619,2.5674,2.5605,2.5425,2.5147,2.4935,2.4935,2.509,2.5439,2.5893,2.5893,2.5948,2.6204,2.6382,2.6399,2.6106,2.6962,2.7326,2.661,2.7335,2.7844,2.8056,2.8549,2.8979,2.91,2.931,2.9373,2.9198,2.9198,2.9261,2.9477,2.9275,2.8776,2.7959,2.7511,2.7245,2.7165,2.792,2.8325,-0.9216,-0.973,-1.0306,-1.1706,-1.3871,-1.533,-1.388,0.0,0.0,0.0,0.0,0.0,0.0,0.0,0.0,0.0,0.0,0.0,0.0,0.0,0.0,0.0,0.0,0.0,0.0,0.0,0.0,0.0,0.0,0.0,1.966,1.9515,1.9592,2.0066,2.04,2.1152,2.2352,2.2567,2.2995,2.3591,2.3863,2.4371,2.5099,2.5387,2.5436,2.5382,2.5189,2.4992,2.4704,2.4342,2.518,2.6614,2.6477,2.597,2.5373,2.5883,2.4703,2.2793,2.2384,2.2874,2.3697,2.3616,2.3449,2.3231,2.3041,2.2981,2.3014,2.3179,2.354,2.3966,2.4355,2.4772,2.5259,2.5838,2.5997,2.604,2.6308,2.5865,2.5397,2.5397,2.5564,2.5729,2.5839,2.5784,2.5784,2.5948,2.6189,2.6246,2.5964,2.6722,2.6947,2.6145,2.6773,2.727,2.7418,2.8149,2.8736,2.9251,2.9462,2.9526,2.9415,2.9415,2.9415,2.9289,2.9415,2.9212,2.8712,2.8403,2.813,2.809,2.8583,2.8789,0.0,0.0,0.0,-1.0782,0.0,0.0,-1.6362,0.0,0.0,0.0,0.0,0.0,0.0,0.0,0.0,0.0,0.0,0.0,0.0,0.0,0.0,0.0,0.0,0.0,0.0,0.0,0.0,0.0,0.0,2.0504,2.225,2.1095,2.0749,2.1616,2.1815,2.2482,2.3577,2.3437,2.3704,2.4384,2.4264,2.4861,2.6049,2.5519,2.5549,2.5881,2.516,2.5166,2.5611,2.4619,2.4883,2.604,2.7026,2.6594,2.5301,2.5216,2.4798,2.3965,2.2788,2.3504,2.4877,2.3948,2.4104,2.4434,2.3392,2.3039,2.3085,2.3515,2.3495,2.358,2.4204,2.4668,2.5137,2.5944,2.6144,2.6341,2.7113,2.6587,2.5893,2.5729,2.5729,2.5729,2.5646,2.5646,2.5701,2.5673,2.5742,2.577,2.5522,2.5425,2.5314,2.5075,2.5676,2.5986,2.5541,2.7162,2.8092,2.7754,2.8565,2.9099,2.9099,2.9099,2.9099,2.9099,2.9099,2.9099,2.9099,2.9415,2.9651,2.9808,2.9808,2.9884,-0.8191,0.0,0.0,0.0,0.0,0.0,0.0,0.0,0.0,0.0,0.0,0.0,0.0,0.0,0.0,0.0,0.0,0.0,0.0,0.0,0.0,0.0,0.0,0.0,0.0,0.0,0.0,0.0,2.185,2.2298,2.2882,2.2445,2.2212,2.2347,2.2604,2.298,2.3437,2.3484,2.3548,2.3447,2.4073,2.4708,2.5371,2.5268,2.561,2.6248,2.6176,2.6151,2.6057,2.5382,2.5794,2.6961,2.6485,2.6242,2.5936,2.3821,2.3228,2.3617,2.5029,2.5442,2.5279,2.51,2.4874,2.4579,2.4204,2.3893,2.3689,2.3901,2.3927,2.4121,2.5063,2.5779,2.6275,2.6586,2.674,2.6901,2.7129,2.7056,2.673,2.604,2.6122,2.5955,2.4981,2.4966,2.4866,2.442,2.4621,2.4912,2.4966,2.5246,2.5633,2.6117,2.6655,2.7102,2.7407,2.8271,2.8787,2.8711,2.8939,2.9035,2.8908,2.9035,2.9035,2.8908,2.9035,2.9099,2.9099,2.9162,2.9289,2.9275,2.9275,2.9338,-0.8351,-0.8178,-0.8087,-0.8504,0.0,0.0,0.0,-0.7432,0.0,0.0,0.0,0.0,0.0,0.0,0.0,0.0,0.0,0.0,0.0,0.0,0.0,0.0,0.0,0.0,0.0,0.0,0.0,0.0,2.3223,2.3337,2.3193,2.3341,2.3328,2.3135,2.3526,2.4067,2.4837,2.4469,2.4443,2.4758,2.4664,2.5082,2.6022,2.5686,2.6016,2.6787,2.6764,2.6751,2.6618,2.5888,2.6094,2.6821,2.6163,2.6176,2.6277,2.3317,2.3105,2.452,2.6188,2.6403,2.5855,2.5841,2.5727,2.5568,2.5115,2.4913,2.4887,2.471,2.4749,2.4966,2.5528,2.604,2.6491,2.6926,2.6867,2.6935,2.7575,2.7603,2.727,2.662,2.637,2.6096,2.5204,2.4897,2.4563,2.3942,2.4076,2.4312,2.4417,2.4752,2.5154,2.5774,2.6353,2.6919,2.751,2.8149,2.8595,2.8881,2.9135,2.9184,2.9121,2.9198,2.9246,2.9107,2.8934,2.8886,2.8908,2.9035,2.9099,2.9099,2.9099,2.9099,-0.869,-0.8512,-0.8565,-0.9308,0.0,0.0,-1.0061,-0.7391,0.0,0.0,0.0,0.0,0.0,0.0,0.0,0.0,0.0,0.0,0.0,0.0,0.0,0.0,0.0,0.0,0.0,0.0,2.4068,2.4868,2.4512,2.4094,2.367,2.4069,2.4258,2.4053,2.4557,2.5493,2.6862,2.5925,2.5966,2.7028,2.5785,2.5962,2.7389,2.6624,2.6748,2.7567,2.7232,2.7128,2.7117,2.6495,2.6242,2.6184,2.5997,2.6295,2.6458,2.366,2.4059,2.6109,2.6609,2.6735,2.655,2.6258,2.659,2.6937,2.6014,2.6068,2.6229,2.5618,2.57,2.5952,2.5879,2.5988,2.6367,2.7094,2.6841,2.6826,2.8262,2.8186,2.772,2.736,2.6692,2.612,2.5848,2.5174,2.4494,2.3914,2.3906,2.3898,2.3912,2.412,2.4362,2.4673,2.5407,2.6067,2.6455,2.7243,2.7893,2.8461,2.9045,2.9459,2.9529,2.9502,2.9561,2.9676,2.897,2.8677,2.8716,2.8908,2.9035,2.9035,2.9035,2.9035,-0.9438,-0.8546,-0.8479,-0.8784,0.0,0.0,-0.8376,-0.6815,0.0,0.0,0.0,0.0,0.0,0.0,0.0,0.0,0.0,0.0,0.0,0.0,0.0,0.0,0.0,0.0,0.0,0.0,2.479,2.5269,2.5735,2.5902,2.5666,2.5788,2.5844,2.5727,2.6119,2.6404,2.6722,2.6736,2.6759,2.6846,2.685,2.7247,2.8021,2.7394,2.801,2.9493,2.8606,2.7681,2.694,2.781,2.7394,2.6272,2.6023,2.6266,2.6665,2.5591,2.5799,2.6638,2.6762,2.6957,2.7106,2.6905,2.7107,2.7423,2.7011,2.6788,2.651,2.6068,2.6375,2.682,2.6688,2.7184,2.7777,2.7807,2.7847,2.7929,2.8334,2.8432,2.845,2.8543,2.767,2.6522,2.536,2.4805,2.4202,2.3536,2.3781,2.4101,2.413,2.4457,2.4713,2.4839,2.5321,2.5712,2.5802,2.6863,2.7567,2.7712,2.8297,2.8973,2.9638,2.9566,2.9842,3.0616,2.9897,2.9482,2.9331,2.8881,2.8716,2.8716,2.8716,2.878,-0.9749,-0.8681,0.0,-0.8729,0.0,0.0,0.0,0.0,0.0,0.0,0.0,0.0,0.0,0.0,0.0,0.0,0.0,0.0,0.0,0.0,0.0,0.0,0.0,0.0,0.0,0.0,2.5893,2.6105,2.6693,2.6842,2.6345,2.6961,2.6995,2.6402,2.6698,2.7091,2.7555,2.7006,2.734,2.8575,2.8042,2.8295,2.9218,2.8732,2.9014,2.9864,2.9381,2.8575,2.7578,2.7685,2.756,2.7202,2.6615,2.7019,2.7813,2.677,2.6635,2.701,2.687,2.6886,2.7055,2.7093,2.7284,2.7488,2.7423,2.7269,2.71,2.6982,2.7188,2.7458,2.7458,2.7725,2.7989,2.8005,2.7746,2.7552,2.7745,2.7564,2.7349,2.7535,2.6841,2.6168,2.6107,2.5194,2.4288,2.3698,2.382,2.3985,2.4015,2.4193,2.4386,2.4672,2.4896,2.5174,2.5487,2.6167,2.6659,2.6996,2.789,2.87,2.9228,2.9843,3.0433,3.1065,3.0778,3.0466,3.0211,3.0043,2.9532,2.8716,2.8894,2.9022,0.0,0.0,0.0,0.0,0.0,-0.7909,0.0,0.0,0.0,0.0,0.0,0.0,0.0,0.0,0.0,0.0,0.0,0.0,0.0,0.0,0.0,0.0,0.0,0.0,0.0,0.0,2.6456,2.7126,2.704,2.6962,2.7083,2.8039,2.8158,2.7225,2.7489,2.7984,2.8732,2.7656,2.8233,3.0435,2.9274,2.93,3.0427,3.0153,3.0061,3.0091,2.999,2.9437,2.8623,2.7781,2.7917,2.8501,2.7255,2.7659,2.8758,2.77,2.7444,2.755,2.7225,2.7115,2.7218,2.7408,2.7524,2.7524,2.7575,2.7625,2.7625,2.774,2.774,2.779,2.7989,2.7883,2.7822,2.8155,2.7527,2.6962,2.7381,2.6811,2.6289,2.6468,2.6041,2.5858,2.6735,2.5733,2.4688,2.4204,2.4239,2.4258,2.4024,2.4009,2.4135,2.4482,2.4498,2.4679,2.5213,2.55,2.5884,2.6528,2.7652,2.8525,2.9037,3.0375,3.1254,3.1574,3.1587,3.1432,3.1144,3.1317,3.063,2.9022,2.9359,2.9484,0.0,0.0,0.0,0.0,-0.8698,0.0,0.0,0.0,0.0,0.0,0.0,0.0,0.0,0.0,0.0,0.0,0.0,0.0,0.0,0.0,0.0,0.0,0.0,0.0,0.0,0.0,0.0,2.842,2.6088,2.5879,2.909,2.9383,2.9456,2.9428,2.9528,2.9691,2.9892,2.9982,3.0201,3.0492,3.0583,3.0694,3.0858,3.1094,3.1278,3.1397,3.0506,3.0037,2.9968,2.9859,2.9797,2.9501,2.758,2.7291,2.8141,2.89,2.8931,2.8593,2.825,2.8304,2.8496,2.8496,2.8319,2.7993,2.766,2.7625,2.7625,2.7625,2.7625,2.771,2.8174,2.7873,2.7721,2.8871,2.8094,2.7304,2.8096,2.7699,2.7248,2.7566,2.7129,2.6518,2.5811,2.5717,2.557,2.4981,2.5471,2.5645,2.4804,2.4701,2.4645,2.4605,2.4539,2.4544,2.4684,2.5273,2.6013,2.6803,2.7426,2.8436,2.9973,3.1394,3.2332,3.2703,3.236,3.2124,3.1957,3.1675,3.0984,2.9889,3.0179,3.0133,0.0,0.0,0.0,0.0,0.0,0.0,-0.9244,0.0,-0.8375,0.0,0.0,0.0,0.0,0.0,0.0,0.0,0.0,0.0,0.0,0.0,0.0,0.0,0.0,0.0,0.0,0.0,0.0,0.0,0.0,2.5293,2.9053,2.9559,2.9648,2.9504,2.9794,3.0051,3.028,3.0146,3.046,3.1223,3.1321,3.1531,3.1897,3.2021,3.2142,3.2258,3.1795,3.1142,3.0386,3.0373,3.046,3.0516,2.9145,2.8801,2.906,2.9108,2.8967,2.8809,2.8431,2.84,2.8606,2.8748,2.8701,2.8559,2.8463,2.8463,2.8463,2.8574,2.8559,2.8575,2.8842,2.8653,2.8588,2.9164,2.8421,2.7676,2.7796,2.7121,2.6443,2.6326,2.6183,2.5972,2.5678,2.5616,2.5481,2.5116,2.5163,2.512,2.4717,2.4686,2.4645,2.4564,2.4564,2.4564,2.4589,2.5326,2.5958,2.6282,2.7494,2.8862,3.037,3.1134,3.1774,3.2344,3.2644,3.2613,3.2405,3.2888,3.2633,3.1634,3.1504,3.113,-1.1499,0.0,0.0,0.0,0.0,0.0,0.0,0.0,0.0,0.0,0.0,0.0,0.0,0.0,0.0,0.0,0.0,0.0,0.0,0.0,0.0,0.0,0.0,0.0,0.0,0.0,0.0,0.0,0.0,0.0,2.8702,2.9654,2.9935,2.9765,3.0403,3.0818,3.1011,3.0729,3.1094,3.2021,3.2109,3.2334,3.2752,3.2784,3.2796,3.2739,3.2634,3.1984,3.0996,3.0916,3.1091,3.137,3.0683,3.0344,3.0254,2.9473,2.9212,2.9136,2.8919,2.8919,2.9028,2.9166,2.9212,2.9212,2.9196,2.9225,2.9287,2.9348,2.939,2.9448,2.9528,2.944,2.9383,2.9745,2.9011,2.821,2.8168,2.7397,2.6598,2.6412,2.6262,2.6221,2.6274,2.6073,2.5783,2.547,2.5329,2.5235,2.4989,2.4815,2.4751,2.4726,2.4645,2.4645,2.4751,2.5598,2.6331,2.6755,2.8217,2.9544,3.051,3.0744,3.1158,3.1838,3.2418,3.2579,3.2366,3.3453,3.3677,3.2982,3.2609,3.2139,0.0,0.0,0.0,-0.9891,0.0,0.0,0.0,0.0,-0.9171,0.0,0.0,0.0,0.0,0.0,0.0,0.0,0.0,0.0,0.0,0.0,0.0,0.0,0.0,0.0,0.0,0.0,0.0,0.0,0.0,0.0,2.8549,2.9966,3.0681,3.0939,3.2011,3.2601,3.2519,3.2648,3.2759,3.2854,3.3118,3.3196,3.3081,3.3232,3.3129,3.287,3.2472,3.23,3.2316,3.1915,3.1896,3.2037,3.177,3.1579,3.137,3.0551,3.0109,2.9902,3.0076,3.0231,3.0316,3.014,3.0081,2.9978,2.9625,2.9565,2.9636,2.952,2.9724,3.0025,3.0234,2.9856,2.9788,3.087,2.9926,2.9033,2.9895,2.9319,2.8723,2.9196,2.8545,2.7895,2.774,2.742,2.6932,2.627,2.673,2.6838,2.6072,2.5438,2.5185,2.5339,2.4846,2.4645,2.5052,2.6105,2.7408,2.8895,2.9972,3.0504,3.0494,3.0603,3.0956,3.1388,3.1566,3.1678,3.1806,3.2772,3.3337,3.359,3.3446,3.2986,0.0,0.0,-1.6133,-1.2412,0.0,0.0,0.0,0.0,0.0,0.0,0.0,0.0,0.0,0.0,0.0,0.0,0.0,0.0,0.0,0.0,0.0,0.0,0.0,0.0,0.0,0.0,0.0,0.0,0.0,0.0,0.0,2.9162,2.9986,3.182,3.205,3.2313,3.2648,3.3148,3.3092,3.2518,3.3168,3.3515,3.355,3.3625,3.3512,3.3286,3.3147,3.3006,3.2848,3.2758,3.2641,3.247,3.2161,3.1968,3.1804,3.0988,3.0535,3.0316,3.0359,3.0443,3.0485,3.051,3.0593,3.0699,3.0642,3.069,3.0754,3.0794,3.0811,3.0804,3.0878,3.0677,3.0583,3.1004,3.0335,2.9698,2.9935,2.9428,2.8904,2.8977,2.8846,2.8764,2.8835,2.8304,2.7467,2.6308,2.6102,2.602,2.5844,2.5626,2.5535,2.5652,2.5384,2.5438,2.5908,2.6786,2.8055,2.9741,3.0137,3.0454,3.0758,3.0875,3.0898,3.0733,3.1295,3.163,3.1691,3.2517,3.2925,3.2883,3.3496,3.3648,-1.5497,-1.6563,0.0,-1.332,-1.362,0.0,-1.0664,0.0,0.0,0.0,0.0,0.0,0.0,0.0,0.0,0.0,0.0,0.0,0.0,0.0,0.0,0.0,0.0,0.0,0.0,0.0,0.0,0.0,0.0,0.0,0.0,0.0,2.9915,3.2357,3.2381,3.2691,3.3366,3.3788,3.374,3.3189,3.3827,3.413,3.4162,3.411,3.3926,3.3647,3.3688,3.3743,3.3778,3.3502,3.3436,3.3396,3.2852,3.2583,3.2366,3.1608,3.1249,3.1072,3.0988,3.0948,3.1004,3.1078,3.1173,3.1291,3.1406,3.1504,3.1579,3.1596,3.1596,3.1559,3.1368,3.1466,3.1562,3.1487,3.1242,3.1061,3.1044,3.0646,3.0318,3.0404,3.0128,2.9955,3.0192,2.9399,2.8305,2.7096,2.643,2.6087,2.6175,2.6068,2.6151,2.6616,2.6416,2.6723,2.793,2.8545,2.9454,3.0817,3.0992,3.1072,3.1159,3.127,3.1072,3.0518,3.1041,3.1205,3.111,3.1951,3.2359,3.2348,3.32,3.3565]},{"header":{"parameterUnit":"m.s-1","parameterCategory":1,"la1":30.6,"la2":29.2853,"lo1":-89.7004,"lo2":-87.6739,"dx":0.0162,"dy":0.0183,"nx":112,"ny":82,"refTime":"2022-12-07T06:00:00:Z","depth":0,"parameterNumber":3,"parameterNumberName":"V-component_of_WINDS"},"data":[0.0,0.0,0.0,0.0,0.0,0.0,0.0,0.0,0.0,0.0,0.0,0.0,0.0,0.0,0.0,0.0,0.0,0.0,0.0,0.0,0.0,0.0,0.0,0.0,0.0,0.0,0.0,0.0,0.0,0.0,0.0,0.0,0.0,0.0,0.0,0.0,0.0,0.0,0.0,0.0,0.0,0.0,0.0,0.0,0.0,0.0,0.0,0.0,0.0,0.0,0.0,0.0,0.0,0.0,0.0,0.0,0.0,0.0,0.0,0.0,0.0,0.0,0.0,0.0,0.0,0.0,0.0,0.0,0.0,0.0,0.0,0.0,0.0,0.0,0.0,0.0,0.0,0.0,0.0,0.0,0.0,0.0,0.0,0.0,0.0,0.0,0.0,0.0,0.0,0.0,-3.3199,-3.2883,-3.3396,-3.3978,-3.4478,-3.3816,-3.307,-3.2343,0.0,0.0,0.0,0.0,0.0,0.0,0.0,0.0,0.0,0.0,0.0,0.0,0.0,0.0,0.0,0.0,0.0,0.0,0.0,0.0,0.0,0.0,0.0,0.0,0.0,0.0,0.0,0.0,0.0,0.0,0.0,0.0,0.0,0.0,0.0,0.0,0.0,0.0,0.0,0.0,0.0,0.0,0.0,0.0,0.0,0.0,0.0,0.0,0.0,0.0,0.0,0.0,0.0,0.0,0.0,0.0,0.0,0.0,0.0,0.0,0.0,0.0,0.0,0.0,0.0,0.0,0.0,0.0,0.0,0.0,0.0,0.0,0.0,0.0,0.0,0.0,0.0,0.0,0.0,0.0,0.0,0.0,0.0,0.0,0.0,0.0,0.0,0.0,0.0,0.0,0.0,0.0,0.0,0.0,0.0,0.0,0.0,0.0,0.0,0.0,0.0,0.0,0.0,0.0,-3.1431,-3.2176,-3.3332,-3.4094,-3.4244,-3.3925,-3.3541,-3.3057,0.0,0.0,0.0,0.0,0.0,0.0,0.0,0.0,0.0,0.0,0.0,0.0,0.0,0.0,0.0,0.0,0.0,0.0,0.0,0.0,0.0,0.0,0.0,0.0,0.0,0.0,0.0,0.0,0.0,0.0,0.0,0.0,0.0,0.0,0.0,0.0,0.0,0.0,0.0,0.0,0.0,0.0,0.0,0.0,0.0,0.0,0.0,0.0,0.0,0.0,0.0,0.0,0.0,0.0,0.0,0.0,0.0,0.0,0.0,0.0,0.0,0.0,0.0,0.0,0.0,0.0,0.0,0.0,0.0,0.0,0.0,0.0,0.0,0.0,0.0,0.0,0.0,0.0,0.0,0.0,0.0,0.0,0.0,0.0,0.0,0.0,0.0,0.0,0.0,0.0,0.0,0.0,0.0,0.0,0.0,0.0,0.0,0.0,0.0,0.0,0.0,0.0,0.0,-3.0504,-3.0442,-3.2478,-3.2259,-3.2263,-3.2951,-3.2844,-3.2523,-3.2043,-3.1222,0.0,0.0,0.0,0.0,0.0,0.0,0.0,0.0,0.0,0.0,0.0,0.0,0.0,0.0,0.0,0.0,0.0,0.0,0.0,0.0,0.0,0.0,0.0,0.0,0.0,0.0,0.0,0.0,0.0,0.0,0.0,0.0,0.0,0.0,0.0,0.0,0.0,0.0,0.0,0.0,0.0,0.0,0.0,0.0,0.0,0.0,0.0,0.0,0.0,0.0,0.0,0.0,0.0,0.0,0.0,0.0,0.0,0.0,0.0,0.0,0.0,0.0,0.0,0.0,0.0,0.0,0.0,0.0,0.0,0.0,0.0,0.0,0.0,0.0,0.0,0.0,0.0,0.0,0.0,0.0,0.0,0.0,0.0,0.0,0.0,0.0,0.0,0.0,0.0,0.0,0.0,0.0,0.0,0.0,0.0,0.0,0.0,0.0,0.0,0.0,0.0,0.0,-3.06,-3.0442,-3.2371,-3.1291,-3.0949,-3.2188,-3.2148,-3.1794,-3.1311,-3.1048,0.0,0.0,0.0,0.0,0.0,0.0,0.0,0.0,0.0,0.0,0.0,0.0,0.0,0.0,0.0,0.0,0.0,0.0,0.0,0.0,0.0,0.0,0.0,0.0,0.0,0.0,0.0,0.0,0.0,0.0,0.0,0.0,0.0,0.0,0.0,0.0,0.0,0.0,0.0,0.0,0.0,0.0,0.0,0.0,0.0,0.0,0.0,0.0,0.0,0.0,0.0,0.0,0.0,0.0,0.0,0.0,0.0,0.0,0.0,0.0,0.0,0.0,0.0,0.0,0.0,0.0,0.0,0.0,0.0,0.0,0.0,0.0,0.0,0.0,0.0,0.0,0.0,0.0,0.0,0.0,0.0,0.0,0.0,0.0,0.0,0.0,0.0,0.0,0.0,0.0,0.0,0.0,0.0,0.0,0.0,0.0,0.0,0.0,0.0,0.0,0.0,0.0,-3.0683,-3.1885,-3.0782,-3.0962,-3.1712,-3.3093,-3.2876,-3.2495,-3.2147,-3.1347,0.0,0.0,0.0,0.0,0.0,0.0,0.0,0.0,0.0,0.0,0.0,0.0,0.0,0.0,0.0,0.0,0.0,0.0,0.0,0.0,0.0,0.0,0.0,0.0,0.0,0.0,0.0,0.0,0.0,0.0,0.0,0.0,0.0,0.0,0.0,0.0,0.0,0.0,0.0,0.0,0.0,0.0,0.0,0.0,0.0,0.0,0.0,0.0,0.0,0.0,0.0,0.0,0.0,0.0,0.0,0.0,0.0,0.0,0.0,0.0,0.0,0.0,0.0,0.0,0.0,0.0,0.0,0.0,0.0,0.0,0.0,0.0,0.0,0.0,0.0,0.0,0.0,0.0,0.0,0.0,0.0,0.0,0.0,0.0,0.0,0.0,0.0,0.0,0.0,0.0,0.0,0.0,0.0,0.0,0.0,0.0,0.0,0.0,0.0,0.0,0.0,0.0,-2.9964,-3.1029,0.0,-3.1683,-3.2049,-3.2899,-3.2805,-3.2358,-3.1492,0.0,0.0,0.0,0.0,0.0,0.0,0.0,0.0,0.0,0.0,0.0,0.0,0.0,0.0,0.0,0.0,0.0,0.0,0.0,0.0,0.0,0.0,0.0,0.0,0.0,0.0,0.0,0.0,0.0,0.0,0.0,0.0,0.0,0.0,0.0,0.0,0.0,0.0,0.0,0.0,0.0,0.0,0.0,0.0,0.0,0.0,0.0,0.0,0.0,0.0,0.0,0.0,0.0,0.0,0.0,0.0,0.0,0.0,0.0,0.0,0.0,0.0,0.0,0.0,0.0,0.0,0.0,0.0,0.0,0.0,0.0,0.0,0.0,0.0,0.0,0.0,0.0,0.0,0.0,0.0,0.0,0.0,0.0,0.0,0.0,0.0,0.0,0.0,0.0,0.0,0.0,0.0,0.0,0.0,0.0,0.0,0.0,0.0,0.0,0.0,0.0,0.0,-2.8596,-2.9886,-3.1087,0.0,-3.2225,-3.236,-3.2739,-3.284,-3.2249,-3.0704,0.0,0.0,0.0,0.0,0.0,0.0,0.0,0.0,0.0,0.0,0.0,0.0,0.0,0.0,0.0,0.0,0.0,0.0,0.0,0.0,0.0,0.0,0.0,0.0,0.0,0.0,0.0,0.0,0.0,0.0,0.0,0.0,0.0,0.0,0.0,0.0,0.0,0.0,0.0,0.0,0.0,0.0,0.0,0.0,0.0,0.0,0.0,0.0,0.0,0.0,0.0,0.0,0.0,0.0,0.0,0.0,0.0,0.0,0.0,0.0,0.0,0.0,0.0,0.0,0.0,0.0,0.0,0.0,0.0,0.0,0.0,0.0,0.0,0.0,0.0,0.0,0.0,0.0,0.0,0.0,0.0,0.0,0.0,0.0,0.0,0.0,0.0,0.0,0.0,0.0,0.0,0.0,0.0,0.0,0.0,0.0,0.0,0.0,0.0,0.0,0.0,0.0,-2.7944,-3.0674,-3.2458,-3.2043,-3.2433,-3.2724,-3.2704,-3.3126,-3.2381,0.0,0.0,0.0,0.0,0.0,0.0,0.0,0.0,0.0,0.0,0.0,0.0,0.0,0.0,0.0,0.0,0.0,0.0,0.0,0.0,0.0,0.0,0.0,0.0,0.0,0.0,0.0,0.0,0.0,0.0,0.0,0.0,0.0,0.0,0.0,0.0,0.0,0.0,0.0,0.0,0.0,0.0,0.0,0.0,0.0,0.0,0.0,0.0,0.0,0.0,0.0,0.0,0.0,0.0,0.0,0.0,0.0,0.0,0.0,0.0,0.0,0.0,0.0,0.0,0.0,0.0,0.0,0.0,0.0,0.0,0.0,0.0,0.0,0.0,0.0,0.0,0.0,0.0,0.0,0.0,0.0,0.0,0.0,0.0,0.0,0.0,0.0,0.0,0.0,0.0,0.0,0.0,0.0,0.0,0.0,0.0,0.0,0.0,0.0,0.0,0.0,0.0,0.0,-2.7883,-3.0931,-3.2958,-3.2547,-3.2918,-3.3184,-3.3198,-3.3352,-3.2475,-3.0157,0.0,0.0,0.0,0.0,0.0,0.0,0.0,0.0,0.0,0.0,0.0,0.0,0.0,0.0,0.0,0.0,0.0,0.0,0.0,0.0,0.0,0.0,0.0,0.0,0.0,0.0,0.0,0.0,0.0,0.0,0.0,0.0,0.0,0.0,0.0,0.0,0.0,0.0,0.0,0.0,0.0,0.0,0.0,0.0,0.0,0.0,0.0,0.0,0.0,0.0,0.0,0.0,0.0,0.0,0.0,0.0,0.0,0.0,0.0,0.0,0.0,0.0,0.0,0.0,0.0,0.0,0.0,0.0,0.0,0.0,0.0,0.0,0.0,0.0,0.0,0.0,0.0,0.0,0.0,0.0,0.0,0.0,0.0,0.0,0.0,0.0,0.0,0.0,0.0,0.0,0.0,0.0,0.0,0.0,0.0,0.0,0.0,0.0,0.0,0.0,0.0,0.0,-2.8138,-3.1201,-3.3237,-3.2997,-3.3219,-3.3393,-3.3452,-3.356,-3.2787,-3.0812,0.0,0.0,0.0,0.0,0.0,0.0,0.0,0.0,0.0,0.0,0.0,0.0,0.0,0.0,0.0,0.0,0.0,0.0,0.0,0.0,0.0,0.0,0.0,0.0,0.0,0.0,0.0,0.0,0.0,0.0,0.0,0.0,0.0,0.0,0.0,0.0,0.0,0.0,0.0,0.0,0.0,0.0,0.0,0.0,0.0,0.0,0.0,0.0,0.0,0.0,0.0,0.0,0.0,0.0,0.0,0.0,0.0,0.0,0.0,0.0,0.0,0.0,0.0,0.0,0.0,0.0,0.0,0.0,0.0,0.0,0.0,0.0,0.0,0.0,0.0,0.0,0.0,0.0,0.0,0.0,0.0,0.0,0.0,0.0,0.0,0.0,0.0,0.0,0.0,0.0,0.0,0.0,0.0,0.0,0.0,0.0,0.0,0.0,0.0,0.0,0.0,0.0,-2.8605,-3.1409,-3.3411,-3.3411,-3.3411,-3.3441,-3.352,-3.3713,-3.3204,-3.1728,0.0,0.0,0.0,0.0,0.0,0.0,0.0,0.0,0.0,0.0,0.0,0.0,0.0,0.0,0.0,0.0,0.0,0.0,0.0,0.0,0.0,0.0,0.0,0.0,0.0,0.0,0.0,0.0,0.0,0.0,0.0,0.0,0.0,0.0,0.0,0.0,0.0,0.0,0.0,0.0,0.0,0.0,0.0,0.0,0.0,0.0,0.0,0.0,0.0,0.0,0.0,0.0,0.0,0.0,0.0,0.0,0.0,0.0,0.0,0.0,-1.956,0.0,0.0,0.0,0.0,0.0,0.0,0.0,0.0,0.0,0.0,0.0,0.0,0.0,0.0,0.0,0.0,0.0,0.0,0.0,0.0,0.0,0.0,0.0,0.0,0.0,0.0,0.0,0.0,0.0,0.0,0.0,0.0,0.0,0.0,0.0,0.0,0.0,0.0,0.0,0.0,0.0,-2.8592,-3.1445,-3.3484,-3.3567,-3.3567,-3.3579,-3.3658,-3.3884,-3.3398,-3.193,-3.1637,0.0,0.0,0.0,0.0,0.0,0.0,0.0,0.0,0.0,0.0,0.0,0.0,0.0,0.0,0.0,0.0,0.0,0.0,0.0,0.0,0.0,0.0,0.0,0.0,0.0,0.0,0.0,0.0,0.0,0.0,0.0,0.0,0.0,0.0,0.0,0.0,0.0,0.0,0.0,0.0,0.0,0.0,0.0,0.0,0.0,0.0,0.0,0.0,0.0,0.0,0.0,0.0,0.0,0.0,0.0,0.0,0.0,0.0,0.0,0.0,-2.1135,0.0,0.0,0.0,0.0,0.0,0.0,0.0,0.0,0.0,0.0,0.0,0.0,0.0,0.0,0.0,0.0,0.0,0.0,0.0,0.0,0.0,0.0,0.0,0.0,0.0,0.0,0.0,0.0,0.0,0.0,0.0,0.0,0.0,0.0,0.0,0.0,0.0,0.0,0.0,0.0,-2.9323,-3.2115,-3.4,-3.3637,-3.3587,-3.3671,-3.3879,-3.4111,-3.396,-3.3329,-3.2446,0.0,0.0,0.0,0.0,0.0,0.0,0.0,0.0,0.0,0.0,0.0,0.0,0.0,0.0,0.0,0.0,0.0,0.0,0.0,0.0,0.0,0.0,0.0,0.0,0.0,0.0,0.0,0.0,0.0,0.0,0.0,0.0,0.0,0.0,0.0,0.0,0.0,0.0,0.0,0.0,0.0,0.0,0.0,0.0,0.0,0.0,0.0,0.0,0.0,0.0,0.0,0.0,0.0,-2.4104,-2.433,-2.4418,-2.5611,-2.6541,-2.7257,-2.7481,-2.6286,-2.406,0.0,0.0,0.0,0.0,0.0,0.0,0.0,0.0,0.0,0.0,0.0,0.0,0.0,0.0,0.0,0.0,0.0,0.0,0.0,0.0,0.0,0.0,0.0,0.0,0.0,-3.4983,-3.5919,0.0,0.0,0.0,0.0,0.0,0.0,0.0,0.0,0.0,0.0,0.0,0.0,-3.0485,-3.2828,-3.4316,-3.367,-3.3644,-3.3777,-3.4091,-3.4319,-3.4534,-3.4773,-3.3063,-3.1905,0.0,0.0,0.0,0.0,0.0,0.0,0.0,0.0,0.0,0.0,0.0,0.0,0.0,0.0,0.0,0.0,0.0,0.0,0.0,0.0,0.0,0.0,0.0,0.0,0.0,0.0,0.0,0.0,0.0,0.0,0.0,0.0,-2.1455,-2.0226,0.0,0.0,0.0,0.0,0.0,0.0,0.0,0.0,0.0,0.0,0.0,0.0,0.0,-2.3144,-2.3341,-2.4123,-2.4476,-2.4492,-2.6455,-2.7735,-2.8421,-3.0749,-3.2395,-3.3448,-3.4253,0.0,-2.7029,-2.4613,0.0,0.0,0.0,0.0,0.0,0.0,0.0,0.0,0.0,0.0,0.0,0.0,0.0,0.0,0.0,0.0,0.0,0.0,0.0,0.0,0.0,0.0,-3.4476,-3.8021,-3.9066,-3.9297,0.0,-3.5131,-3.1244,-3.1059,-3.0188,0.0,0.0,0.0,0.0,0.0,0.0,0.0,-3.1906,-3.299,-3.3661,-3.3606,-3.3803,-3.3989,-3.4083,-3.4447,-3.468,-3.4714,-3.4642,-3.4012,-3.2659,-3.168,0.0,0.0,0.0,0.0,0.0,0.0,0.0,0.0,0.0,0.0,0.0,0.0,0.0,0.0,0.0,0.0,0.0,0.0,0.0,0.0,0.0,0.0,0.0,0.0,0.0,0.0,0.0,0.0,0.0,-1.942,-2.0429,-1.9352,-1.9322,-1.8672,0.0,0.0,0.0,0.0,0.0,0.0,0.0,0.0,0.0,-2.3041,-2.4769,-2.59,-2.6402,-2.7599,-2.818,-2.8158,-2.9079,-2.9707,-3.017,-3.2074,-3.3397,-3.4322,-3.5522,-3.4967,-3.3002,-2.9817,-2.7653,-2.6156,0.0,0.0,0.0,0.0,-2.43,-2.4431,-2.5265,-2.5582,0.0,-2.5416,0.0,0.0,0.0,0.0,0.0,0.0,0.0,0.0,0.0,0.0,-3.6193,-3.9747,-4.0609,-4.0571,-4.0259,-3.7891,-3.5629,0.0,-3.3775,-3.218,-3.0446,0.0,0.0,0.0,0.0,-3.3797,-3.393,-3.4655,-3.5061,-3.4761,-3.4459,-3.4317,-3.443,-3.4603,-3.4756,-3.487,-3.507,-3.4891,-3.4175,-3.2986,-3.1487,0.0,0.0,0.0,0.0,0.0,0.0,0.0,0.0,0.0,0.0,0.0,0.0,0.0,0.0,0.0,0.0,0.0,0.0,0.0,0.0,0.0,0.0,0.0,0.0,0.0,0.0,0.0,0.0,-1.984,-2.0621,-1.9194,-1.9962,-1.9732,0.0,0.0,0.0,0.0,0.0,0.0,-2.1921,-2.3549,-2.4851,-2.5661,-2.7391,-2.859,-2.9137,-3.0359,-3.0935,-3.0871,-3.0773,-3.0874,-3.1213,-3.237,-3.3478,-3.4515,-3.57,-3.6728,-3.7399,-3.3935,-3.154,-2.9953,-2.8716,-2.8233,-2.8219,-2.8405,-2.8514,-2.8685,-2.9593,-3.0133,-3.042,-3.0631,0.0,-2.9643,-2.9323,0.0,0.0,0.0,0.0,-2.9569,-3.3702,-3.5851,-3.7664,-4.0488,-4.12,-4.1073,-4.0363,-3.9594,-3.8898,0.0,-3.6885,-3.5094,-3.3138,0.0,0.0,0.0,0.0,-3.5872,-3.5911,-3.629,-3.629,-3.5609,-3.5114,-3.4791,-3.468,-3.4775,-3.4889,-3.5034,-3.5212,-3.5339,-3.5329,-3.4272,-3.3242,-3.2298,0.0,0.0,0.0,0.0,0.0,0.0,0.0,0.0,0.0,0.0,0.0,0.0,0.0,0.0,0.0,0.0,0.0,0.0,0.0,0.0,0.0,0.0,0.0,0.0,0.0,0.0,0.0,0.0,0.0,-2.1724,-2.2771,0.0,0.0,0.0,0.0,-2.2971,-2.327,-2.3661,-2.4376,-2.6125,-2.7487,-2.8289,-2.9956,-3.0824,-3.0858,-3.0902,-3.0831,-3.0692,-3.0831,-3.1223,-3.1859,-3.2637,-3.3984,-3.5706,-3.6185,-3.7073,-3.7925,-3.4869,-3.3375,-3.2757,-3.023,-2.8816,-2.829,-2.8994,-2.9366,-2.9638,-3.0468,-3.1393,-3.2271,-3.2271,-3.1868,-3.1537,-3.2329,-3.1469,0.0,0.0,-3.3748,-3.468,-3.8403,-3.9437,-3.9804,-4.0997,-4.1244,-4.1181,-4.1066,-3.9628,-3.8587,0.0,-3.8564,-3.7499,-3.6666,0.0,-3.5855,-3.6512,-3.5974,-3.6092,-3.7653,-3.7184,-3.6362,-3.5493,-3.5609,-3.5437,-3.4661,-3.4954,-3.5178,-3.5185,-3.5329,-3.5474,-3.5679,-3.5589,-3.486,-3.3349,-3.414,0.0,0.0,0.0,0.0,0.0,0.0,0.0,0.0,0.0,0.0,0.0,0.0,0.0,0.0,0.0,0.0,0.0,0.0,0.0,0.0,0.0,0.0,0.0,0.0,0.0,0.0,0.0,0.0,-2.3583,-2.4778,0.0,-2.2746,-2.2884,-2.3366,-2.3987,-2.5521,-2.659,-2.6944,-2.871,-2.9839,-3.0241,-3.0842,-3.1112,-3.1015,-3.0935,-3.0912,-3.0895,-3.0912,-3.1292,-3.1977,-3.2665,-3.393,-3.5632,-3.6201,-3.7108,-3.8119,-3.7032,-3.6528,-3.6335,-3.5385,-3.4799,-3.4564,-3.5097,-3.5296,-3.5344,-3.6049,-3.684,-3.7673,-3.8398,-3.8876,-3.8927,-3.7592,-3.6841,-3.6314,-3.5514,-3.6566,-3.8093,-3.8757,-4.0249,-4.1513,-4.1215,-4.1222,-4.1073,-4.0454,-3.9804,-3.946,-3.9849,-3.9038,-3.8003,-3.7203,-3.7724,-3.7939,-3.6912,-3.7338,-3.8058,-3.8918,-3.8279,-3.7468,-3.6749,-3.6388,-3.5853,-3.5059,-3.5166,-3.5301,-3.5386,-3.5514,-3.5635,-3.5696,-3.6351,-3.6469,-3.5926,-3.6771,-3.5522,0.0,0.0,0.0,0.0,0.0,0.0,0.0,0.0,0.0,0.0,0.0,0.0,0.0,0.0,0.0,0.0,0.0,0.0,0.0,0.0,0.0,0.0,0.0,0.0,0.0,0.0,-2.4831,-2.4563,-2.6027,-2.646,-2.4841,-2.5236,-2.587,-2.6493,-2.8086,-2.9092,-2.921,-3.0398,-3.1112,-3.119,-3.119,-3.1151,-3.1072,-3.1032,-3.1032,-3.1072,-3.1196,-3.1545,-3.2003,-3.2739,-3.3825,-3.5145,-3.5954,-3.6883,-3.7812,-3.8083,-3.8241,-3.8322,-3.8322,-3.8271,-3.8238,-3.8878,-3.9111,-3.9245,-4.0262,-4.0977,-4.152,-4.2277,-4.2937,-4.305,-4.1111,-4.0599,-4.0329,-3.8625,-3.9472,-4.0696,-4.0084,-4.125,-4.236,-4.1408,-4.1244,-4.1041,-4.01,-3.9908,-3.9987,-4.0081,-3.9545,-3.8861,-3.8347,-3.9147,-3.9316,-3.7692,-3.8529,-3.9347,-3.9318,-3.9041,-3.859,-3.7944,-3.7527,-3.6826,-3.5733,-3.5515,-3.5472,-3.5573,-3.5449,-3.5624,-3.622,-3.636,-3.6554,-3.6869,-3.77,-3.6712,-3.3825,0.0,0.0,0.0,0.0,0.0,0.0,0.0,0.0,0.0,0.0,0.0,0.0,0.0,0.0,0.0,0.0,0.0,0.0,0.0,0.0,0.0,0.0,0.0,-2.1853,-2.4777,-2.6281,-2.4765,-2.6639,-2.7807,-2.7197,-2.7715,-2.882,-3.0551,-3.0814,-3.0952,-3.0975,-3.1112,-3.119,-3.119,-3.119,-3.119,-3.119,-3.123,-3.123,-3.123,-3.1768,-3.2021,-3.2074,-3.2844,-3.3622,-3.4353,-3.5403,-3.6282,-3.7065,-3.7863,-3.8368,-3.8652,-3.8615,-3.8572,-3.8682,-3.9808,-4.029,-4.0682,-4.2602,-4.3257,-4.3284,-4.3378,-4.3429,-4.3316,-4.2626,-4.2446,-4.245,-4.2547,-4.2528,-4.2528,-4.2597,-4.2576,-4.2343,-4.1461,-4.1271,-4.1003,-4.01,-3.9968,-4.0025,-4.01,-4.0098,-4.0139,-4.0272,-4.0229,-3.9899,-3.9052,-3.9547,0.0,-3.8982,-3.9472,-3.9631,-3.8877,-3.8913,-3.8316,-3.6656,-3.6047,-3.5767,-3.5788,-3.5173,-3.5578,-3.7262,-3.5742,-3.5271,-3.6144,-3.6872,-3.7224,-3.7204,0.0,0.0,0.0,0.0,0.0,0.0,0.0,0.0,0.0,0.0,0.0,0.0,0.0,0.0,0.0,0.0,0.0,0.0,0.0,0.0,0.0,0.0,-2.4648,-2.5341,-2.6704,-2.7977,-2.8857,-2.9485,-2.9766,-2.9689,-2.9855,-3.0137,-3.0535,-3.0814,-3.0935,-3.0952,-3.1112,-3.119,-3.119,-3.1252,-3.1252,-3.119,-3.1507,-3.1677,-3.1804,-3.2196,-3.255,-3.2952,-3.3111,-3.3762,-3.4661,-3.4897,-3.5891,-3.732,-3.754,-3.8474,-3.9737,-3.8927,-3.9007,-3.9674,-4.0263,-4.069,-4.1054,-4.2128,-4.258,-4.2753,-4.3345,-4.395,-4.4354,-4.3526,-4.3331,-4.3152,-4.1914,-4.2093,-4.2347,-4.1066,-4.1197,-4.1442,-4.0504,-4.0274,-4.0217,-3.9968,-3.9908,-3.9968,-4.0081,-4.0098,-4.012,-4.0196,-4.0215,-4.0101,-3.9814,-3.9905,0.0,-4.077,-4.0406,-3.9854,-3.9239,-3.8672,-3.7947,-3.6959,-3.6763,-3.7007,-3.7693,-3.7601,-3.7719,-3.8143,-3.8319,-3.8789,-3.9605,-3.8641,-3.7836,0.0,0.0,0.0,0.0,0.0,0.0,0.0,0.0,0.0,0.0,0.0,0.0,0.0,0.0,0.0,0.0,0.0,0.0,0.0,0.0,0.0,0.0,-2.4011,-2.6303,-2.7356,-2.8369,-2.942,-3.051,-3.0568,-3.051,-3.0609,-3.0609,-3.0609,-3.0609,-3.0814,-3.0935,-3.0952,-3.1134,-3.1252,-3.1252,-3.1329,-3.1368,-3.1368,-3.1768,-3.2039,-3.2127,-3.2601,-3.2983,-3.3291,-3.3368,-3.3909,0.0,-3.5214,-3.6142,-3.7441,-3.8269,-3.9342,0.0,0.0,0.0,0.0,0.0,-4.1619,-4.2082,-4.2233,-4.2319,-4.2431,-4.2572,-4.327,-4.3871,-4.3058,-4.2869,-4.2698,-4.1685,-4.18,-4.1896,-4.0401,-4.1016,-4.1801,-4.0794,-4.0903,-4.1247,-4.1247,-4.1247,-4.1266,-4.1342,-4.1377,0.0,-4.0998,-4.0597,-4.0177,-3.9776,-4.002,-4.0358,-4.0636,-4.0475,-4.0204,-3.9894,-3.9478,-3.8927,-3.8152,-3.7845,0.0,0.0,0.0,-3.8007,-3.7963,-3.8765,0.0,0.0,0.0,0.0,0.0,0.0,0.0,0.0,-3.7094,-3.7046,0.0,0.0,0.0,0.0,0.0,0.0,0.0,0.0,0.0,0.0,0.0,0.0,0.0,0.0,0.0,0.0,-2.5209,-2.6842,-2.8269,-2.9457,-3.0245,-3.0394,-3.0477,-3.0526,-3.0526,-3.051,-3.0568,-3.0651,-3.0831,-3.0952,-3.0975,0.0,0.0,0.0,0.0,-3.1614,-3.1654,-3.2091,-3.2335,-3.2403,-3.3063,-3.335,-3.3379,-3.3597,-3.4081,-3.4845,-3.5752,-3.6618,-3.7584,-3.9314,-4.0363,-4.086,-4.0922,-4.1319,-4.1892,-4.2215,-4.2693,-4.3101,-4.2621,0.0,0.0,-4.1833,-4.2336,-4.2998,-4.2252,-4.2021,-4.1989,-4.1876,-4.1822,-4.1545,-4.0596,-4.1716,-4.2861,-4.1913,-4.2402,-4.3111,-4.3104,-4.3113,-4.306,-4.2984,-4.3005,-4.2806,-4.1982,-4.1186,-4.0367,-3.9484,-4.0072,-4.0384,-3.9779,-4.0199,-4.0577,-4.066,0.0,0.0,-3.9838,-3.9243,-3.8934,-3.8925,-3.8104,-3.7628,-3.764,-3.8303,-3.8682,-3.8694,-3.8686,-3.9448,-4.0996,-4.0996,-4.1003,-4.0935,-3.7894,-3.7317,0.0,0.0,0.0,0.0,0.0,0.0,0.0,0.0,0.0,0.0,0.0,0.0,0.0,0.0,0.0,-2.3211,-2.5926,-2.7913,-2.8203,-2.8659,-2.9143,-2.9719,-3.0203,-3.0526,-3.0526,-3.0609,-3.0609,-3.0551,-3.0895,-3.1112,-3.1015,-3.1308,0.0,-3.1462,-3.1839,-3.2073,-3.2073,-3.2749,-3.3093,-3.3093,0.0,0.0,-3.3707,-3.3698,-3.4081,-3.4827,-3.4943,-3.6064,-3.7821,-3.8209,-3.978,-4.1983,-4.268,-4.2674,-4.237,-4.2938,-4.2569,-4.1806,-4.2488,-4.2775,-4.2998,-4.3663,-4.4438,-4.4989,-4.4192,-4.396,0.0,-4.3038,-4.2811,-4.2758,-4.2549,-4.2811,-4.3057,-4.2825,-4.2953,-4.309,-4.3113,-4.3108,-4.2908,-4.2257,-4.2141,-4.1905,-4.1091,-4.137,-4.1402,-4.0481,-4.0491,-4.0847,-4.1486,-4.1081,-4.0808,-4.0974,-4.103,-4.0988,-4.0812,-4.1269,-4.1574,-4.157,-4.0758,-4.0262,-4.0267,-4.0416,-4.0505,-4.0505,-4.0505,-4.0653,-4.0996,-4.0996,-4.1003,-4.0986,-4.0331,-4.0232,0.0,0.0,0.0,0.0,0.0,0.0,0.0,0.0,0.0,0.0,0.0,-1.8961,0.0,0.0,-2.3611,-2.4758,-2.6632,-2.791,-2.7941,-2.8354,-2.871,-2.9037,-2.9376,-2.9703,-3.0045,-3.0118,-3.0268,-3.0493,-3.0855,-3.1055,-3.1015,-3.1329,-3.1576,-3.1576,-3.202,-3.2249,-3.2249,-3.2939,-3.3291,-3.3321,-3.3652,-3.3982,-3.4358,-3.4302,-3.4989,-3.6153,-3.6297,-3.7256,-3.8763,-3.9708,-4.0998,-4.2418,-4.3221,-4.3253,-4.2905,-4.3057,-4.2654,-4.2145,-4.2777,-4.3042,-4.3183,-4.3678,-4.4473,-4.5122,-4.4715,-4.4587,-4.4459,-4.3981,-4.3846,-4.3724,-4.3231,-4.386,-4.4513,-4.3974,-4.426,-4.4525,-4.409,-4.3995,-4.3753,-4.2967,-4.2805,-4.2524,-4.1709,-4.1913,-4.1876,-4.09,-4.0812,-4.1035,-4.1523,-4.1214,-4.098,-4.109,-4.1103,-4.1269,-4.1678,-4.2444,-4.289,-4.2895,-4.2487,-4.2062,-4.1614,-4.1638,-4.1455,-4.1015,-4.1003,-4.1018,-4.1045,-4.1023,-4.121,-4.1646,-4.1174,-4.121,0.0,0.0,0.0,0.0,0.0,0.0,0.0,0.0,-1.9423,-2.1657,-2.2052,-2.2419,-2.3726,-2.4708,-2.555,-2.6254,-2.7115,-2.7713,-2.7771,-2.8102,-2.8332,-2.8308,-2.8535,-2.8879,-2.9343,-2.9409,-2.9603,-3.0128,-3.0593,-3.0875,-3.0976,-3.1456,-3.1748,-3.1841,-3.2266,-3.2574,-3.2733,-3.3165,-3.3571,-3.388,-3.3963,-3.4412,-3.5143,-3.5154,-3.6028,-3.755,-3.8077,-3.8758,-3.9639,-4.1383,-4.2166,-4.231,-4.2886,-4.3161,-4.3246,-4.2909,-4.2829,-4.2934,-4.3349,-4.3485,-4.3524,-4.3722,-4.4344,-4.4987,-4.4987,-4.4958,-4.491,-4.491,-4.491,-4.4724,-4.3911,-4.4822,-4.5729,-4.4858,-4.5201,-4.5514,-4.4825,-4.4663,-4.4423,-4.3617,-4.3446,-4.316,-4.2301,-4.2154,-4.1866,-4.1065,-4.1027,-4.1106,-4.1106,-4.11,-4.1168,-4.1315,-4.1474,-4.1973,-4.2967,-4.3475,-4.3751,-4.3751,-4.3594,-4.3112,-4.2247,-4.2419,-4.2132,-4.1276,-4.1408,-4.1512,-4.1578,-4.1502,-4.1749,-4.2246,-4.1665,-4.18,-1.7874,-1.8079,0.0,-1.9381,-1.993,-2.0715,0.0,0.0,-2.1593,-2.267,-2.2813,-2.2883,-2.3172,-2.4605,-2.5743,-2.5875,-2.7103,-2.8047,-2.8047,-2.7647,-2.7368,-2.7358,-2.8374,-2.8977,-2.8724,-2.8703,-2.8812,-2.9084,-2.9841,-3.0495,-3.0959,-3.176,-3.2369,-3.2666,-3.3001,-3.3527,-3.4261,-3.3897,-3.4486,-3.5933,-3.5172,-3.5198,-3.5967,-3.6159,-3.6712,-3.7569,-3.8786,-3.9408,-3.9583,-4.0877,-4.1402,-4.1374,-4.1623,-4.2183,-4.2871,-4.2813,-4.2945,-4.3299,-4.4206,-4.4529,-4.4686,-4.5566,-4.5947,-4.6033,-4.6033,-4.6025,-4.6025,-4.6025,-4.6025,-4.6006,-4.5881,-4.546,-4.502,-4.4881,-4.4401,-4.3948,-4.387,-4.3821,-4.3583,-4.2705,-4.2552,-4.2262,-4.1404,-4.1241,-4.1202,-4.1088,-4.1091,-4.1097,-4.1097,-4.11,-4.1371,-4.2086,-4.2851,-4.3954,-4.5535,-4.5055,-4.4657,-4.4657,-4.3928,-4.3149,-4.2311,-4.3035,-4.3038,-4.2176,-4.286,-4.3225,-4.3227,-4.3151,-4.2789,-4.2136,-4.2818,-4.3208,-2.2314,0.0,0.0,0.0,-2.4051,-2.4193,-2.4944,-2.4558,-2.439,-2.565,-2.5887,-2.5914,-2.6047,-2.6685,-2.7236,0.0,-2.7834,-2.8291,-2.8396,-2.8165,-2.7943,-2.7736,-2.8252,-2.8505,-2.823,-2.8245,-2.8503,-2.8982,-2.9661,-3.0109,-3.0277,-3.1359,-3.2009,-3.2103,-3.3309,-3.4142,-3.448,-3.4911,-3.5512,-3.6285,-3.603,-3.6297,-3.7043,-3.7248,-3.7835,-3.8697,-3.9425,-3.9781,-3.9924,-4.0865,-4.1005,-4.0747,-4.182,-4.2576,-4.3023,-4.3023,-4.3479,-4.4225,-4.5229,-4.5566,-4.5554,-4.5468,-4.5787,-4.6098,-4.5592,-4.5806,-4.6196,-4.6196,-4.6196,-4.6196,-4.6196,-4.5553,-4.489,-4.4896,-4.4289,-4.3558,-4.3051,-4.2932,-4.2692,-4.1813,-4.2048,-4.2282,-4.1931,-4.2243,-4.2555,-4.2557,-4.2125,-4.1808,-4.1797,-4.2241,-4.2675,-4.2978,-4.3786,-4.4585,-4.5269,-4.5464,-4.5561,-4.556,-4.5248,-4.4681,-4.3797,-4.4141,-4.3934,-4.3027,-4.333,-4.3499,-4.3501,-4.3421,-4.3466,-4.3606,-4.3427,-4.3872,-2.4444,0.0,0.0,-2.6658,-2.7073,-2.7035,-2.7217,-2.6861,-2.6798,-2.7969,-2.8201,-2.821,-2.8273,-2.83,-2.8353,-2.838,-2.8406,-2.8458,-2.8587,-2.8518,-2.8352,-2.8129,-2.8102,-2.8006,-2.7808,-2.7941,-2.8278,-2.8847,-2.9414,-2.9775,-2.9897,-3.1142,-3.1936,-3.2218,-3.3732,-3.4764,-3.526,-3.5793,-3.6351,-3.6886,-3.686,-3.7239,-3.7987,-3.8271,-3.8865,-3.9623,-3.9848,-4.0015,-4.0155,-4.0766,-4.0845,-4.0727,-4.2071,-4.3009,-4.3613,-4.3613,-4.4256,-4.522,-4.5947,-4.6196,-4.6098,-4.5448,-4.5682,-4.6033,-4.5156,-4.5507,-4.615,-4.5903,-4.5832,-4.5891,-4.6137,-4.5377,-4.4598,-4.4844,-4.4274,-4.3492,-4.2868,-4.2731,-4.2536,-4.1911,-4.2301,-4.2722,-4.2734,-4.3202,-4.3593,-4.3588,-4.326,-4.2916,-4.2692,-4.3208,-4.3572,-4.3526,-4.4098,-4.4577,-4.482,-4.5395,-4.5833,-4.6037,-4.6141,-4.576,-4.4783,-4.5068,-4.4795,-4.3869,-4.4006,-4.407,-4.4083,-4.395,-4.409,-4.4452,-4.4037,-4.4353,-2.1498,0.0,-2.4236,-2.598,-2.744,-2.8431,-2.8467,-2.8449,-2.8467,-2.8651,-2.8664,-2.8646,-2.85,-2.8594,-2.8619,-2.8432,-2.8458,-2.8518,-2.8587,-2.8326,-2.8102,-2.8102,-2.7771,-2.7526,0.0,-2.7794,-2.8084,-2.8299,-2.8935,-2.9548,-3.0045,-3.141,-3.2675,-3.3716,-3.4485,-3.5615,-3.7106,-3.6364,-3.6796,-3.8342,-3.7734,-3.789,-3.8693,-3.9197,-3.9604,-3.9889,-4.0036,-4.0096,-4.0118,-4.0399,-4.0969,-4.169,-4.1938,-4.3089,-4.4647,-4.4647,-4.5287,-4.6157,-4.6196,-4.6196,-4.6196,-4.6174,-4.6185,-4.6029,-4.5153,-4.5504,-4.6018,-4.5183,-4.4943,-4.5124,-4.5988,-4.4922,-4.3851,-4.4689,-4.4241,-4.359,-4.357,-4.3551,-4.3551,-4.3531,-4.3551,-4.3554,-4.3556,-4.3588,-4.3597,-4.3606,-4.4238,-4.4442,-4.366,-4.3573,-4.3592,-4.3602,-4.3617,-4.3981,-4.4822,-4.4865,-4.5143,-4.5859,-4.6085,-4.5724,-4.4663,-4.5531,-4.5646,-4.477,-4.5273,-4.5542,-4.5542,-4.5266,-4.4704,-4.3859,-4.4784,-4.4745,-2.3033,-2.4501,-2.6215,-2.7896,-2.871,-2.9052,-2.8874,-2.8827,-2.8779,-2.8594,-2.816,-2.7737,-2.7648,-2.7773,-2.7846,-2.7716,-2.825,-2.8669,-2.8612,-2.8492,-2.8647,-2.9222,-2.9197,0.0,0.0,0.0,0.0,-2.802,-2.8479,-2.9156,-2.9983,-3.1151,-3.2173,-3.2973,-3.4713,-3.5896,-3.6437,-3.7184,-3.7935,-3.8725,-3.884,-3.9121,-3.9508,-3.967,-3.9804,-3.9911,-4.0036,-4.0177,-4.0317,-4.0442,-4.0712,-4.1151,-4.2431,-4.3306,-4.3996,-4.5246,-4.5901,-4.6196,-4.6196,-4.5825,-4.5338,-4.5331,-4.5344,-4.5278,-4.4993,-4.5514,-4.6147,-4.5855,-4.5765,-4.5815,-4.6069,-4.5309,-4.4547,-4.482,-4.4223,-4.361,-4.361,-4.361,-4.361,-4.361,-4.4039,-4.4396,-4.4394,-4.484,-4.5006,-4.4482,-4.4634,-4.4892,-4.5159,-4.472,-4.4576,-4.5065,-4.4597,-4.435,-4.4563,-4.5073,-4.5254,-4.4924,-4.5525,-4.5667,-4.5225,-4.5524,-4.5529,-4.514,-4.5315,-4.5379,-4.5323,-4.5244,-4.5048,-4.4739,-4.5088,-4.5048,-2.4726,-2.6097,-2.7401,-2.9101,-2.9492,-2.9431,-2.9249,-2.9181,-2.9071,-2.8868,-2.7921,-2.7128,-2.7006,-2.6604,-2.6291,-2.6285,-2.685,-2.7465,-2.7962,-2.8034,-2.8482,-2.9715,-2.9842,-3.015,0.0,0.0,0.0,-2.8766,-2.9057,-2.9509,-3.0131,-3.1335,-3.2311,-3.2991,-3.5054,-3.63,-3.6604,-3.7894,-3.8737,-3.9129,-3.9427,-3.967,-3.9889,-3.9889,-3.9956,-4.0022,-4.0158,-4.0334,-4.0524,-4.0636,-4.0893,-4.1383,-4.2894,-4.3669,-4.412,-4.5636,-4.6196,-4.6196,-4.6196,-4.5825,-4.537,-4.5344,-4.5331,-4.5267,-4.4968,-4.5479,-4.6097,-4.5815,-4.5738,-4.5799,-4.6032,-4.5486,-4.494,-4.5215,-4.4881,-4.4471,-4.4471,-4.4471,-4.4471,-4.4471,-4.4879,-4.5239,-4.5239,-4.5351,-4.5258,-4.4664,-4.4364,-4.4424,-4.5004,-4.4335,-4.3954,-4.4382,-4.366,-4.3227,-4.3453,-4.423,-4.4562,-4.4283,-4.5082,-4.5491,-4.5374,-4.5391,-4.5395,-4.5304,-4.5166,-4.5101,-4.5052,-4.4981,-4.4934,-4.4934,-4.4957,-4.4957,-2.6427,-2.7396,-2.7846,-2.9545,-2.9787,-2.9626,-2.9626,-2.9512,-2.939,-2.9319,-2.7995,-2.6746,0.0,0.0,-2.4265,-2.4522,-2.4712,-2.535,-2.6877,-2.7128,-2.7815,0.0,0.0,0.0,0.0,0.0,0.0,-3.0512,0.0,-3.0557,-3.0617,-3.1937,-3.3033,-3.3807,-3.5477,-3.6685,-3.7458,-3.8517,-3.9189,-3.9526,-3.9526,-3.967,-3.9911,-3.9933,-4.0042,-4.0221,-4.0358,-4.0519,-4.0731,-4.091,-4.1447,-4.2229,-4.3163,-4.4066,-4.4929,-4.5806,-4.6157,-4.6196,-4.6203,-4.615,-4.6068,-4.6033,-4.6001,-4.5835,-4.5099,-4.5456,-4.5937,-4.5173,-4.4959,-4.5135,-4.5909,-4.5488,-4.5058,-4.581,-4.5997,-4.5997,-4.5997,-4.5997,-4.5997,-4.5997,-4.5986,-4.5964,-4.5928,-4.5131,-4.4399,-4.41,-4.3477,-4.3106,-4.3342,-4.2571,-4.1962,-4.1875,-4.1075,-4.0882,-4.1692,-4.2495,-4.3225,-4.3867,-4.4767,-4.5227,-4.5084,-4.5207,-4.5265,-4.5265,-4.4947,-4.4776,-4.4776,-4.4595,-4.4515,-4.4515,-4.457,-4.4551,-2.802,-2.8733,-2.9488,-3.0528,-3.0305,-2.982,-2.982,-2.9753,-2.9325,-2.8032,-2.6786,-2.5504,0.0,0.0,0.0,-2.5186,-2.6728,0.0,-2.8456,-2.8826,0.0,-3.063,0.0,-3.1833,-3.2658,-3.2216,0.0,0.0,-3.1313,-3.1297,-3.2097,-3.2495,-3.3117,-3.408,-3.5073,-3.6033,-3.6961,-3.8577,-3.9433,-3.9575,-3.9781,-3.9998,-4.0196,-4.0212,-4.0277,-4.0429,-4.0572,-4.0682,-4.0788,-4.0948,-4.1156,-4.1465,-4.2354,-4.32,-4.4052,-4.4915,-4.5628,-4.6201,-4.6203,-4.5352,-4.437,-4.5,-4.4763,-4.4445,-4.5518,-4.5956,-4.6058,-4.5841,-4.5792,-4.5832,-4.599,-4.5862,-4.5745,-4.5949,-4.5997,-4.5997,-4.5997,-4.5997,-4.5997,-4.5997,-4.5915,-4.5592,-4.4793,-4.4443,-4.384,-4.2537,-4.2217,-4.2382,-4.3101,-4.24,-4.2035,-4.2552,-4.1827,-4.1318,-4.1359,-4.2732,-4.3316,-4.2765,-4.4163,-4.4938,-4.4808,-4.4833,-4.4808,-4.4707,-4.4621,-4.4587,-4.4587,-4.4524,-4.4515,-4.4515,-4.4515,-4.4515,-2.9742,-3.0309,-3.0801,-3.1245,-3.0952,-3.0262,-2.911,-2.8707,-2.799,-2.5944,-2.4628,0.0,0.0,0.0,0.0,0.0,0.0,0.0,-2.8809,-2.9144,-2.9893,0.0,-3.2019,0.0,-3.3361,-3.3063,-3.2865,0.0,-3.2324,-3.2144,-3.2629,-3.3105,-3.3611,-3.4179,-3.5027,-3.6184,-3.7661,-3.9075,-3.9781,-3.9781,-4.002,-4.0196,-4.0304,-4.0358,-4.0486,-4.0637,0.0,-4.0824,-4.0933,-4.1011,-4.1061,-4.1169,-4.2036,-4.2877,-4.3702,-4.4585,-4.5448,-4.6156,-4.5761,-4.4965,-4.4278,-4.5191,-4.5141,-4.4917,-4.5877,-4.6124,-4.6092,-4.6111,-4.5823,-4.559,-4.591,-4.5744,-4.5569,-4.5919,-4.5997,-4.5997,-4.5997,-4.5997,-4.5861,-4.5433,-4.5222,-4.476,-4.373,-4.3253,-4.268,-4.1646,-4.1222,-4.1182,-4.1681,-4.1382,-4.1251,-4.1552,-4.1131,-4.0745,-4.0568,-4.2096,-4.281,-4.2246,-4.3794,-4.4685,-4.4605,-4.4605,-4.4578,-4.4515,-4.4515,-4.4515,-4.4515,-4.4515,-4.4515,-4.4515,-4.4354,-4.4296,-3.138,-3.1763,-3.1737,-3.1833,-3.1724,-3.092,-2.8264,-2.7437,-2.6474,-2.378,0.0,-2.1165,-1.966,-2.0691,-2.1784,-2.1808,0.0,-2.6497,-2.8846,-2.9153,-3.0002,-3.2346,-3.2557,-3.277,-3.3339,-3.3531,-3.3619,-3.3689,-3.3377,-3.3086,-3.2838,-3.3728,-3.4245,-3.4293,-3.5285,-3.6713,-3.8649,-3.9507,-3.9963,-4.0017,-4.0195,-4.03,-4.0348,-4.0472,-4.0641,-4.0832,0.0,0.0,-4.1108,-4.1109,-4.1096,-4.1169,-4.1875,-4.274,-4.3682,-4.4458,-4.535,-4.6095,-4.5327,-4.5019,-4.5097,-4.5799,-4.6015,-4.6022,-4.6081,-4.6099,-4.6113,-4.6095,-4.5541,-4.5122,-4.5813,-4.5394,-4.4995,-4.5789,-4.5891,-4.582,-4.5908,-4.5919,-4.5636,-4.4638,-4.4285,-4.3805,-4.2679,-4.1915,-4.1358,-4.107,-4.0407,-3.9975,-3.9975,-4.0139,-4.0177,-3.9914,-3.9826,-3.9758,-3.9689,-4.1092,-4.1989,-4.2077,-4.3423,-4.4289,-4.4496,-4.4421,-4.4402,-4.4515,-4.4515,-4.4487,-4.444,-4.444,-4.4411,-4.4335,-4.4048,-4.3923,-3.2436,-3.2121,-3.1852,-3.2526,-3.2667,-3.1924,-2.9192,-2.8489,0.0,0.0,-2.203,-2.1265,-1.9614,-2.0627,-2.2204,-2.3722,-2.6024,-2.8311,-3.028,-3.138,-3.2176,0.0,-3.3625,-3.4062,0.0,0.0,0.0,0.0,0.0,-3.4064,-3.4017,-3.4195,-3.4454,-3.4772,-3.5742,-3.6805,-3.7871,-3.8651,-3.9413,-4.0176,-4.0196,-4.0336,-4.0546,-4.0633,-4.082,-4.1056,-4.1046,0.0,-4.1108,-4.1104,-4.1094,-4.1115,-4.1247,-4.2243,-4.3622,-4.3761,-4.484,-4.6169,-4.5954,-4.5889,-4.579,-4.5282,-4.5096,-4.5182,-4.5884,-4.6102,-4.6105,-4.6104,-4.594,-4.5813,-4.5959,-4.5395,-4.4971,-4.5673,-4.5285,-4.49,-4.5459,-4.5589,-4.5292,-4.4288,-4.405,-4.3485,-4.1749,-4.1304,-4.0912,-4.0167,-3.9921,-3.9826,-3.9826,-3.9914,-3.9956,-3.9911,-3.9781,-3.9708,-3.9698,-4.0608,-4.1431,-4.1961,-4.2385,-4.3175,-4.4458,-4.3931,-4.3893,-4.4496,-4.4515,-4.4354,-4.4097,-4.4097,-4.3923,-4.3575,-4.3542,-4.3508,-3.2579,-3.2204,-3.1795,-3.2179,-3.2205,-3.1084,-2.7097,0.0,0.0,0.0,-1.9251,-1.877,-1.7556,-1.9039,-2.0765,-2.1684,-2.4667,-2.7643,-2.9869,-3.1277,0.0,-3.3364,-3.3835,-3.3957,0.0,0.0,0.0,0.0,0.0,-3.4811,-3.4264,-3.448,-3.4711,-3.4889,-3.591,-3.6858,-3.7698,-3.8499,-3.9375,-4.0307,-4.0422,-4.0557,-4.0761,-4.0863,-4.0974,-4.1105,-4.1101,0.0,-4.1107,-4.1105,-4.1086,-4.105,-4.1054,-4.1815,-4.2983,-4.3436,-4.4428,-4.5577,-4.6015,-4.6117,-4.5995,-4.5637,-4.5501,-4.556,-4.5966,-4.6095,-4.6008,-4.5551,-4.5312,-4.5221,-4.522,-4.4855,-4.4673,-4.5454,-4.4995,-4.4421,-4.4747,-4.4418,-4.377,-4.2859,-4.2604,-4.2107,-4.077,-4.0454,-4.0276,-3.986,-3.9781,-3.9758,-3.9758,-3.9781,-3.98,-3.98,-3.9735,-3.9684,-3.9669,-4.0446,-4.1086,-4.1412,-4.1902,-4.2641,-4.3567,-4.3278,-4.3341,-4.3918,-4.3918,-4.3855,-4.3693,-4.3693,-4.3594,-4.3387,-4.3177,-4.3105,-3.2114,-3.1996,-3.1584,-3.1642,-3.1646,-3.0295,-2.5133,-2.3762,0.0,0.0,-1.6761,-1.6512,-1.5882,-1.7362,-1.8892,0.0,-2.2508,-2.5783,-2.8742,-3.0335,-3.185,0.0,-3.3744,0.0,-3.3615,0.0,0.0,0.0,0.0,0.0,-3.4404,-3.4733,-3.4945,-3.4945,-3.5774,-3.6642,-3.7483,-3.8339,-3.9246,-4.0181,-4.0539,-4.077,-4.0902,-4.1011,-4.1066,-4.1097,-4.1094,0.0,0.0,-4.1074,-4.1054,-4.1008,-4.1008,-4.1538,-4.2379,-4.3053,-4.3851,-4.4718,-4.5604,-4.5812,-4.5763,-4.6008,-4.6074,-4.6074,-4.6037,-4.6035,-4.588,-4.5157,-4.4846,-4.4697,-4.4703,-4.4317,-4.406,-4.4518,-4.4205,-4.3817,-4.3815,-4.3199,-4.2404,-4.1608,-4.1304,-4.0921,-4.0063,-3.9891,-3.9835,-3.9689,-3.9682,-3.9621,-3.9458,-3.9458,-3.9502,-3.9502,-3.9599,-3.9684,-3.9626,-4.0258,-4.071,-4.0778,-4.1287,-4.1908,-4.2649,-4.2507,-4.2754,-4.3387,-4.3406,-4.3371,-4.3283,-4.3283,-4.3212,-4.3159,-4.2865,-4.2714,-3.0848,-3.1257,-3.1197,-3.1456,-3.1951,-3.1029,-2.574,0.0,0.0,-1.7786,-1.6708,-1.6675,-1.6602,-1.6676,-1.7523,-1.984,-2.1043,-2.3197,-2.7449,-2.93,-3.0797,-3.2379,0.0,0.0,-3.3393,0.0,0.0,0.0,0.0,0.0,-3.4927,-3.5072,-3.5157,-3.5157,-3.5269,-3.579,-3.6786,-3.7608,-3.8488,-3.9496,-4.0312,-4.078,-4.0898,-4.0909,-4.0978,-4.1111,-4.109,0.0,0.0,-4.1025,-4.1019,-4.0999,-4.1007,-4.1525,-4.231,-4.233,-4.2875,-4.375,-4.4628,-4.4879,-4.4955,-4.5744,-4.6016,-4.5991,-4.5867,-4.5827,-4.5756,-4.5505,-4.5433,-4.5417,-4.5398,-4.4262,-4.2872,-4.1979,-4.2162,-4.2564,-4.2579,-4.2477,-4.218,-4.138,-4.1209,-4.0921,-4.0063,-4.0103,-4.002,-3.9264,-3.942,-3.9368,-3.8688,-3.8722,-3.8789,-3.8789,-3.9357,-3.9689,-3.9689,-3.9811,-4.0056,-4.0429,-3.9892,-4.0384,-4.2184,-4.1609,-4.1926,-4.3369,-4.3406,-4.3212,-4.2847,-4.2847,-4.2714,-4.2391,-4.2351,-4.2351,-3.0464,-3.0776,-3.0462,-3.0525,-2.9848,-2.8114,-2.4035,0.0,-2.0388,-1.6733,-1.5592,-1.5393,-1.59,-1.5462,-1.5693,-1.7653,-1.8932,-2.08,-2.4016,-2.5742,-2.7694,-3.0394,-3.0648,0.0,0.0,0.0,0.0,0.0,0.0,0.0,-3.5196,-3.5229,-3.5226,-3.5209,-3.5315,-3.5811,-3.6699,-3.7571,-3.8528,-3.9529,-3.9869,-4.0371,-4.0998,-3.9975,-4.0106,-4.1032,-3.998,0.0,0.0,-3.9657,-3.9736,-4.0181,-3.9643,-4.0285,-4.1507,-4.1494,-4.2013,-4.2772,-4.3112,-4.3114,-4.3105,-4.3962,-4.3807,-4.362,-4.5292,-4.5717,-4.5484,-4.4892,-4.5004,-4.5208,-4.4678,-4.3973,-4.3302,-4.2898,-4.2223,-4.1692,-4.1677,-4.1282,-4.0808,-4.0482,-4.0426,-4.0312,-3.9968,-3.9789,-3.96,-3.929,-3.9106,-3.8865,-3.8468,-3.8524,-3.8584,-3.8584,-3.8868,-3.91,-3.9045,-3.9082,-3.9203,-3.9367,-3.9138,-3.9457,-4.0458,-4.0221,-4.0466,-4.1269,-4.1775,-4.1951,-4.1758,-4.2282,-4.2414,-4.2269,-4.1904,-4.1689,-2.921,-3.0015,-3.0162,-2.9964,-2.8589,-2.6392,0.0,0.0,-1.8514,-1.5728,-1.4665,-1.4423,-1.4981,-1.4635,-1.47,-1.6007,-1.7257,-1.8871,-2.1278,-2.2723,-2.458,-2.7469,0.0,0.0,0.0,0.0,0.0,0.0,0.0,0.0,0.0,-3.5277,-3.5277,-3.5226,-3.5422,-3.5772,-3.6369,-3.7298,-3.8142,-3.8902,-3.9159,-3.9643,-4.0288,-3.9105,-3.9215,-4.0252,0.0,0.0,0.0,-3.8656,-3.8765,-3.9244,-3.8641,-3.9155,-4.0232,-4.0207,-4.0519,-4.0983,-4.1241,-4.1171,-4.1157,-4.2318,-4.2118,-4.1861,-4.4184,-4.4775,-4.4509,-4.3844,-4.4001,-4.4164,-4.3326,-4.3019,-4.2898,-4.2629,-4.168,-4.0827,-4.0827,-4.028,-3.9811,-3.9819,-3.9754,-3.9689,-3.9689,-3.9474,-3.9221,-3.9027,-3.8762,-3.8452,-3.8117,-3.8111,-3.8176,-3.8143,-3.8227,-3.8405,-3.8621,-3.8681,-3.8681,-3.856,-3.8591,-3.8802,-3.9209,-3.921,-3.9445,-3.9896,-4.0524,-4.0792,-4.0753,-4.1386,-4.1672,-4.1631,-4.1196,-4.0984,-2.6614,-2.8876,-3.0576,-3.0034,-2.8989,-2.7008,0.0,0.0,-1.8353,-1.4997,-1.4208,-1.4114,-1.4114,-1.4436,-1.4934,-1.5691,-1.6328,-1.7543,-1.9887,-2.0921,-2.1953,0.0,0.0,0.0,0.0,0.0,0.0,0.0,0.0,0.0,0.0,-3.5261,-3.5312,-3.5312,-3.5435,-3.5534,-3.5607,-3.6532,-3.7078,-3.7235,-3.8107,-3.8525,-3.8532,-3.8515,-3.8514,0.0,0.0,0.0,0.0,-3.8405,-3.841,-3.8402,-3.8402,-3.8402,-3.8421,-3.8346,-3.8202,-3.817,-3.9031,-3.9196,-3.933,-4.1118,-4.1528,-4.1473,-4.2446,-4.2684,-4.2602,-4.2465,-4.2413,-4.2252,-4.1439,-4.1246,-4.1014,-4.0132,-3.9949,-3.9908,-3.9908,-3.975,-3.96,-3.9614,-3.9388,-3.921,-3.921,-3.9252,-3.907,-3.834,-3.8438,-3.828,-3.7441,-3.7354,-3.7392,-3.7334,-3.7354,-3.7791,-3.8722,-3.881,-3.8633,-3.8212,-3.8212,-3.8377,-3.8772,-3.8808,-3.9165,-3.9896,-4.0045,-4.0045,-3.9914,-4.0123,-4.0179,-4.0101,-4.0179,-4.0218,-2.469,-2.5727,-2.6265,-2.6061,-2.482,-2.3051,-2.0696,0.0,-1.6778,-1.4607,-1.4005,-1.3888,-1.3888,-1.392,-1.4435,-1.5967,-1.6302,-1.6941,-1.8651,-2.0448,0.0,-2.3532,-2.6711,0.0,0.0,0.0,0.0,0.0,0.0,0.0,0.0,-3.5277,-3.5277,-3.5226,-3.5445,-3.5574,-3.5604,-3.6615,-3.7188,-3.7264,-3.7509,-3.7928,-3.8457,-3.7265,0.0,0.0,0.0,0.0,0.0,-3.6876,-3.6964,-3.745,-3.6867,-3.7269,-3.8117,-3.7452,-3.7456,-3.7755,-3.7421,-3.7209,-3.7274,-3.8399,-3.8625,-3.8766,-4.0272,-4.1533,-4.2463,-4.242,-4.2393,-4.2344,-4.2079,-4.162,-4.112,-4.0843,-4.0176,-3.963,-3.9639,-3.9406,-3.9223,-3.9314,-3.9258,-3.9165,-3.9073,-3.8902,-3.8638,-3.8267,-3.7954,-3.7676,-3.739,-3.7372,-3.7334,-3.7354,-3.7392,-3.7504,-3.7826,-3.7929,-3.7913,-3.7792,-3.7792,-3.7864,-3.7951,-3.8025,-3.8168,-3.8401,-3.9066,-3.9389,-3.9335,-3.9929,-3.9948,-3.9499,-3.9242,-3.903,-2.2593,-2.3989,-2.4672,-2.4265,-2.2813,-2.1098,-1.9481,-1.7455,-1.5566,-1.4275,-1.3845,-1.3724,-1.3724,-1.3781,-1.4293,-1.5708,-1.6066,-1.67,-1.8402,-2.0134,0.0,-2.3842,0.0,0.0,0.0,0.0,0.0,0.0,0.0,0.0,0.0,-3.5304,-3.5315,-3.5285,-3.5488,-3.5629,-3.5681,-3.6359,-3.6739,-3.678,-3.6738,-3.6985,-3.7489,-3.6395,0.0,0.0,0.0,0.0,0.0,-3.6032,-3.6129,-3.6548,-3.5921,-3.6258,-3.7049,-3.6388,-3.6347,-3.6568,-3.6037,-3.5741,-3.5741,-3.6615,-3.72,-3.7809,-3.9112,-4.0426,-4.1497,-4.1499,-4.1521,-4.1521,-4.1483,-4.106,-4.0577,-4.0558,-3.9908,-3.9312,-3.9361,-3.9165,-3.8989,-3.9095,-3.8973,-3.8826,-3.873,-3.8442,-3.8168,-3.8032,-3.7721,-3.7466,-3.7466,-3.7447,-3.741,-3.7392,-3.7466,-3.7466,-3.7411,-3.754,-3.7577,-3.7577,-3.7577,-3.7577,-3.7577,-3.7649,-3.7667,-3.7667,-3.8259,-3.8564,-3.8528,-3.8865,-3.8829,-3.8456,-3.8028,-3.7724,0.0,-2.2997,-2.4634,-2.3767,-2.2281,-2.059,-1.8914,-1.6689,0.0,-1.3956,-1.368,-1.3575,-1.3626,-1.3885,-1.4357,-1.5171,-1.5674,-1.6751,-1.8952,-2.0221,0.0,0.0,-2.7703,0.0,0.0,0.0,0.0,0.0,0.0,0.0,0.0,-3.534,-3.5405,-3.5405,-3.5546,-3.5669,-3.5794,-3.588,-3.5933,-3.5994,-3.5927,-3.5923,-3.5986,-3.5922,0.0,0.0,0.0,0.0,0.0,-3.5791,-3.5782,-3.5754,-3.5568,-3.5461,-3.5425,-3.5258,-3.5066,-3.4889,-3.4926,-3.4791,-3.4733,-3.5719,-3.6961,-3.8186,-3.8771,-3.9403,-3.993,-3.9948,-3.9986,-4.0021,-3.9963,-3.9766,-3.9545,-3.9498,-3.9229,-3.9024,-3.9158,-3.903,-3.8894,-3.8933,-3.8611,-3.8307,-3.8274,-3.7933,-3.7667,-3.7667,-3.7559,-3.7503,-3.754,-3.754,-3.7503,-3.7411,-3.7503,-3.7503,-3.7392,-3.7503,-3.7577,-3.7577,-3.7577,-3.754,-3.754,-3.754,-3.754,-3.7577,-3.7631,-3.7631,-3.7577,-3.7223,-3.7132,-3.7212,-3.6654,-3.6452,-1.7153,0.0,-1.8324,-1.811,-1.7736,-1.7151,0.0,-1.536,-1.4619,-1.3806,-1.3412,-1.3376,-1.3889,-1.3507,-1.3796,-1.5862,-1.5876,-1.6626,-1.9492,-2.2744,-2.6006,-2.9101,0.0,0.0,0.0,0.0,0.0,0.0,0.0,0.0,0.0,-3.5388,-3.5502,-3.5554,-3.5687,-3.5775,-3.5801,-3.5911,-3.6289,-3.689,-3.6216,-3.6229,-3.6805,-3.6124,0.0,0.0,0.0,0.0,-3.5791,-3.5699,-3.5609,-3.5568,-3.5419,-3.522,-3.5045,-3.4996,-3.4851,-3.4649,-3.452,-3.4413,-3.4498,-3.5226,-3.6168,-3.7115,-3.7972,-3.8776,-3.94,-3.9392,-3.9414,-3.9414,-3.9385,-3.9283,-3.9157,-3.9243,-3.9017,-3.8818,-3.8939,-3.8716,-3.8519,-3.846,-3.8376,-3.8241,-3.8038,-3.7613,-3.7283,-3.7094,-3.6741,-3.658,-3.7034,-3.7073,-3.7226,-3.7595,-3.7374,-3.7223,-3.7185,-3.7411,-3.7577,-3.7577,-3.7243,-3.7073,-3.7073,-3.6821,-3.686,-3.7223,-3.7301,-3.7321,-3.7283,-3.6865,-3.6533,-3.6359,-3.5951,-3.5908,-1.4761,-1.5714,-1.6677,-1.6588,-1.6308,-1.5906,-1.5279,-1.4554,-1.3871,-1.3345,-1.3086,-1.3055,-1.3429,-1.3388,-1.3794,-1.5334,-1.6235,-1.7931,-2.1306,-2.4009,-2.6783,-2.9799,0.0,0.0,0.0,0.0,0.0,0.0,0.0,0.0,0.0,-3.5509,-3.5616,-3.5693,-3.5812,-3.5884,-3.5898,-3.5927,-3.6365,-3.7181,-3.669,-3.6678,-3.7085,-3.6612,-3.6187,0.0,0.0,0.0,-3.5708,-3.5523,-3.5432,-3.5387,-3.5189,-3.5028,-3.4888,-3.4793,-3.4691,-3.4561,-3.4363,-3.4245,-3.4272,-3.4903,-3.5718,-3.6588,-3.7329,-3.8167,-3.8887,-3.9164,-3.9213,-3.9183,-3.9159,-3.9028,-3.8864,-3.8917,-3.8707,-3.8548,-3.8651,-3.8528,-3.8423,-3.8368,-3.8119,-3.788,-3.7613,-3.7114,-3.6706,-3.6603,-3.6316,-3.6274,-3.6643,-3.6684,-3.6764,-3.7076,-3.69,-3.6741,-3.6701,-3.686,-3.6939,-3.6939,-3.6741,-3.6563,-3.6563,-3.6381,-3.644,-3.6661,-3.6706,-3.6786,-3.6825,-3.6323,-3.5968,-3.5701,-3.5278,-3.5111,-1.3214,-1.5212,-1.7134,-1.6553,-1.593,-1.5374,-1.5051,-1.3982,-1.2995,-1.2867,-1.2811,-1.2819,-1.3028,-1.346,-1.4053,-1.4782,-1.7291,0.0,-2.3736,-2.5263,-2.6928,-2.9368,0.0,0.0,0.0,0.0,0.0,0.0,0.0,0.0,0.0,-3.5647,-3.5745,-3.5794,-3.593,-3.599,-3.5991,-3.5937,-3.6406,-3.741,-3.7191,-3.721,-3.7452,-3.7307,-3.6832,0.0,0.0,0.0,-3.5736,-3.5545,-3.5383,-3.5205,-3.4961,-3.4851,-3.4832,-3.4628,-3.4539,-3.4517,-3.4293,-3.4067,-3.3999,-3.4509,-3.5375,-3.6326,-3.6696,-3.7533,-3.8451,-3.8993,-3.9124,-3.9055,-3.8994,-3.8818,-3.8627,-3.8605,-3.846,-3.8345,-3.8407,-3.8321,-3.8209,-3.8263,-3.7683,-3.7198,-3.7079,-3.6545,-3.6105,-3.6105,-3.6062,-3.6062,-3.6256,-3.6298,-3.634,-3.6381,-3.634,-3.6256,-3.613,-3.6062,-3.6002,-3.5977,-3.6062,-3.6062,-3.602,-3.6062,-3.6105,-3.6105,-3.6105,-3.6172,-3.6256,-3.5732,-3.5374,-3.5186,-3.4754,-3.4448,-1.3343,-1.5243,-1.6601,-1.4351,-1.3575,-1.3401,-1.3562,-1.3163,-1.2813,-1.2995,-1.2789,-1.2887,-1.4022,-1.3731,-1.407,-1.6404,0.0,-2.3972,0.0,0.0,-3.0888,0.0,0.0,0.0,0.0,0.0,0.0,0.0,0.0,0.0,0.0,-3.5688,-3.5793,-3.5799,-3.5876,-3.5934,-3.5991,-3.5981,-3.6761,-3.8288,-3.7434,-3.7757,-3.9088,-3.8252,-3.7797,0.0,0.0,-3.7172,-3.6444,-3.6297,-3.573,-3.4943,-3.4792,-3.4689,-3.4607,-3.4409,-3.434,-3.4293,-3.3921,-3.3661,-3.3517,-3.3586,-3.4691,-3.6,-3.6115,-3.708,-3.8186,-3.8398,-3.8492,-3.853,-3.8501,-3.8475,-3.8463,-3.8495,-3.8411,-3.8355,-3.8596,-3.7772,-3.7102,-3.756,-3.6753,-3.6054,-3.6301,-3.5977,-3.5705,-3.5705,-3.5362,-3.5224,-3.5661,-3.5759,-3.5959,-3.634,-3.6028,-3.5786,-3.5786,-3.5345,-3.5055,-3.4961,-3.5391,-3.5526,-3.5102,-3.5481,-3.5705,-3.5705,-3.5705,-3.5705,-3.5749,-3.5241,-3.4866,-3.461,-3.4643,-3.4546,-1.2887,-1.3765,-1.4718,-1.5158,-1.6248,-1.7256,-1.7372,-1.7216,-1.6659,-1.5302,-1.4934,-1.4757,-1.453,-1.5009,-1.6898,-2.1371,0.0,-2.5647,0.0,0.0,0.0,0.0,0.0,0.0,0.0,0.0,0.0,0.0,0.0,0.0,0.0,0.0,-3.5845,-3.5851,-3.5923,-3.5947,-3.5957,-3.5842,-3.6405,-3.7637,-3.7617,-3.797,-3.8633,-3.8642,-3.8416,-3.7987,0.0,-3.7504,-3.6897,-3.6747,-3.6007,-3.4927,-3.484,-3.4569,-3.4221,-3.4173,-3.403,-3.3902,-3.3752,-3.3524,-3.334,-3.3382,-3.4154,-3.5005,-3.4903,-3.582,-3.688,-3.6777,-3.7416,-3.814,-3.8125,-3.8132,-3.814,-3.8167,-3.7972,-3.7811,-3.7934,-3.7345,-3.6787,-3.6932,-3.6295,-3.5766,-3.5882,-3.5526,-3.5241,-3.5241,-3.5024,-3.4994,-3.5195,-3.527,-3.5345,-3.5554,-3.5391,-3.5253,-3.5253,-3.5055,-3.4851,-3.4707,-3.4961,-3.5008,-3.4691,-3.5008,-3.5241,-3.5241,-3.5287,-3.5396,-3.5441,-3.5228,-3.4899,-3.4497,-3.4691,-3.4643,-1.2535,-1.2859,-1.3763,-1.6255,-1.7753,-1.9055,-2.0666,-2.0019,-1.8865,-1.7946,-1.7613,-1.7056,-1.5738,-1.6993,-1.9774,-2.4653,-2.6117,0.0,0.0,0.0,0.0,0.0,0.0,0.0,0.0,0.0,0.0,0.0,0.0,0.0,0.0,0.0,-3.5919,-3.5894,-3.5924,-3.5892,-3.5833,-3.5654,-3.6002,-3.692,-3.7665,-3.8059,-3.8193,-3.9029,-3.9051,-3.8402,-3.8265,-3.787,-3.7329,-3.7154,-3.6389,-3.5257,-3.5018,-3.4513,-3.3842,-3.3895,-3.3788,-3.3559,-3.3626,-3.3467,-3.3212,-3.3244,-3.3669,-3.41,-3.3849,-3.4706,-3.5753,-3.546,-3.6433,-3.7506,-3.7591,-3.7631,-3.7646,-3.7648,-3.739,-3.7129,-3.7175,-3.6716,-3.6347,-3.6336,-3.5814,-3.5406,-3.5402,-3.5148,-3.4899,-3.4899,-3.4899,-3.4899,-3.4899,-3.4899,-3.4899,-3.4899,-3.4899,-3.4899,-3.4947,-3.4947,-3.4899,-3.4804,-3.4739,-3.4643,-3.4497,-3.4691,-3.4851,-3.4899,-3.4947,-3.5041,-3.5198,-3.5198,-3.4994,-3.4594,-3.4899,-3.4851,-1.2652,-1.3925,-1.5329,-1.6292,-1.4209,-1.3567,-1.9929,-1.7757,-1.5628,-2.0058,-2.0114,-1.9216,-1.8609,-1.9789,-2.1275,-2.2712,-2.6385,0.0,0.0,0.0,0.0,0.0,0.0,0.0,0.0,0.0,0.0,0.0,0.0,0.0,0.0,0.0,0.0,-3.5894,-3.5775,-3.5682,-3.562,-3.5483,-3.5907,-3.6914,-3.7463,-3.8142,-3.8946,-3.97,-3.9903,-3.9659,-3.9659,-3.8917,-3.7761,-3.7734,-3.7063,-3.5962,-3.5331,-3.4504,-3.3726,-3.3726,-3.3605,-3.3422,-3.3411,-3.3247,-3.3004,-3.2884,-3.3199,-3.3632,-3.3466,-3.4374,-3.5421,-3.5403,-3.584,-3.6395,-3.6726,-3.6827,-3.6878,-3.6897,-3.6713,-3.6599,-3.6821,-3.5828,-3.5095,-3.5745,-3.4979,-3.4392,-3.4861,-3.4947,-3.4899,-3.4899,-3.4899,-3.4899,-3.4899,-3.4899,-3.4899,-3.4899,-3.4899,-3.4947,-3.5105,-3.5105,-3.5088,-3.5088,-3.4851,-3.4643,-3.4497,-3.4497,-3.4643,-3.4899,-3.4643,-3.4691,-3.4947,-3.4947,-3.4899,-3.4899,-3.5291,-3.5291,-1.1617,-1.3534,-1.5628,-1.5718,-1.4475,-1.4708,-2.0495,-2.0767,-2.021,-2.1676,-2.229,-2.2144,-2.0742,-2.3314,-2.5622,-2.5516,0.0,0.0,0.0,0.0,0.0,0.0,0.0,0.0,0.0,0.0,0.0,0.0,0.0,0.0,0.0,0.0,0.0,-3.5896,-3.5773,-3.5678,-3.5657,-3.5451,-3.5523,-3.5916,-3.7172,-3.7881,-3.8118,-3.9309,-3.9826,-3.9804,-3.9623,-3.9048,-3.8243,-3.8243,-3.7223,-3.5539,-3.4425,-3.3764,-3.3452,-3.3509,-3.3481,-3.3411,-3.3433,-3.325,-3.2998,-3.2991,-3.2806,-3.2529,-3.2314,-3.272,-3.3199,-3.3059,-3.3495,-3.4402,-3.5963,-3.6414,-3.6422,-3.641,-3.6188,-3.5966,-3.6061,-3.5436,-3.4935,-3.5295,-3.5023,-3.4801,-3.5102,-3.5152,-3.5152,-3.5152,-3.5152,-3.5152,-3.5152,-3.5152,-3.5152,-3.5152,-3.5152,-3.5152,-3.5198,-3.4899,-3.4691,-3.4594,-3.4643,-3.4643,-3.4497,-3.4497,-3.4546,-3.4643,-3.4643,-3.4707,-3.4899,-3.4899,-3.4787,-3.4643,-3.4994,-3.5088,-1.1311,-1.2792,-1.4641,-1.5079,-1.4614,-1.5315,-2.0277,-2.1321,-2.1771,-2.3756,-2.4449,-2.4414,-2.349,-2.5779,0.0,0.0,0.0,0.0,0.0,0.0,0.0,0.0,0.0,0.0,0.0,0.0,0.0,0.0,0.0,0.0,0.0,0.0,0.0,0.0,-3.5737,-3.5635,-3.5604,-3.5388,-3.5356,-3.5503,-3.695,-3.7566,-3.7446,-3.8916,-3.9556,-3.9551,-3.9324,-3.8952,-3.8418,-3.8387,-3.7268,-3.5489,-3.4282,-3.3602,-3.3319,-3.3113,-3.305,-3.3075,-3.3093,-3.2902,-3.2666,-3.2634,-3.2179,-3.1576,-3.1381,-3.1562,-3.1856,-3.1715,-3.222,-3.3152,-3.4762,-3.5165,-3.5228,-3.5438,-3.5304,-3.5133,-3.5402,-3.5211,-3.4994,-3.5152,-3.5152,-3.5198,-3.5291,-3.5291,-3.5291,-3.5291,-3.5152,-3.5105,-3.5291,-3.5152,-3.5088,-3.5291,-3.5337,-3.5291,-3.5135,-3.493,-3.4675,-3.4218,-3.4497,-3.4497,-3.425,-3.4399,-3.4497,-3.4497,-3.4497,-3.448,-3.4513,-3.4513,-3.4415,-3.4317,-3.4561,-3.4771,-1.1954,-1.182,-1.2363,-1.4457,-1.4127,-1.4457,-1.8887,-1.8183,-1.8688,-2.6302,-2.6564,-2.5794,-2.7061,-2.6837,0.0,0.0,0.0,0.0,0.0,0.0,0.0,0.0,0.0,0.0,0.0,0.0,0.0,0.0,0.0,0.0,0.0,0.0,0.0,0.0,-3.5637,-3.5465,-3.5391,-3.5258,-3.5438,-3.5899,-3.6835,-3.727,-3.7254,-3.8652,-3.9192,-3.8989,-3.8921,-3.867,-3.8256,-3.8052,-3.7238,-3.6003,-3.519,-3.4288,-3.3318,-3.2564,-3.2313,-3.2305,-3.2281,-3.2123,-3.1867,-3.1664,-3.1319,-3.0965,-3.0735,-3.1227,-3.1792,-3.1792,-3.2378,-3.2974,-3.2992,-3.2899,-3.304,-3.3785,-3.3985,-3.4163,-3.4888,-3.5071,-3.5118,-3.5274,-3.5274,-3.5274,-3.5274,-3.5274,-3.5274,-3.5291,-3.4835,-3.4691,-3.5245,-3.4851,-3.4691,-3.5245,-3.5446,-3.5291,-3.4756,-3.5241,-3.5131,-3.4086,-3.4317,-3.425,-3.3694,-3.4201,-3.4497,-3.4497,-3.425,-3.3901,-3.3582,-3.3582,-3.3633,-3.3786,-3.4087,-3.4529,-1.0193,-1.3121,-1.6144,-1.4117,-1.7062,-2.0543,-2.0956,-1.987,-2.038,-2.5897,-2.7045,-2.7046,-2.7114,-2.8706,0.0,0.0,0.0,0.0,0.0,0.0,0.0,0.0,0.0,0.0,0.0,0.0,0.0,0.0,0.0,0.0,0.0,0.0,0.0,0.0,-3.5593,-3.5474,-3.5407,-3.507,-3.4945,-3.4994,-3.6176,-3.7137,-3.7858,-3.876,-3.9129,-3.9045,-3.8755,-3.8496,-3.8219,-3.7182,-3.6324,-3.5668,-3.4918,-3.4108,-3.3371,-3.3143,-3.2769,-3.2323,-3.2458,-3.2284,-3.1969,-3.1917,-3.1548,-3.1107,-3.095,-3.0977,-3.1041,-3.116,-3.1325,-3.1472,-3.1153,-3.1078,-3.1368,-3.2521,-3.2797,-3.2767,-3.2657,-3.2894,-3.3172,-3.3309,-3.3612,-3.3745,-3.3506,-3.3877,-3.4071,-3.3742,-3.3925,-3.435,-3.4897,-3.5148,-3.5333,-3.5487,-3.5321,-3.5152,-3.4994,-3.4529,-3.4134,-3.3832,-3.3764,-3.3713,-3.3694,-3.3642,-3.3523,-3.3319,-3.323,-3.3108,-3.2895,-3.2895,-3.3002,-3.3093,-3.3198,-3.3407,-1.1694,-1.4445,-1.7322,-1.6693,-1.9053,-2.1537,-2.1542,-2.2289,-2.3941,-2.7173,-2.8152,-2.8537,-2.8962,0.0,0.0,0.0,0.0,0.0,0.0,0.0,0.0,0.0,0.0,0.0,0.0,0.0,0.0,0.0,0.0,0.0,0.0,0.0,0.0,0.0,-3.5419,-3.5281,-3.5168,-3.4926,-3.4804,-3.4764,-3.5795,-3.6628,-3.7371,-3.8438,-3.8844,-3.8688,-3.8314,-3.8086,-3.7844,-3.6841,-3.6176,-3.5682,-3.4662,-3.3904,-3.3339,-3.2746,-3.2246,-3.1916,-3.205,-3.1946,-3.1722,-3.1705,-3.1453,-3.1083,-3.098,-3.0881,-3.0855,-3.092,-3.0828,-3.0692,-3.0432,-3.0251,-3.0363,-3.1394,-3.1681,-3.1697,-3.1661,-3.1898,-3.2131,-3.2285,-3.2512,-3.2663,-3.2467,-3.2784,-3.2924,-3.2658,-3.3161,-3.3712,-3.3971,-3.4642,-3.5102,-3.5102,-3.493,-3.4804,-3.4546,-3.4201,-3.3848,-3.3398,-3.3471,-3.3471,-3.3398,-3.3503,-3.3435,-3.314,-3.3087,-3.2926,-3.2586,-3.2547,-3.2547,-3.2641,-3.2641,-3.2788,-1.4809,-1.5654,-1.6986,-2.0721,-2.0474,-1.9803,-2.1574,-2.5197,-2.8366,-2.9171,0.0,-2.9878,-3.1686,0.0,0.0,0.0,0.0,0.0,0.0,0.0,0.0,0.0,0.0,0.0,0.0,0.0,0.0,0.0,0.0,0.0,0.0,0.0,0.0,0.0,-3.5178,-3.498,-3.4794,-3.4791,-3.4809,0.0,-3.559,-3.5959,-3.6096,-3.7802,-3.8368,-3.7982,-3.7756,-3.7504,-3.7264,-3.6917,-3.6481,-3.5899,-3.4586,-3.3802,-3.3313,-3.1854,-3.1343,-3.1331,-3.1241,-3.1223,-3.1202,-3.1116,-3.0982,-3.0886,-3.0816,-3.0824,-3.0885,-3.0902,-3.0667,-3.0451,-3.0385,-3.008,-2.9888,-3.0386,-3.0559,-3.0744,-3.1404,-3.1549,-3.1643,-3.1767,-3.183,-3.1813,-3.1767,-3.1769,-3.1834,-3.1804,-3.2418,-3.2848,-3.2723,-3.3614,-3.4234,-3.4234,-3.4284,-3.4184,-3.3694,-3.4034,-3.3899,-3.2951,-3.3293,-3.3398,-3.2951,-3.3503,-3.3745,-3.3591,-3.3435,-3.3102,-3.2547,-3.2382,-3.2342,-3.2342,-3.2342,-3.2492,-1.2756,-1.5995,-1.9848,-1.987,-2.2344,-2.4828,-2.4881,-2.7444,-2.9316,-2.7736,-2.7833,0.0,0.0,0.0,0.0,0.0,0.0,0.0,0.0,0.0,0.0,0.0,0.0,0.0,0.0,0.0,0.0,0.0,0.0,0.0,0.0,0.0,0.0,-3.5098,-3.4942,-3.4832,-3.4734,-3.4766,-3.4465,0.0,-3.5393,-3.5687,-3.4916,-3.6773,-3.7542,-3.7377,-3.7228,-3.696,-3.662,-3.647,-3.6113,-3.5671,-3.5176,-3.4549,-3.3821,-3.2754,-3.2026,-3.1433,-3.0751,-3.0521,-3.0452,-3.0207,-3.0082,-3.0051,-3.0022,-2.9972,-2.9956,-3.0145,-3.0092,-2.9897,-2.9639,-2.9466,-2.9354,-2.9234,-2.939,-2.9559,-2.9454,-2.975,-3.0009,-3.0055,-3.0324,-3.0412,-2.9964,-3.0226,-3.0512,-3.0412,-3.1475,-3.2167,-3.2029,-3.3109,-3.3869,-3.3767,-3.3511,-3.3266,-3.3161,-3.2964,-3.2888,-3.2897,-3.2648,-3.2742,-3.3203,-3.315,-3.2973,-3.2672,-3.2672,-3.2508,-3.2302,-3.2007,-3.191,-3.2094,-3.1811,-3.1739,-1.3818,-1.6451,-1.9126,-2.0142,-2.3187,-2.5743,-2.5061,-2.6607,-2.8244,-2.823,-2.8921,0.0,0.0,0.0,0.0,0.0,0.0,0.0,0.0,0.0,0.0,0.0,0.0,0.0,0.0,0.0,0.0,0.0,0.0,0.0,0.0,-3.5215,-3.4946,-3.5222,-3.476,-3.442,-3.4184,-3.4594,-3.4426,-3.3671,-3.4977,-3.5278,-3.4703,-3.6396,-3.7208,-3.7283,-3.6939,-3.658,-3.6249,-3.5891,-3.5436,-3.4841,-3.3979,-3.3326,-3.2725,-3.1531,-3.0924,-3.064,-3.0153,-3.0061,-3.0084,-2.9959,-2.9901,-2.9917,-2.9966,-2.9944,-2.9938,-3.008,-2.9902,-2.9539,-2.9108,-2.881,-2.8559,-2.8189,-2.859,-2.9014,-2.8842,-2.9014,-2.9183,-2.9183,-2.935,-2.9457,-2.9091,-2.9281,-2.9463,-2.9474,-3.0562,-3.1311,-3.1198,-3.2298,-3.3093,-3.2933,-3.2788,-3.2695,-3.2695,-3.2547,-3.2508,-3.2742,-3.2523,-3.2633,-3.3096,-3.2951,-3.2881,-3.285,-3.2742,-3.2703,-3.2648,-3.2373,-3.2262,-3.2302,-3.1966,-3.1868,-1.4917,-1.6448,-1.7664,-2.1153,-2.3536,-2.4808,-2.4019,-2.5168,-2.6882,-2.8838,0.0,0.0,0.0,0.0,0.0,0.0,0.0,0.0,0.0,0.0,0.0,0.0,0.0,0.0,0.0,0.0,0.0,0.0,0.0,0.0,-3.6159,-3.4964,-3.4596,-3.5367,-3.4563,-3.3976,-3.3731,-3.447,-3.4483,-3.3863,-3.4523,-3.4854,-3.4927,-3.6079,-3.6701,-3.6921,-3.6498,-3.6182,-3.5873,-3.5362,-3.4818,-3.4175,-3.2763,-3.2095,-3.1678,-3.0331,-2.9863,-2.9886,-2.9717,-2.9717,-2.9765,-2.971,-2.9701,-2.9706,-2.9706,-2.9687,-2.9678,-2.9814,-2.943,-2.8966,-2.8685,-2.8143,-2.765,-2.7449,-2.7993,-2.8589,-2.8589,-2.8636,-2.8732,-2.8732,-2.8684,-2.8636,-2.8477,-2.8429,-2.8403,-2.8366,-2.934,-3.0129,-3.0182,-3.1177,-3.1911,-3.1936,-3.1921,-3.1905,-3.1905,-3.1905,-3.2018,-3.2351,-3.2296,-3.2437,-3.2718,-3.2664,-3.2703,-3.2888,-3.3027,-3.3096,-3.315,-3.3005,-3.2827,-3.2656,-3.2231,-3.2079,-1.196,-1.4963,-1.9007,-2.268,-2.3652,-2.3757,-2.3728,-2.5818,-2.7585,0.0,0.0,0.0,0.0,0.0,0.0,0.0,0.0,0.0,0.0,0.0,0.0,0.0,0.0,0.0,0.0,0.0,0.0,0.0,0.0,0.0,-3.5725,-3.4464,-3.4109,-3.4945,-3.4138,-3.3868,-3.4286,-3.4748,-3.4659,-3.4057,-3.416,-3.4566,-3.5115,-3.4971,-3.5001,-3.5174,-3.5131,-3.5191,-3.5227,-3.5018,-3.4801,-3.4547,-3.3874,-3.3516,-3.3158,-3.1863,-3.1115,-3.0608,-2.9751,-2.936,-2.9113,-2.8345,-2.8243,-2.8284,-2.784,-2.7619,-2.7652,-2.8225,-2.774,-2.7232,-2.8012,-2.7615,-2.7159,-2.7565,-2.773,-2.7845,-2.768,-2.8012,-2.8367,-2.8367,-2.8271,-2.7929,-2.7093,-2.6864,-2.6683,-2.6275,-2.7212,-2.8177,-2.9042,-2.9519,-3.0075,-3.0896,-3.0315,-2.986,-2.986,-2.986,-3.0346,-3.1289,-3.116,-3.1334,-3.2018,-3.1807,-3.1522,-3.1217,-3.2437,-3.315,-3.3256,-3.3005,-3.2897,-3.2843,-3.2007,-3.1422,-1.251,-1.5588,-1.8946,-2.2556,-2.3317,-2.3663,-2.5302,-2.6858,-2.8356,0.0,0.0,0.0,0.0,0.0,0.0,0.0,0.0,0.0,0.0,0.0,0.0,0.0,0.0,0.0,0.0,0.0,0.0,0.0,0.0,0.0,-3.591,-3.4181,-3.3737,-3.5015,-3.4173,-3.3301,-3.2564,-3.4281,-3.4789,-3.4029,-3.4044,-3.3958,-3.3853,-3.37,-3.4103,-3.5021,-3.4833,-3.4816,-3.4971,-3.4678,-3.4129,-3.3421,-3.2724,-3.1967,-3.1092,-3.037,-2.9937,-2.9654,-2.8814,-2.8693,-2.875,-2.8002,-2.7852,-2.7891,-2.7697,-2.7604,-2.7619,-2.7905,-2.766,-2.7261,-2.721,-2.6953,-2.6602,-2.6375,-2.6404,-2.6457,-2.6404,-2.721,-2.7913,-2.775,-2.7635,-2.7384,-2.6842,-2.6805,-2.6625,-2.6094,-2.7262,-2.8103,-2.7794,-2.8841,-2.9633,-2.9508,-2.9342,-2.9302,-2.9362,-2.9302,-2.9625,-3.0392,-3.0375,-3.0555,-3.0925,-3.0911,-3.0925,-3.0763,-3.189,-3.2477,-3.2532,-3.2757,-3.2951,-3.3005,-3.2048,-3.1637,-1.2414,-1.4809,-1.7056,-2.1413,-2.2322,-2.2987,-2.6334,0.0,0.0,0.0,0.0,0.0,0.0,0.0,0.0,0.0,0.0,0.0,0.0,0.0,0.0,0.0,0.0,0.0,0.0,0.0,0.0,0.0,0.0,0.0,-3.5333,-3.3655,-3.3222,-3.4587,-3.3618,-3.2522,-3.1314,-3.3383,-3.413,-3.3645,-3.3595,-3.3351,-3.2857,-3.2803,-3.3459,-3.469,-3.4382,-3.4333,-3.4348,-3.4039,-3.3386,-3.2462,-3.1841,-3.0949,-2.9983,-2.9501,-2.9251,-2.9053,-2.8354,-2.8352,-2.848,-2.7682,-2.7424,-2.7407,-2.7321,-2.713,-2.7066,-2.756,-2.7294,-2.6799,-2.6611,-2.6336,-2.5974,-2.5439,-2.5411,-2.5592,-2.5702,-2.6563,-2.7276,-2.7093,-2.699,-2.6753,-2.6357,-2.6424,-2.6332,-2.5809,-2.686,-2.7484,-2.6849,-2.7959,-2.8714,-2.8355,-2.8452,-2.8545,-2.8722,-2.8641,-2.8862,-2.9497,-2.9742,-2.9875,-3.0043,-3.0194,-3.0194,-3.0194,-3.0881,-3.1405,-3.1649,-3.216,-3.2453,-3.2492,-3.1607,-3.1261,-0.9658,-1.0712,-1.2635,-1.9179,-2.026,-2.0915,0.0,0.0,0.0,0.0,0.0,0.0,0.0,0.0,0.0,0.0,0.0,0.0,0.0,0.0,0.0,0.0,0.0,0.0,0.0,0.0,0.0,0.0,0.0,0.0,-3.323,-3.2564,-3.2421,-3.3,-3.1998,-3.1567,-3.185,-3.1954,-3.2208,-3.264,-3.2469,-3.2593,-3.298,-3.2711,-3.2888,-3.3398,-3.3375,-3.3176,-3.291,-3.2917,-3.2757,-3.2552,-3.2302,-3.2053,-3.1855,-3.1069,-3.0385,-2.9761,-2.9231,-2.8713,-2.8132,-2.6852,-2.6465,-2.6353,-2.5747,-2.5012,-2.4755,-2.6616,-2.584,-2.4815,-2.6309,-2.5892,-2.5174,-2.5564,-2.5674,-2.577,-2.619,-2.6336,-2.639,-2.6336,-2.6336,-2.6014,-2.5048,-2.4878,-2.4821,-2.4452,-2.4563,-2.5179,-2.6454,-2.6406,-2.6726,-2.7795,-2.7262,-2.6917,-2.7189,-2.729,-2.7754,-2.8768,-2.9147,-2.9421,-2.9504,-2.9566,-2.9282,-2.8716,-2.9345,-3.0029,-3.0984,-3.0984,-3.0911,-3.0793,-3.0165,-2.9628,-1.0129,-1.0808,-1.1878,-1.6727,-1.8776,-2.0697,-2.4746,-2.747,0.0,0.0,0.0,0.0,0.0,0.0,0.0,0.0,0.0,0.0,0.0,0.0,0.0,0.0,0.0,0.0,0.0,0.0,0.0,0.0,0.0,0.0,-3.2419,-3.1528,-3.1371,-3.2188,-3.1674,-3.1513,-3.1831,-3.0942,-3.0828,-3.1439,-3.1793,-3.1998,-3.1997,-3.2213,-3.2523,-3.2866,-3.285,-3.3071,-3.336,-3.3102,-3.2779,-3.2367,-3.2269,-3.1738,-3.1087,-3.109,-3.0618,-2.9941,-2.9273,-2.8763,-2.8268,-2.7229,-2.6583,-2.6109,-2.5857,-2.5582,-2.5481,-2.6199,-2.6153,-2.5987,-2.6332,-2.5974,-2.5397,-2.5286,-2.523,-2.5272,-2.5425,-2.5701,-2.5934,-2.5934,-2.5756,-2.5439,-2.5005,-2.5005,-2.4948,-2.465,-2.5145,-2.5493,-2.5431,-2.5923,-2.6389,-2.6726,-2.6745,-2.7006,-2.7571,-2.7569,-2.7741,-2.8348,-2.8552,-2.8739,-2.8944,-2.8944,-2.8881,-2.8716,-2.8894,-2.9282,-2.9983,-3.0421,-3.0659,-3.0704,-3.0072,-2.9718,-0.9096,-0.952,-1.0216,-1.3889,-1.6098,-1.8597,-2.3446,0.0,0.0,0.0,0.0,0.0,0.0,0.0,0.0,0.0,0.0,0.0,0.0,0.0,0.0,0.0,0.0,0.0,0.0,0.0,0.0,0.0,0.0,0.0,-3.0711,-3.034,-3.0314,-3.0751,-3.053,-3.0348,-3.0207,-2.941,-2.93,-2.9925,-3.0406,-3.0777,-3.0995,-3.149,-3.1977,-3.2342,-3.2097,-3.2423,-3.3083,-3.2598,-3.2228,-3.2,-3.1554,-3.1087,-3.0644,-3.0574,-3.0235,-2.9704,-2.891,-2.8373,-2.7869,-2.7167,-2.6272,-2.5575,-2.5929,-2.5748,-2.556,-2.6199,-2.6374,-2.6385,-2.6347,-2.5765,-2.5039,-2.4412,-2.4243,-2.4283,-2.4425,-2.4978,-2.5508,-2.5508,-2.5342,-2.5174,-2.5061,-2.5118,-2.5118,-2.4948,-2.5401,-2.5567,-2.5073,-2.5581,-2.6022,-2.6031,-2.6425,-2.7033,-2.7658,-2.7783,-2.7993,-2.8248,-2.8451,-2.8638,-2.878,-2.878,-2.878,-2.8908,-2.878,-2.8958,-2.9345,-2.967,-2.9903,-2.986,-2.947,-2.9296,0.0,0.0,0.0,-1.0735,0.0,0.0,-2.1517,0.0,0.0,0.0,0.0,0.0,0.0,0.0,0.0,0.0,0.0,0.0,0.0,0.0,0.0,0.0,0.0,0.0,0.0,0.0,0.0,0.0,0.0,-2.8221,-2.7972,-2.8902,-2.9223,-2.8685,-2.8559,-2.8012,-2.7122,-2.7321,-2.7632,-2.8051,-2.8284,-2.8981,-3.0098,-3.0548,-3.1132,-3.1819,-3.1071,-3.1217,-3.1911,-3.1229,-3.1143,-3.1309,-3.0148,-3.0192,-3.083,-2.9654,-2.9163,-2.9071,-2.8267,-2.752,-2.6794,-2.648,-2.5512,-2.4648,-2.564,-2.5142,-2.4647,-2.6579,-2.644,-2.5733,-2.6299,-2.5322,-2.3959,-2.3054,-2.2827,-2.2898,-2.3259,-2.415,-2.5005,-2.5174,-2.5174,-2.5174,-2.5203,-2.5203,-2.5147,-2.5119,-2.5077,-2.5104,-2.5411,-2.5425,-2.5536,-2.5853,-2.6358,-2.6792,-2.727,-2.7883,-2.8338,-2.8615,-2.8941,-2.9099,-2.9099,-2.9099,-2.9099,-2.9099,-2.9099,-2.9099,-2.9099,-2.878,-2.8509,-2.8287,-2.8287,-2.8235,-0.6201,0.0,0.0,0.0,0.0,0.0,0.0,0.0,0.0,0.0,0.0,0.0,0.0,0.0,0.0,0.0,0.0,0.0,0.0,0.0,0.0,0.0,0.0,0.0,0.0,0.0,0.0,0.0,-2.7716,-2.7783,-2.7635,-2.7966,-2.8176,-2.8094,-2.7913,-2.763,-2.7321,-2.7255,-2.7328,-2.7697,-2.8062,-2.8675,-2.9444,-2.9584,-2.9985,-3.0597,-3.0245,-3.0216,-3.0374,-2.9718,-2.9672,-2.9812,-2.903,-2.9145,-2.9704,-2.9416,-2.8941,-2.8523,-2.8291,-2.7283,-2.6063,-2.5992,-2.5202,-2.4365,-2.4738,-2.485,-2.4963,-2.5408,-2.5997,-2.6323,-2.5728,-2.4786,-2.3971,-2.3625,-2.3451,-2.3385,-2.3479,-2.3623,-2.3962,-2.4711,-2.4681,-2.463,-2.4764,-2.4641,-2.4436,-2.3998,-2.4407,-2.4695,-2.4641,-2.5136,-2.5633,-2.6004,-2.6655,-2.7339,-2.7889,-2.8518,-2.8913,-2.8962,-2.9066,-2.9162,-2.9289,-2.9162,-2.9162,-2.9289,-2.9162,-2.9099,-2.9099,-2.9035,-2.8908,-2.8894,-2.8894,-2.883,-0.5984,-0.6218,-0.6462,-0.6467,0.0,0.0,0.0,-1.8988,0.0,0.0,0.0,0.0,0.0,0.0,0.0,0.0,0.0,0.0,0.0,0.0,0.0,0.0,0.0,0.0,0.0,0.0,0.0,0.0,-2.5792,-2.6032,-2.668,-2.6498,-2.6718,-2.7449,-2.7063,-2.6846,-2.6751,-2.6587,-2.6558,-2.6666,-2.6565,-2.6897,-2.7542,-2.7909,-2.8268,-2.8726,-2.8827,-2.8813,-2.8669,-2.7641,-2.7983,-2.9014,-2.7812,-2.7826,-2.8426,-2.8036,-2.778,-2.7594,-2.7357,-2.6519,-2.563,-2.5617,-2.4953,-2.4158,-2.4573,-2.4805,-2.4887,-2.5035,-2.5516,-2.5741,-2.4652,-2.3966,-2.3438,-2.2997,-2.2644,-2.2502,-2.2832,-2.2552,-2.268,-2.3968,-2.3953,-2.3704,-2.3918,-2.373,-2.3514,-2.3425,-2.3763,-2.3996,-2.389,-2.4218,-2.4504,-2.4565,-2.5118,-2.5995,-2.7152,-2.7783,-2.847,-2.9261,-2.9008,-2.8931,-2.8994,-2.8443,-2.8366,-2.898,-2.8683,-2.876,-2.9289,-2.9162,-2.9099,-2.9099,-2.9099,-2.9099,-0.5697,-0.5822,-0.6053,-0.6249,0.0,0.0,-1.6581,-1.9381,0.0,0.0,0.0,0.0,0.0,0.0,0.0,0.0,0.0,0.0,0.0,0.0,0.0,0.0,0.0,0.0,0.0,0.0,-2.3548,-2.4015,-2.3568,-2.3884,-2.5383,-2.4924,-2.523,-2.6596,-2.6105,-2.5716,-2.5603,-2.5476,-2.5406,-2.5314,-2.4469,-2.4423,-2.5097,-2.571,-2.6171,-2.6505,-2.6877,-2.701,-2.6882,-2.5253,-2.6128,-2.8326,-2.6454,-2.6295,-2.7041,-2.6162,-2.6141,-2.6453,-2.5922,-2.5482,-2.5195,-2.5246,-2.458,-2.3936,-2.4794,-2.4738,-2.4567,-2.5175,-2.5036,-2.452,-2.3507,-2.3093,-2.2719,-2.194,-2.135,-2.1148,-2.1784,-2.1434,-2.1463,-2.3059,-2.3,-2.2706,-2.2868,-2.2567,-2.2445,-2.2893,-2.2986,-2.3078,-2.3092,-2.2989,-2.2818,-2.251,-2.2776,-2.3677,-2.5548,-2.6194,-2.7291,-2.8962,-2.8543,-2.8201,-2.8268,-2.7271,-2.7207,-2.8285,-2.7976,-2.8304,-2.9477,-2.9289,-2.9162,-2.9162,-2.9162,-2.9162,-0.5449,-0.5737,-0.5937,-0.5731,0.0,0.0,-0.8636,-1.0009,0.0,0.0,0.0,0.0,0.0,0.0,0.0,0.0,0.0,0.0,0.0,0.0,0.0,0.0,0.0,0.0,0.0,0.0,-2.2816,-2.3564,-2.3894,-2.4259,-2.4678,-2.4579,-2.4633,-2.4953,-2.457,-2.4408,-2.4379,-2.4073,-2.3989,-2.4067,-2.3651,-2.379,-2.4359,-2.3919,-2.3923,-2.4313,-2.4217,-2.4598,-2.5122,-2.3857,-2.445,-2.5931,-2.4587,-2.4926,-2.6089,-2.5258,-2.5242,-2.5612,-2.5396,-2.4701,-2.3981,-2.4119,-2.3772,-2.3318,-2.3793,-2.4015,-2.4292,-2.4738,-2.4381,-2.3833,-2.3716,-2.3115,-2.2493,-2.2518,-2.225,-2.2116,-2.2137,-2.1916,-2.1732,-2.1803,-2.1813,-2.196,-2.224,-2.1658,-2.1131,-2.0823,-2.1225,-2.1511,-2.1537,-2.2021,-2.235,-2.2268,-2.29,-2.3458,-2.3851,-2.4832,-2.5595,-2.5955,-2.6272,-2.6549,-2.6804,-2.6738,-2.687,-2.7206,-2.7879,-2.8346,-2.8698,-2.9261,-2.9477,-2.9477,-2.9477,-2.9415,-0.5211,-0.553,0.0,-0.5454,0.0,0.0,0.0,0.0,0.0,0.0,0.0,0.0,0.0,0.0,0.0,0.0,0.0,0.0,0.0,0.0,0.0,0.0,0.0,0.0,0.0,0.0,-2.2311,-2.2693,-2.2698,-2.2824,-2.3308,-2.2623,-2.2552,-2.3154,-2.2903,-2.2833,-2.2917,-2.2964,-2.284,-2.2527,-2.1909,-2.1614,-2.162,-2.1455,-2.1568,-2.1897,-2.2443,-2.2934,-2.3346,-2.2822,-2.3125,-2.3961,-2.3238,-2.3695,-2.4715,-2.421,-2.43,-2.4642,-2.4622,-2.4315,-2.3832,-2.376,-2.3509,-2.3271,-2.3318,-2.3497,-2.3662,-2.3767,-2.3531,-2.3245,-2.3245,-2.2957,-2.2665,-2.2678,-2.2469,-2.2212,-2.1971,-2.1632,-2.1368,-2.1128,-2.0876,-2.0722,-2.0767,-2.022,-1.9756,-1.9797,-2.0076,-2.0305,-2.033,-2.0663,-2.0828,-2.0519,-2.0891,-2.15,-2.245,-2.2948,-2.369,-2.4629,-2.4892,-2.4948,-2.4963,-2.4931,-2.5199,-2.5722,-2.6755,-2.7432,-2.7683,-2.7894,-2.8519,-2.9477,-2.9275,-2.9149,0.0,0.0,0.0,0.0,0.0,-0.7153,0.0,0.0,0.0,0.0,0.0,0.0,0.0,0.0,0.0,0.0,0.0,0.0,0.0,0.0,0.0,0.0,0.0,0.0,0.0,0.0,-2.1424,-2.1869,-2.0842,-2.0688,-2.1736,-2.0653,-2.0458,-2.1463,-2.1284,-2.128,-2.1455,-2.1705,-2.1469,-2.082,-2.0026,-1.9393,-1.8829,-1.9117,-1.9336,-1.9541,-2.0708,-2.1388,-2.1569,-2.1608,-2.191,-2.2368,-2.2268,-2.2699,-2.3392,-2.314,-2.3233,-2.353,-2.3667,-2.3675,-2.3556,-2.3305,-2.3198,-2.3198,-2.3138,-2.3078,-2.3078,-2.2969,-2.2969,-2.2909,-2.2665,-2.2579,-2.253,-2.2396,-2.1994,-2.1543,-2.1296,-2.0947,-2.0632,-2.0401,-1.9802,-1.9397,-1.9424,-1.9041,-1.8774,-1.9081,-1.9194,-1.9295,-1.9368,-1.9356,-1.9198,-1.8786,-1.8798,-1.9455,-2.0969,-2.102,-2.1719,-2.3367,-2.3409,-2.3306,-2.3201,-2.3202,-2.3659,-2.4558,-2.5578,-2.6258,-2.6599,-2.6395,-2.7219,-2.9149,-2.8725,-2.8597,0.0,0.0,0.0,0.0,-0.5356,0.0,0.0,0.0,0.0,0.0,0.0,0.0,0.0,0.0,0.0,0.0,0.0,0.0,0.0,0.0,0.0,0.0,0.0,0.0,0.0,0.0,0.0,-2.1319,-1.8954,-1.8374,-2.0464,-2.0384,-2.0245,-2.032,-2.0105,-1.9933,-1.9879,-1.9564,-1.9333,-1.9239,-1.8649,-1.8352,-1.8267,-1.7862,-1.7696,-1.7764,-1.8512,-1.9228,-1.9835,-1.9857,-2.0575,-2.173,-2.1548,-2.21,-2.2788,-2.2076,-2.21,-2.244,-2.2371,-2.2113,-2.1865,-2.1865,-2.2125,-2.2567,-2.3005,-2.3078,-2.3078,-2.3078,-2.3078,-2.2944,-2.231,-2.1777,-2.1367,-2.1169,-2.0412,-1.9838,-2.0041,-1.9757,-1.9346,-1.8857,-1.8213,-1.814,-1.9362,-1.9291,-1.8834,-1.8317,-1.8506,-1.8632,-1.8522,-1.853,-1.8572,-1.8625,-1.8744,-1.8834,-1.8941,-1.9392,-1.9871,-2.0381,-2.095,-2.1525,-2.2078,-2.2914,-2.3815,-2.4755,-2.5169,-2.5438,-2.5648,-2.5995,-2.6815,-2.8117,-2.7776,-2.7855,0.0,0.0,0.0,0.0,0.0,0.0,-0.4787,0.0,-0.5676,0.0,0.0,0.0,0.0,0.0,0.0,0.0,0.0,0.0,0.0,0.0,0.0,0.0,0.0,0.0,0.0,0.0,0.0,0.0,0.0,-1.7302,-1.9412,-1.9104,-1.8526,-1.764,-1.7991,-1.8056,-1.7747,-1.7935,-1.7942,-1.7755,-1.7541,-1.712,-1.6428,-1.6228,-1.6377,-1.6792,-1.7084,-1.7619,-1.8258,-1.8431,-1.9034,-1.9818,-1.9938,-2.0734,-2.1799,-2.1539,-2.1631,-2.1808,-2.2013,-2.199,-2.1753,-2.1565,-2.1628,-2.1815,-2.1939,-2.1939,-2.1939,-2.1827,-2.1815,-2.1729,-2.1439,-2.1202,-2.0961,-2.0899,-2.046,-1.9924,-1.9553,-1.9256,-1.8861,-1.8178,-1.766,-1.7518,-1.798,-1.8103,-1.8091,-1.7998,-1.8366,-1.8588,-1.8541,-1.8518,-1.8572,-1.8679,-1.8679,-1.8679,-1.8614,-1.8998,-1.9295,-1.9448,-1.9975,-2.0682,-2.1563,-2.18,-2.2248,-2.2965,-2.3285,-2.3695,-2.3979,-2.4114,-2.4815,-2.6077,-2.6202,-2.6705,-0.2157,0.0,0.0,0.0,0.0,0.0,0.0,0.0,0.0,0.0,0.0,0.0,0.0,0.0,0.0,0.0,0.0,0.0,0.0,0.0,0.0,0.0,0.0,0.0,0.0,0.0,0.0,0.0,0.0,0.0,-1.8197,-1.773,-1.6937,-1.5743,-1.6166,-1.63,-1.6057,-1.6425,-1.6446,-1.6228,-1.6009,-1.5596,-1.484,-1.4768,-1.5119,-1.5879,-1.6093,-1.6473,-1.6917,-1.7225,-1.7591,-1.793,-1.8255,-1.9145,-2.0215,-2.0733,-2.0933,-2.1071,-2.1302,-2.1302,-2.1187,-2.0996,-2.0933,-2.0933,-2.0921,-2.0846,-2.0794,-2.0741,-2.0579,-2.0429,-2.0484,-2.0233,-2.0006,-2.0063,-1.9753,-1.9298,-1.8732,-1.848,-1.8195,-1.7316,-1.6973,-1.6785,-1.6738,-1.7013,-1.7309,-1.7423,-1.79,-1.8166,-1.8073,-1.8278,-1.8398,-1.8464,-1.8572,-1.8572,-1.8398,-1.8598,-1.8782,-1.8996,-1.9393,-2.0116,-2.1363,-2.113,-2.1215,-2.1779,-2.2072,-2.2391,-2.2663,-2.2564,-2.293,-2.3853,-2.4684,-2.5451,0.0,0.0,0.0,-0.343,0.0,0.0,0.0,0.0,-0.4498,0.0,0.0,0.0,0.0,0.0,0.0,0.0,0.0,0.0,0.0,0.0,0.0,0.0,0.0,0.0,0.0,0.0,0.0,0.0,0.0,0.0,-1.6566,-1.644,-1.6057,-1.551,-1.5183,-1.5029,-1.5251,-1.4879,-1.4585,-1.4371,-1.3803,-1.3665,-1.4042,-1.368,-1.3977,-1.4721,-1.5488,-1.5754,-1.5587,-1.6349,-1.6515,-1.6412,-1.6715,-1.7235,-1.793,-1.9183,-1.9834,-2.0074,-1.9813,-1.9539,-1.9407,-1.9573,-1.9628,-1.9748,-2.0171,-2.0224,-2.0084,-2.0289,-1.9955,-1.9498,-1.9354,-1.8747,-1.8076,-1.8093,-1.754,-1.7017,-1.7086,-1.7184,-1.7004,-1.6017,-1.5823,-1.5863,-1.6016,-1.6557,-1.6829,-1.6415,-1.6784,-1.7015,-1.669,-1.7401,-1.7799,-1.7579,-1.8302,-1.8572,-1.7952,-1.7774,-1.7969,-1.8764,-1.882,-1.9621,-2.1352,-2.123,-2.1475,-2.2389,-2.2205,-2.2079,-2.1962,-2.2001,-2.1857,-2.1502,-2.3094,-2.4409,0.0,0.0,0.7956,0.1634,0.0,0.0,0.0,0.0,0.0,0.0,0.0,0.0,0.0,0.0,0.0,0.0,0.0,0.0,0.0,0.0,0.0,0.0,0.0,0.0,0.0,0.0,0.0,0.0,0.0,0.0,0.0,-1.5587,-1.4706,-1.3262,-1.377,-1.355,-1.2451,-1.2891,-1.3035,-1.2891,-1.2732,-1.2698,-1.2879,-1.2739,-1.3032,-1.3702,-1.3985,-1.4266,-1.4625,-1.5015,-1.5221,-1.5401,-1.586,-1.6289,-1.6733,-1.8162,-1.8988,-1.9407,-1.9341,-1.9208,-1.9142,-1.9065,-1.8931,-1.8721,-1.8777,-1.8623,-1.8479,-1.8412,-1.8422,-1.8509,-1.8462,-1.8342,-1.8195,-1.8172,-1.7691,-1.7233,-1.737,-1.7076,-1.6772,-1.6646,-1.6403,-1.6191,-1.5984,-1.5932,-1.6018,-1.628,-1.6789,-1.7059,-1.6864,-1.7123,-1.7224,-1.6978,-1.7446,-1.7401,-1.6585,-1.6657,-1.6941,-1.7431,-1.7488,-1.8029,-1.922,-1.9106,-1.9401,-2.0342,-2.0518,-2.0541,-2.0482,-2.0715,-2.0874,-2.105,-2.1649,-2.2589,1.2889,1.3775,0.0,0.7232,0.7166,0.0,-0.007,0.0,0.0,0.0,0.0,0.0,0.0,0.0,0.0,0.0,0.0,0.0,0.0,0.0,0.0,0.0,0.0,0.0,0.0,0.0,0.0,0.0,0.0,0.0,0.0,0.0,-1.3241,-1.1777,-1.2107,-1.1657,-1.044,-1.0979,-1.1126,-1.0864,-1.0666,-1.0679,-1.0771,-1.1001,-1.1434,-1.1998,-1.2345,-1.2868,-1.3476,-1.3536,-1.385,-1.4348,-1.4713,-1.5021,-1.5438,-1.6895,-1.759,-1.7939,-1.8162,-1.823,-1.8172,-1.8124,-1.7998,-1.7794,-1.7588,-1.7373,-1.7235,-1.7245,-1.7245,-1.7314,-1.7657,-1.7442,-1.7226,-1.7364,-1.6875,-1.6342,-1.6333,-1.6124,-1.5867,-1.5743,-1.5851,-1.576,-1.5301,-1.5304,-1.5529,-1.5802,-1.6117,-1.6301,-1.6197,-1.6368,-1.642,-1.6151,-1.6587,-1.6537,-1.5642,-1.5741,-1.5992,-1.6386,-1.6306,-1.6696,-1.7629,-1.7512,-1.7939,-1.8977,-1.9209,-1.9499,-1.9724,-1.9965,-2.0122,-2.0213,-2.0545,-2.1178]}]]